<?xml version="1.0" encoding="ISO-8859-1" standalone="yes"?>
<gpx
  xmlns="http://www.topografix.com/GPX/1/1"
  version="1.1" creator="LoadMyTracks/073 http://www.cluetrust.com/LoadMyTracks.html"
  xmlns:xsi="http://www.w3.org/2001/XMLSchema-instance"
  xmlns:gpxdata="http://www.cluetrust.com/XML/GPXDATA/1/0"
  xmlns:geocache="http://www.groundspeak.com/cache/1/0"
  xsi:schemaLocation="http://www.topografix.com/GPX/1/1 http://www.topografix.com/GPX/1/1/gpx.xsd
http://www.cluetrust.com/XML/GPXDATA/1/0 http://www.cluetrust.com/Schemas/gpxdata10.xsd">
<trk>
<name>2010/4/7 8:37:57 GMT</name>
<trkseg>
	<trkpt lat="51.82877167" lon="-2.109876667"><ele>251.000000</ele><time>2010-04-07T08:37:57Z</time></trkpt>
	<trkpt lat="51.82879167" lon="-2.1099"><ele>263.000000</ele><time>2010-04-07T08:38:03Z</time></trkpt>
	<trkpt lat="51.82879667" lon="-2.109895"><ele>264.000000</ele><time>2010-04-07T08:38:08Z</time></trkpt>
	<trkpt lat="51.82880167" lon="-2.10989"><ele>264.000000</ele><time>2010-04-07T08:38:13Z</time></trkpt>
	<trkpt lat="51.82880833" lon="-2.109883333"><ele>264.000000</ele><time>2010-04-07T08:38:18Z</time></trkpt>
	<trkpt lat="51.828815" lon="-2.10988"><ele>264.000000</ele><time>2010-04-07T08:38:23Z</time></trkpt>
	<trkpt lat="51.82882167" lon="-2.109878333"><ele>264.000000</ele><time>2010-04-07T08:38:28Z</time></trkpt>
	<trkpt lat="51.82883667" lon="-2.109908333"><ele>274.000000</ele><time>2010-04-07T08:38:33Z</time></trkpt>
	<trkpt lat="51.82884667" lon="-2.109931667"><ele>282.000000</ele><time>2010-04-07T08:38:38Z</time></trkpt>
	<trkpt lat="51.82885167" lon="-2.109935"><ele>283.000000</ele><time>2010-04-07T08:38:43Z</time></trkpt>
	<trkpt lat="51.82885167" lon="-2.109935"><ele>284.000000</ele><time>2010-04-07T08:38:48Z</time></trkpt>
	<trkpt lat="51.82885333" lon="-2.109935"><ele>285.000000</ele><time>2010-04-07T08:38:53Z</time></trkpt>
	<trkpt lat="51.828855" lon="-2.109933333"><ele>285.000000</ele><time>2010-04-07T08:38:58Z</time></trkpt>
	<trkpt lat="51.82885667" lon="-2.109933333"><ele>285.000000</ele><time>2010-04-07T08:39:03Z</time></trkpt>
	<trkpt lat="51.82885667" lon="-2.109933333"><ele>285.000000</ele><time>2010-04-07T08:39:08Z</time></trkpt>
	<trkpt lat="51.82885833" lon="-2.109933333"><ele>286.000000</ele><time>2010-04-07T08:39:13Z</time></trkpt>
	<trkpt lat="51.82885833" lon="-2.109933333"><ele>286.000000</ele><time>2010-04-07T08:39:18Z</time></trkpt>
	<trkpt lat="51.82885833" lon="-2.109931667"><ele>286.000000</ele><time>2010-04-07T08:39:23Z</time></trkpt>
	<trkpt lat="51.82885833" lon="-2.109931667"><ele>286.000000</ele><time>2010-04-07T08:39:28Z</time></trkpt>
	<trkpt lat="51.82886" lon="-2.109931667"><ele>286.000000</ele><time>2010-04-07T08:39:33Z</time></trkpt>
	<trkpt lat="51.82886" lon="-2.10993"><ele>287.000000</ele><time>2010-04-07T08:39:38Z</time></trkpt>
	<trkpt lat="51.82886167" lon="-2.10993"><ele>287.000000</ele><time>2010-04-07T08:39:43Z</time></trkpt>
	<trkpt lat="51.82886167" lon="-2.10993"><ele>287.000000</ele><time>2010-04-07T08:39:48Z</time></trkpt>
	<trkpt lat="51.82886167" lon="-2.10993"><ele>287.000000</ele><time>2010-04-07T08:39:53Z</time></trkpt>
	<trkpt lat="51.828865" lon="-2.109931667"><ele>287.000000</ele><time>2010-04-07T08:39:58Z</time></trkpt>
	<trkpt lat="51.828865" lon="-2.109931667"><ele>287.000000</ele><time>2010-04-07T08:40:03Z</time></trkpt>
	<trkpt lat="51.82886667" lon="-2.109931667"><ele>287.000000</ele><time>2010-04-07T08:40:08Z</time></trkpt>
	<trkpt lat="51.82886667" lon="-2.109931667"><ele>287.000000</ele><time>2010-04-07T08:40:13Z</time></trkpt>
	<trkpt lat="51.82886667" lon="-2.109931667"><ele>287.000000</ele><time>2010-04-07T08:40:18Z</time></trkpt>
	<trkpt lat="51.82886833" lon="-2.10993"><ele>288.000000</ele><time>2010-04-07T08:40:23Z</time></trkpt>
	<trkpt lat="51.82886833" lon="-2.109928333"><ele>288.000000</ele><time>2010-04-07T08:40:28Z</time></trkpt>
	<trkpt lat="51.82886667" lon="-2.109926667"><ele>288.000000</ele><time>2010-04-07T08:40:33Z</time></trkpt>
	<trkpt lat="51.82886667" lon="-2.109923333"><ele>288.000000</ele><time>2010-04-07T08:40:38Z</time></trkpt>
	<trkpt lat="51.828865" lon="-2.109923333"><ele>288.000000</ele><time>2010-04-07T08:40:43Z</time></trkpt>
	<trkpt lat="51.828865" lon="-2.109923333"><ele>288.000000</ele><time>2010-04-07T08:40:48Z</time></trkpt>
	<trkpt lat="51.82886167" lon="-2.109923333"><ele>288.000000</ele><time>2010-04-07T08:40:53Z</time></trkpt>
	<trkpt lat="51.82886167" lon="-2.109923333"><ele>288.000000</ele><time>2010-04-07T08:40:58Z</time></trkpt>
	<trkpt lat="51.82886167" lon="-2.109923333"><ele>288.000000</ele><time>2010-04-07T08:41:03Z</time></trkpt>
	<trkpt lat="51.82886" lon="-2.109923333"><ele>288.000000</ele><time>2010-04-07T08:41:08Z</time></trkpt>
	<trkpt lat="51.82885667" lon="-2.109931667"><ele>288.000000</ele><time>2010-04-07T08:41:13Z</time></trkpt>
	<trkpt lat="51.82885833" lon="-2.109895"><ele>291.000000</ele><time>2010-04-07T08:41:18Z</time></trkpt>
	<trkpt lat="51.82884" lon="-2.109891667"><ele>293.000000</ele><time>2010-04-07T08:41:23Z</time></trkpt>
	<trkpt lat="51.828845" lon="-2.109893333"><ele>295.000000</ele><time>2010-04-07T08:41:28Z</time></trkpt>
	<trkpt lat="51.82886833" lon="-2.109911667"><ele>295.000000</ele><time>2010-04-07T08:41:33Z</time></trkpt>
	<trkpt lat="51.828875" lon="-2.109935"><ele>295.000000</ele><time>2010-04-07T08:41:38Z</time></trkpt>
	<trkpt lat="51.828885" lon="-2.109935"><ele>290.000000</ele><time>2010-04-07T08:41:43Z</time></trkpt>
	<trkpt lat="51.828895" lon="-2.109935"><ele>288.000000</ele><time>2010-04-07T08:41:48Z</time></trkpt>
	<trkpt lat="51.82889833" lon="-2.109918333"><ele>289.000000</ele><time>2010-04-07T08:41:53Z</time></trkpt>
	<trkpt lat="51.8289" lon="-2.109895"><ele>289.000000</ele><time>2010-04-07T08:41:58Z</time></trkpt>
	<trkpt lat="51.828945" lon="-2.109895"><ele>290.000000</ele><time>2010-04-07T08:42:03Z</time></trkpt>
	<trkpt lat="51.82896" lon="-2.109921667"><ele>290.000000</ele><time>2010-04-07T08:42:08Z</time></trkpt>
	<trkpt lat="51.82895667" lon="-2.109898333"><ele>293.000000</ele><time>2010-04-07T08:42:13Z</time></trkpt>
	<trkpt lat="51.82894333" lon="-2.109866667"><ele>297.000000</ele><time>2010-04-07T08:42:18Z</time></trkpt>
	<trkpt lat="51.82894833" lon="-2.109838333"><ele>298.000000</ele><time>2010-04-07T08:42:23Z</time></trkpt>
	<trkpt lat="51.828935" lon="-2.109826667"><ele>297.000000</ele><time>2010-04-07T08:42:28Z</time></trkpt>
	<trkpt lat="51.82893" lon="-2.10982"><ele>299.000000</ele><time>2010-04-07T08:42:33Z</time></trkpt>
	<trkpt lat="51.82892" lon="-2.109838333"><ele>297.000000</ele><time>2010-04-07T08:42:38Z</time></trkpt>
	<trkpt lat="51.82891" lon="-2.109818333"><ele>295.000000</ele><time>2010-04-07T08:42:43Z</time></trkpt>
	<trkpt lat="51.828905" lon="-2.109813333"><ele>293.000000</ele><time>2010-04-07T08:42:48Z</time></trkpt>
	<trkpt lat="51.82890667" lon="-2.109823333"><ele>291.000000</ele><time>2010-04-07T08:42:53Z</time></trkpt>
	<trkpt lat="51.82891333" lon="-2.109843333"><ele>285.000000</ele><time>2010-04-07T08:42:58Z</time></trkpt>
	<trkpt lat="51.82892167" lon="-2.109858333"><ele>284.000000</ele><time>2010-04-07T08:43:03Z</time></trkpt>
	<trkpt lat="51.82894167" lon="-2.109873333"><ele>286.000000</ele><time>2010-04-07T08:43:08Z</time></trkpt>
	<trkpt lat="51.82892167" lon="-2.109895"><ele>286.000000</ele><time>2010-04-07T08:43:13Z</time></trkpt>
	<trkpt lat="51.82888" lon="-2.10988"><ele>286.000000</ele><time>2010-04-07T08:43:18Z</time></trkpt>
	<trkpt lat="51.82886167" lon="-2.10987"><ele>287.000000</ele><time>2010-04-07T08:43:23Z</time></trkpt>
	<trkpt lat="51.82886167" lon="-2.109893333"><ele>287.000000</ele><time>2010-04-07T08:43:28Z</time></trkpt>
	<trkpt lat="51.82886167" lon="-2.10988"><ele>288.000000</ele><time>2010-04-07T08:43:33Z</time></trkpt>
	<trkpt lat="51.82886167" lon="-2.10986"><ele>290.000000</ele><time>2010-04-07T08:43:38Z</time></trkpt>
	<trkpt lat="51.828895" lon="-2.109838333"><ele>296.000000</ele><time>2010-04-07T08:43:43Z</time></trkpt>
	<trkpt lat="51.82888333" lon="-2.109843333"><ele>294.000000</ele><time>2010-04-07T08:43:48Z</time></trkpt>
	<trkpt lat="51.82888" lon="-2.109838333"><ele>294.000000</ele><time>2010-04-07T08:43:53Z</time></trkpt>
	<trkpt lat="51.82888833" lon="-2.109838333"><ele>294.000000</ele><time>2010-04-07T08:43:58Z</time></trkpt>
	<trkpt lat="51.828895" lon="-2.109838333"><ele>295.000000</ele><time>2010-04-07T08:44:03Z</time></trkpt>
	<trkpt lat="51.8289" lon="-2.109833333"><ele>294.000000</ele><time>2010-04-07T08:44:08Z</time></trkpt>
	<trkpt lat="51.82888833" lon="-2.10981"><ele>294.000000</ele><time>2010-04-07T08:44:13Z</time></trkpt>
	<trkpt lat="51.82891" lon="-2.10982"><ele>297.000000</ele><time>2010-04-07T08:44:18Z</time></trkpt>
	<trkpt lat="51.82895167" lon="-2.109861667"><ele>295.000000</ele><time>2010-04-07T08:44:23Z</time></trkpt>
	<trkpt lat="51.82891333" lon="-2.109778333"><ele>298.000000</ele><time>2010-04-07T08:44:28Z</time></trkpt>
	<trkpt lat="51.82887667" lon="-2.109738333"><ele>298.000000</ele><time>2010-04-07T08:44:33Z</time></trkpt>
	<trkpt lat="51.82886" lon="-2.109755"><ele>294.000000</ele><time>2010-04-07T08:44:38Z</time></trkpt>
	<trkpt lat="51.82890333" lon="-2.109778333"><ele>295.000000</ele><time>2010-04-07T08:44:43Z</time></trkpt>
	<trkpt lat="51.82894833" lon="-2.109833333"><ele>299.000000</ele><time>2010-04-07T08:44:48Z</time></trkpt>
	<trkpt lat="51.82891667" lon="-2.109875"><ele>299.000000</ele><time>2010-04-07T08:44:53Z</time></trkpt>
	<trkpt lat="51.82887667" lon="-2.109901667"><ele>300.000000</ele><time>2010-04-07T08:44:58Z</time></trkpt>
	<trkpt lat="51.82882167" lon="-2.109936667"><ele>297.000000</ele><time>2010-04-07T08:45:04Z</time></trkpt>
	<trkpt lat="51.82893167" lon="-2.109923333"><ele>293.000000</ele><time>2010-04-07T08:45:14Z</time></trkpt>
	<trkpt lat="51.82900167" lon="-2.109828333"><ele>301.000000</ele><time>2010-04-07T08:45:19Z</time></trkpt>
	<trkpt lat="51.82891333" lon="-2.10988"><ele>302.000000</ele><time>2010-04-07T08:45:46Z</time></trkpt>
	<trkpt lat="51.82888833" lon="-2.109831667"><ele>295.000000</ele><time>2010-04-07T08:45:51Z</time></trkpt>
	<trkpt lat="51.82885167" lon="-2.109818333"><ele>286.000000</ele><time>2010-04-07T08:45:56Z</time></trkpt>
	<trkpt lat="51.82887167" lon="-2.109838333"><ele>289.000000</ele><time>2010-04-07T08:46:01Z</time></trkpt>
	<trkpt lat="51.82889833" lon="-2.109863333"><ele>292.000000</ele><time>2010-04-07T08:46:06Z</time></trkpt>
	<trkpt lat="51.82890667" lon="-2.1099"><ele>293.000000</ele><time>2010-04-07T08:46:11Z</time></trkpt>
	<trkpt lat="51.82890667" lon="-2.10991"><ele>293.000000</ele><time>2010-04-07T08:46:16Z</time></trkpt>
	<trkpt lat="51.82888333" lon="-2.109871667"><ele>289.000000</ele><time>2010-04-07T08:46:21Z</time></trkpt>
	<trkpt lat="51.82888833" lon="-2.109866667"><ele>292.000000</ele><time>2010-04-07T08:46:26Z</time></trkpt>
	<trkpt lat="51.82887667" lon="-2.109751667"><ele>293.000000</ele><time>2010-04-07T08:46:31Z</time></trkpt>
	<trkpt lat="51.82888333" lon="-2.109721667"><ele>292.000000</ele><time>2010-04-07T08:46:36Z</time></trkpt>
	<trkpt lat="51.82887667" lon="-2.109743333"><ele>288.000000</ele><time>2010-04-07T08:46:41Z</time></trkpt>
	<trkpt lat="51.82887333" lon="-2.109738333"><ele>288.000000</ele><time>2010-04-07T08:46:46Z</time></trkpt>
	<trkpt lat="51.82884667" lon="-2.109735"><ele>288.000000</ele><time>2010-04-07T08:46:51Z</time></trkpt>
	<trkpt lat="51.82886167" lon="-2.109766667"><ele>288.000000</ele><time>2010-04-07T08:46:56Z</time></trkpt>
	<trkpt lat="51.82883" lon="-2.109738333"><ele>293.000000</ele><time>2010-04-07T08:47:01Z</time></trkpt>
	<trkpt lat="51.82883667" lon="-2.109761667"><ele>291.000000</ele><time>2010-04-07T08:47:06Z</time></trkpt>
	<trkpt lat="51.82883167" lon="-2.109751667"><ele>290.000000</ele><time>2010-04-07T08:47:13Z</time></trkpt>
	<trkpt lat="51.82884667" lon="-2.109785"><ele>287.000000</ele><time>2010-04-07T08:47:18Z</time></trkpt>
	<trkpt lat="51.82885667" lon="-2.109776667"><ele>287.000000</ele><time>2010-04-07T08:47:23Z</time></trkpt>
	<trkpt lat="51.828855" lon="-2.109793333"><ele>287.000000</ele><time>2010-04-07T08:47:28Z</time></trkpt>
	<trkpt lat="51.82886167" lon="-2.10981"><ele>287.000000</ele><time>2010-04-07T08:47:33Z</time></trkpt>
	<trkpt lat="51.82888167" lon="-2.109835"><ele>286.000000</ele><time>2010-04-07T08:47:38Z</time></trkpt>
	<trkpt lat="51.82888167" lon="-2.109833333"><ele>288.000000</ele><time>2010-04-07T08:47:43Z</time></trkpt>
	<trkpt lat="51.82888833" lon="-2.109831667"><ele>289.000000</ele><time>2010-04-07T08:47:48Z</time></trkpt>
	<trkpt lat="51.82888167" lon="-2.109816667"><ele>289.000000</ele><time>2010-04-07T08:47:53Z</time></trkpt>
	<trkpt lat="51.828865" lon="-2.109783333"><ele>289.000000</ele><time>2010-04-07T08:47:58Z</time></trkpt>
	<trkpt lat="51.82887333" lon="-2.10982"><ele>290.000000</ele><time>2010-04-07T08:48:03Z</time></trkpt>
	<trkpt lat="51.82886833" lon="-2.109841667"><ele>287.000000</ele><time>2010-04-07T08:48:08Z</time></trkpt>
	<trkpt lat="51.82886167" lon="-2.109833333"><ele>287.000000</ele><time>2010-04-07T08:48:13Z</time></trkpt>
	<trkpt lat="51.828845" lon="-2.109795"><ele>288.000000</ele><time>2010-04-07T08:48:18Z</time></trkpt>
	<trkpt lat="51.82885167" lon="-2.109795"><ele>288.000000</ele><time>2010-04-07T08:48:23Z</time></trkpt>
	<trkpt lat="51.82885667" lon="-2.109803333"><ele>289.000000</ele><time>2010-04-07T08:48:28Z</time></trkpt>
	<trkpt lat="51.82885833" lon="-2.109821667"><ele>288.000000</ele><time>2010-04-07T08:48:33Z</time></trkpt>
	<trkpt lat="51.828875" lon="-2.109858333"><ele>288.000000</ele><time>2010-04-07T08:48:38Z</time></trkpt>
	<trkpt lat="51.82888" lon="-2.109846667"><ele>288.000000</ele><time>2010-04-07T08:48:43Z</time></trkpt>
	<trkpt lat="51.82890167" lon="-2.109855"><ele>288.000000</ele><time>2010-04-07T08:48:48Z</time></trkpt>
	<trkpt lat="51.82891667" lon="-2.109865"><ele>288.000000</ele><time>2010-04-07T08:48:53Z</time></trkpt>
	<trkpt lat="51.82892167" lon="-2.109875"><ele>286.000000</ele><time>2010-04-07T08:48:58Z</time></trkpt>
	<trkpt lat="51.82894833" lon="-2.109918333"><ele>285.000000</ele><time>2010-04-07T08:49:03Z</time></trkpt>
	<trkpt lat="51.82894667" lon="-2.109923333"><ele>283.000000</ele><time>2010-04-07T08:49:08Z</time></trkpt>
	<trkpt lat="51.82897167" lon="-2.10993"><ele>285.000000</ele><time>2010-04-07T08:49:13Z</time></trkpt>
	<trkpt lat="51.828965" lon="-2.109928333"><ele>285.000000</ele><time>2010-04-07T08:49:18Z</time></trkpt>
	<trkpt lat="51.82894667" lon="-2.109921667"><ele>285.000000</ele><time>2010-04-07T08:49:23Z</time></trkpt>
	<trkpt lat="51.82893333" lon="-2.109916667"><ele>284.000000</ele><time>2010-04-07T08:49:28Z</time></trkpt>
	<trkpt lat="51.82891833" lon="-2.109916667"><ele>284.000000</ele><time>2010-04-07T08:49:33Z</time></trkpt>
	<trkpt lat="51.82891667" lon="-2.109933333"><ele>289.000000</ele><time>2010-04-07T08:49:38Z</time></trkpt>
	<trkpt lat="51.828905" lon="-2.109916667"><ele>290.000000</ele><time>2010-04-07T08:49:43Z</time></trkpt>
	<trkpt lat="51.82887333" lon="-2.109911667"><ele>292.000000</ele><time>2010-04-07T08:49:48Z</time></trkpt>
	<trkpt lat="51.82887667" lon="-2.109901667"><ele>291.000000</ele><time>2010-04-07T08:49:53Z</time></trkpt>
	<trkpt lat="51.82887667" lon="-2.109906667"><ele>290.000000</ele><time>2010-04-07T08:49:58Z</time></trkpt>
	<trkpt lat="51.828905" lon="-2.109895"><ele>290.000000</ele><time>2010-04-07T08:50:03Z</time></trkpt>
	<trkpt lat="51.828905" lon="-2.109856667"><ele>288.000000</ele><time>2010-04-07T08:50:08Z</time></trkpt>
	<trkpt lat="51.82889" lon="-2.109826667"><ele>287.000000</ele><time>2010-04-07T08:50:13Z</time></trkpt>
	<trkpt lat="51.82887" lon="-2.10981"><ele>286.000000</ele><time>2010-04-07T08:50:18Z</time></trkpt>
	<trkpt lat="51.82886" lon="-2.10981"><ele>285.000000</ele><time>2010-04-07T08:50:23Z</time></trkpt>
	<trkpt lat="51.82883667" lon="-2.109876667"><ele>284.000000</ele><time>2010-04-07T08:50:28Z</time></trkpt>
	<trkpt lat="51.82881333" lon="-2.10982"><ele>288.000000</ele><time>2010-04-07T08:50:33Z</time></trkpt>
	<trkpt lat="51.828795" lon="-2.109766667"><ele>289.000000</ele><time>2010-04-07T08:50:38Z</time></trkpt>
	<trkpt lat="51.82879833" lon="-2.109735"><ele>290.000000</ele><time>2010-04-07T08:50:43Z</time></trkpt>
	<trkpt lat="51.82875" lon="-2.109715"><ele>287.000000</ele><time>2010-04-07T08:50:48Z</time></trkpt>
	<trkpt lat="51.82869167" lon="-2.109681667"><ele>286.000000</ele><time>2010-04-07T08:50:53Z</time></trkpt>
	<trkpt lat="51.82862167" lon="-2.109695"><ele>283.000000</ele><time>2010-04-07T08:50:58Z</time></trkpt>
	<trkpt lat="51.82856" lon="-2.109685"><ele>282.000000</ele><time>2010-04-07T08:51:03Z</time></trkpt>
	<trkpt lat="51.82850167" lon="-2.10965"><ele>282.000000</ele><time>2010-04-07T08:51:08Z</time></trkpt>
	<trkpt lat="51.82845333" lon="-2.109598333"><ele>282.000000</ele><time>2010-04-07T08:51:13Z</time></trkpt>
	<trkpt lat="51.82844167" lon="-2.109548333"><ele>280.000000</ele><time>2010-04-07T08:51:18Z</time></trkpt>
	<trkpt lat="51.82844833" lon="-2.109466667"><ele>281.000000</ele><time>2010-04-07T08:51:23Z</time></trkpt>
	<trkpt lat="51.82838167" lon="-2.109441667"><ele>275.000000</ele><time>2010-04-07T08:51:28Z</time></trkpt>
	<trkpt lat="51.82830833" lon="-2.109433333"><ele>273.000000</ele><time>2010-04-07T08:51:33Z</time></trkpt>
	<trkpt lat="51.82825" lon="-2.109385"><ele>275.000000</ele><time>2010-04-07T08:51:38Z</time></trkpt>
	<trkpt lat="51.82821667" lon="-2.109305"><ele>278.000000</ele><time>2010-04-07T08:51:43Z</time></trkpt>
	<trkpt lat="51.8282" lon="-2.10926"><ele>283.000000</ele><time>2010-04-07T08:51:48Z</time></trkpt>
	<trkpt lat="51.82819833" lon="-2.109246667"><ele>285.000000</ele><time>2010-04-07T08:51:53Z</time></trkpt>
	<trkpt lat="51.828175" lon="-2.109271667"><ele>282.000000</ele><time>2010-04-07T08:51:58Z</time></trkpt>
	<trkpt lat="51.82816833" lon="-2.109358333"><ele>279.000000</ele><time>2010-04-07T08:52:03Z</time></trkpt>
	<trkpt lat="51.82817" lon="-2.109458333"><ele>278.000000</ele><time>2010-04-07T08:52:08Z</time></trkpt>
	<trkpt lat="51.82817167" lon="-2.10958"><ele>277.000000</ele><time>2010-04-07T08:52:13Z</time></trkpt>
	<trkpt lat="51.82821" lon="-2.109623333"><ele>280.000000</ele><time>2010-04-07T08:52:18Z</time></trkpt>
	<trkpt lat="51.82820833" lon="-2.109661667"><ele>285.000000</ele><time>2010-04-07T08:52:23Z</time></trkpt>
	<trkpt lat="51.828195" lon="-2.109595"><ele>289.000000</ele><time>2010-04-07T08:52:28Z</time></trkpt>
	<trkpt lat="51.82819167" lon="-2.109533333"><ele>294.000000</ele><time>2010-04-07T08:52:33Z</time></trkpt>
	<trkpt lat="51.82829833" lon="-2.109866667"><ele>315.000000</ele><time>2010-04-07T08:52:48Z</time></trkpt>
	<trkpt lat="51.82823833" lon="-2.109965"><ele>308.000000</ele><time>2010-04-07T08:52:56Z</time></trkpt>
	<trkpt lat="51.82821" lon="-2.109945"><ele>306.000000</ele><time>2010-04-07T08:53:01Z</time></trkpt>
	<trkpt lat="51.82816167" lon="-2.109943333"><ele>307.000000</ele><time>2010-04-07T08:53:06Z</time></trkpt>
	<trkpt lat="51.82817667" lon="-2.109958333"><ele>301.000000</ele><time>2010-04-07T08:53:11Z</time></trkpt>
	<trkpt lat="51.82817" lon="-2.110036667"><ele>296.000000</ele><time>2010-04-07T08:53:16Z</time></trkpt>
	<trkpt lat="51.828175" lon="-2.110051667"><ele>295.000000</ele><time>2010-04-07T08:53:21Z</time></trkpt>
	<trkpt lat="51.82821" lon="-2.110043333"><ele>289.000000</ele><time>2010-04-07T08:53:26Z</time></trkpt>
	<trkpt lat="51.82828333" lon="-2.109983333"><ele>278.000000</ele><time>2010-04-07T08:53:31Z</time></trkpt>
	<trkpt lat="51.82828167" lon="-2.10998"><ele>273.000000</ele><time>2010-04-07T08:53:36Z</time></trkpt>
	<trkpt lat="51.82829167" lon="-2.10997"><ele>281.000000</ele><time>2010-04-07T08:53:41Z</time></trkpt>
	<trkpt lat="51.82827333" lon="-2.110001667"><ele>285.000000</ele><time>2010-04-07T08:53:46Z</time></trkpt>
	<trkpt lat="51.828255" lon="-2.110023333"><ele>283.000000</ele><time>2010-04-07T08:53:51Z</time></trkpt>
	<trkpt lat="51.82820833" lon="-2.110091667"><ele>288.000000</ele><time>2010-04-07T08:53:56Z</time></trkpt>
	<trkpt lat="51.82824833" lon="-2.110108333"><ele>287.000000</ele><time>2010-04-07T08:54:02Z</time></trkpt>
	<trkpt lat="51.82825333" lon="-2.11008"><ele>289.000000</ele><time>2010-04-07T08:54:11Z</time></trkpt>
	<trkpt lat="51.82834833" lon="-2.109921667"><ele>277.000000</ele><time>2010-04-07T08:54:30Z</time></trkpt>
	<trkpt lat="51.828345" lon="-2.109838333"><ele>287.000000</ele><time>2010-04-07T08:54:35Z</time></trkpt>
	<trkpt lat="51.82824" lon="-2.109886667"><ele>304.000000</ele><time>2010-04-07T08:54:40Z</time></trkpt>
	<trkpt lat="51.82824" lon="-2.109978333"><ele>315.000000</ele><time>2010-04-07T08:54:45Z</time></trkpt>
	<trkpt lat="51.82815333" lon="-2.110123333"><ele>315.000000</ele><time>2010-04-07T08:54:50Z</time></trkpt>
	<trkpt lat="51.8281" lon="-2.110133333"><ele>321.000000</ele><time>2010-04-07T08:54:55Z</time></trkpt>
	<trkpt lat="51.82805167" lon="-2.110143333"><ele>323.000000</ele><time>2010-04-07T08:55:00Z</time></trkpt>
	<trkpt lat="51.828085" lon="-2.110123333"><ele>329.000000</ele><time>2010-04-07T08:55:05Z</time></trkpt>
	<trkpt lat="51.82808833" lon="-2.110168333"><ele>327.000000</ele><time>2010-04-07T08:55:10Z</time></trkpt>
	<trkpt lat="51.82812" lon="-2.110183333"><ele>320.000000</ele><time>2010-04-07T08:55:15Z</time></trkpt>
	<trkpt lat="51.82812333" lon="-2.110131667"><ele>319.000000</ele><time>2010-04-07T08:55:20Z</time></trkpt>
	<trkpt lat="51.828075" lon="-2.110145"><ele>320.000000</ele><time>2010-04-07T08:55:25Z</time></trkpt>
	<trkpt lat="51.82805333" lon="-2.110176667"><ele>316.000000</ele><time>2010-04-07T08:55:30Z</time></trkpt>
	<trkpt lat="51.82802333" lon="-2.110213333"><ele>318.000000</ele><time>2010-04-07T08:55:35Z</time></trkpt>
	<trkpt lat="51.828025" lon="-2.110188333"><ele>310.000000</ele><time>2010-04-07T08:55:40Z</time></trkpt>
	<trkpt lat="51.82803333" lon="-2.11018"><ele>306.000000</ele><time>2010-04-07T08:55:45Z</time></trkpt>
	<trkpt lat="51.82803833" lon="-2.110193333"><ele>310.000000</ele><time>2010-04-07T08:55:50Z</time></trkpt>
	<trkpt lat="51.82804167" lon="-2.110158333"><ele>312.000000</ele><time>2010-04-07T08:55:55Z</time></trkpt>
	<trkpt lat="51.82809" lon="-2.110133333"><ele>315.000000</ele><time>2010-04-07T08:56:00Z</time></trkpt>
	<trkpt lat="51.82806333" lon="-2.110148333"><ele>312.000000</ele><time>2010-04-07T08:56:09Z</time></trkpt>
	<trkpt lat="51.82810167" lon="-2.110045"><ele>309.000000</ele><time>2010-04-07T08:56:14Z</time></trkpt>
	<trkpt lat="51.82809667" lon="-2.110051667"><ele>309.000000</ele><time>2010-04-07T08:56:19Z</time></trkpt>
	<trkpt lat="51.82812667" lon="-2.110055"><ele>310.000000</ele><time>2010-04-07T08:56:24Z</time></trkpt>
	<trkpt lat="51.82816" lon="-2.110103333"><ele>303.000000</ele><time>2010-04-07T08:56:29Z</time></trkpt>
	<trkpt lat="51.828195" lon="-2.110045"><ele>296.000000</ele><time>2010-04-07T08:56:34Z</time></trkpt>
	<trkpt lat="51.82823667" lon="-2.110033333"><ele>295.000000</ele><time>2010-04-07T08:56:39Z</time></trkpt>
	<trkpt lat="51.828255" lon="-2.110021667"><ele>293.000000</ele><time>2010-04-07T08:56:44Z</time></trkpt>
	<trkpt lat="51.82827667" lon="-2.11003"><ele>295.000000</ele><time>2010-04-07T08:56:49Z</time></trkpt>
	<trkpt lat="51.82827833" lon="-2.109971667"><ele>297.000000</ele><time>2010-04-07T08:56:54Z</time></trkpt>
	<trkpt lat="51.82828333" lon="-2.110041667"><ele>294.000000</ele><time>2010-04-07T08:56:59Z</time></trkpt>
	<trkpt lat="51.828305" lon="-2.110126667"><ele>292.000000</ele><time>2010-04-07T08:57:04Z</time></trkpt>
	<trkpt lat="51.82836667" lon="-2.110168333"><ele>293.000000</ele><time>2010-04-07T08:57:09Z</time></trkpt>
	<trkpt lat="51.82837167" lon="-2.110143333"><ele>295.000000</ele><time>2010-04-07T08:57:14Z</time></trkpt>
	<trkpt lat="51.82833333" lon="-2.110036667"><ele>301.000000</ele><time>2010-04-07T08:57:19Z</time></trkpt>
	<trkpt lat="51.82829333" lon="-2.109923333"><ele>308.000000</ele><time>2010-04-07T08:57:24Z</time></trkpt>
	<trkpt lat="51.82825833" lon="-2.109878333"><ele>308.000000</ele><time>2010-04-07T08:57:29Z</time></trkpt>
	<trkpt lat="51.82831333" lon="-2.109951667"><ele>305.000000</ele><time>2010-04-07T08:57:35Z</time></trkpt>
	<trkpt lat="51.82828333" lon="-2.110026667"><ele>302.000000</ele><time>2010-04-07T08:57:40Z</time></trkpt>
	<trkpt lat="51.82828167" lon="-2.110151667"><ele>297.000000</ele><time>2010-04-07T08:57:45Z</time></trkpt>
	<trkpt lat="51.828205" lon="-2.110163333"><ele>298.000000</ele><time>2010-04-07T08:57:50Z</time></trkpt>
	<trkpt lat="51.82822" lon="-2.110173333"><ele>289.000000</ele><time>2010-04-07T08:57:55Z</time></trkpt>
	<trkpt lat="51.82831" lon="-2.110163333"><ele>292.000000</ele><time>2010-04-07T08:58:04Z</time></trkpt>
	<trkpt lat="51.82829167" lon="-2.11012"><ele>295.000000</ele><time>2010-04-07T08:58:09Z</time></trkpt>
	<trkpt lat="51.82826833" lon="-2.11008"><ele>300.000000</ele><time>2010-04-07T08:58:14Z</time></trkpt>
	<trkpt lat="51.82830333" lon="-2.109995"><ele>296.000000</ele><time>2010-04-07T08:58:19Z</time></trkpt>
	<trkpt lat="51.82830667" lon="-2.110013333"><ele>293.000000</ele><time>2010-04-07T08:58:24Z</time></trkpt>
	<trkpt lat="51.82833" lon="-2.11007"><ele>299.000000</ele><time>2010-04-07T08:58:29Z</time></trkpt>
	<trkpt lat="51.82821333" lon="-2.10851"><ele>372.000000</ele><time>2010-04-07T08:59:20Z</time></trkpt>
	<trkpt lat="51.82826167" lon="-2.109556667"><ele>302.000000</ele><time>2010-04-07T08:59:25Z</time></trkpt>
	<trkpt lat="51.8284" lon="-2.110233333"><ele>278.000000</ele><time>2010-04-07T08:59:30Z</time></trkpt>
	<trkpt lat="51.828465" lon="-2.110633333"><ele>274.000000</ele><time>2010-04-07T08:59:35Z</time></trkpt>
	<trkpt lat="51.82851333" lon="-2.11078"><ele>273.000000</ele><time>2010-04-07T08:59:40Z</time></trkpt>
	<trkpt lat="51.82850833" lon="-2.1107"><ele>274.000000</ele><time>2010-04-07T08:59:47Z</time></trkpt>
	<trkpt lat="51.82849167" lon="-2.110041667"><ele>293.000000</ele><time>2010-04-07T08:59:53Z</time></trkpt>
	<trkpt lat="51.82851167" lon="-2.109845"><ele>306.000000</ele><time>2010-04-07T08:59:58Z</time></trkpt>
	<trkpt lat="51.82856167" lon="-2.109708333"><ele>317.000000</ele><time>2010-04-07T09:00:03Z</time></trkpt>
	<trkpt lat="51.82819333" lon="-2.109528333"><ele>288.000000</ele><time>2010-04-07T09:00:25Z</time></trkpt>
	<trkpt lat="51.82820167" lon="-2.109595"><ele>295.000000</ele><time>2010-04-07T09:00:30Z</time></trkpt>
	<trkpt lat="51.82822833" lon="-2.109663333"><ele>290.000000</ele><time>2010-04-07T09:00:35Z</time></trkpt>
	<trkpt lat="51.82824" lon="-2.109578333"><ele>293.000000</ele><time>2010-04-07T09:00:40Z</time></trkpt>
	<trkpt lat="51.82827" lon="-2.109831667"><ele>246.000000</ele><time>2010-04-07T09:01:25Z</time></trkpt>
	<trkpt lat="51.82814333" lon="-2.109863333"><ele>304.000000</ele><time>2010-04-07T09:01:30Z</time></trkpt>
	<trkpt lat="51.828195" lon="-2.109751667"><ele>296.000000</ele><time>2010-04-07T09:01:35Z</time></trkpt>
	<trkpt lat="51.82819167" lon="-2.10972"><ele>295.000000</ele><time>2010-04-07T09:01:40Z</time></trkpt>
	<trkpt lat="51.82821" lon="-2.109693333"><ele>292.000000</ele><time>2010-04-07T09:01:45Z</time></trkpt>
	<trkpt lat="51.82820667" lon="-2.109638333"><ele>296.000000</ele><time>2010-04-07T09:01:50Z</time></trkpt>
	<trkpt lat="51.82824" lon="-2.109595"><ele>294.000000</ele><time>2010-04-07T09:01:55Z</time></trkpt>
	<trkpt lat="51.82824" lon="-2.10961"><ele>293.000000</ele><time>2010-04-07T09:02:00Z</time></trkpt>
	<trkpt lat="51.82823" lon="-2.10963"><ele>290.000000</ele><time>2010-04-07T09:02:05Z</time></trkpt>
	<trkpt lat="51.82819167" lon="-2.109575"><ele>292.000000</ele><time>2010-04-07T09:02:10Z</time></trkpt>
	<trkpt lat="51.828165" lon="-2.109566667"><ele>293.000000</ele><time>2010-04-07T09:02:15Z</time></trkpt>
	<trkpt lat="51.828145" lon="-2.109535"><ele>292.000000</ele><time>2010-04-07T09:02:20Z</time></trkpt>
	<trkpt lat="51.82813" lon="-2.109493333"><ele>293.000000</ele><time>2010-04-07T09:02:25Z</time></trkpt>
	<trkpt lat="51.828135" lon="-2.109436667"><ele>292.000000</ele><time>2010-04-07T09:02:30Z</time></trkpt>
	<trkpt lat="51.828145" lon="-2.109395"><ele>290.000000</ele><time>2010-04-07T09:02:35Z</time></trkpt>
	<trkpt lat="51.82814167" lon="-2.109371667"><ele>288.000000</ele><time>2010-04-07T09:02:40Z</time></trkpt>
	<trkpt lat="51.82814" lon="-2.10931"><ele>289.000000</ele><time>2010-04-07T09:02:45Z</time></trkpt>
	<trkpt lat="51.82812" lon="-2.109295"><ele>289.000000</ele><time>2010-04-07T09:02:50Z</time></trkpt>
	<trkpt lat="51.8281" lon="-2.109323333"><ele>292.000000</ele><time>2010-04-07T09:02:55Z</time></trkpt>
	<trkpt lat="51.82807" lon="-2.109348333"><ele>291.000000</ele><time>2010-04-07T09:03:00Z</time></trkpt>
	<trkpt lat="51.82806833" lon="-2.109348333"><ele>288.000000</ele><time>2010-04-07T09:03:05Z</time></trkpt>
	<trkpt lat="51.82808" lon="-2.109336667"><ele>291.000000</ele><time>2010-04-07T09:03:10Z</time></trkpt>
	<trkpt lat="51.82808167" lon="-2.109313333"><ele>291.000000</ele><time>2010-04-07T09:03:15Z</time></trkpt>
	<trkpt lat="51.8281" lon="-2.109288333"><ele>289.000000</ele><time>2010-04-07T09:03:20Z</time></trkpt>
	<trkpt lat="51.82812833" lon="-2.10927"><ele>291.000000</ele><time>2010-04-07T09:03:25Z</time></trkpt>
	<trkpt lat="51.82813167" lon="-2.109266667"><ele>292.000000</ele><time>2010-04-07T09:03:30Z</time></trkpt>
	<trkpt lat="51.82814667" lon="-2.109263333"><ele>291.000000</ele><time>2010-04-07T09:03:35Z</time></trkpt>
	<trkpt lat="51.828145" lon="-2.109253333"><ele>289.000000</ele><time>2010-04-07T09:03:40Z</time></trkpt>
	<trkpt lat="51.82817333" lon="-2.109221667"><ele>286.000000</ele><time>2010-04-07T09:03:45Z</time></trkpt>
	<trkpt lat="51.828195" lon="-2.109213333"><ele>290.000000</ele><time>2010-04-07T09:03:50Z</time></trkpt>
	<trkpt lat="51.8282" lon="-2.109218333"><ele>290.000000</ele><time>2010-04-07T09:03:55Z</time></trkpt>
	<trkpt lat="51.82819333" lon="-2.109221667"><ele>289.000000</ele><time>2010-04-07T09:04:00Z</time></trkpt>
	<trkpt lat="51.828195" lon="-2.109265"><ele>279.000000</ele><time>2010-04-07T09:04:05Z</time></trkpt>
	<trkpt lat="51.828205" lon="-2.109266667"><ele>275.000000</ele><time>2010-04-07T09:04:10Z</time></trkpt>
	<trkpt lat="51.82819833" lon="-2.109278333"><ele>271.000000</ele><time>2010-04-07T09:04:15Z</time></trkpt>
	<trkpt lat="51.828195" lon="-2.109288333"><ele>272.000000</ele><time>2010-04-07T09:04:20Z</time></trkpt>
	<trkpt lat="51.828175" lon="-2.10926"><ele>272.000000</ele><time>2010-04-07T09:04:25Z</time></trkpt>
	<trkpt lat="51.828205" lon="-2.109248333"><ele>278.000000</ele><time>2010-04-07T09:04:30Z</time></trkpt>
	<trkpt lat="51.82822333" lon="-2.109246667"><ele>287.000000</ele><time>2010-04-07T09:04:35Z</time></trkpt>
	<trkpt lat="51.82820667" lon="-2.10931"><ele>286.000000</ele><time>2010-04-07T09:04:40Z</time></trkpt>
	<trkpt lat="51.82818667" lon="-2.10928"><ele>291.000000</ele><time>2010-04-07T09:04:45Z</time></trkpt>
	<trkpt lat="51.82817333" lon="-2.109286667"><ele>292.000000</ele><time>2010-04-07T09:04:50Z</time></trkpt>
	<trkpt lat="51.82816" lon="-2.109328333"><ele>293.000000</ele><time>2010-04-07T09:04:55Z</time></trkpt>
	<trkpt lat="51.828185" lon="-2.109276667"><ele>299.000000</ele><time>2010-04-07T09:05:00Z</time></trkpt>
	<trkpt lat="51.82817167" lon="-2.10931"><ele>294.000000</ele><time>2010-04-07T09:05:05Z</time></trkpt>
	<trkpt lat="51.82818833" lon="-2.109295"><ele>296.000000</ele><time>2010-04-07T09:05:10Z</time></trkpt>
	<trkpt lat="51.82817167" lon="-2.109305"><ele>298.000000</ele><time>2010-04-07T09:05:15Z</time></trkpt>
	<trkpt lat="51.828175" lon="-2.109281667"><ele>293.000000</ele><time>2010-04-07T09:05:20Z</time></trkpt>
	<trkpt lat="51.82813333" lon="-2.109261667"><ele>293.000000</ele><time>2010-04-07T09:05:25Z</time></trkpt>
	<trkpt lat="51.82809" lon="-2.109236667"><ele>291.000000</ele><time>2010-04-07T09:05:30Z</time></trkpt>
	<trkpt lat="51.82808167" lon="-2.109246667"><ele>288.000000</ele><time>2010-04-07T09:05:35Z</time></trkpt>
	<trkpt lat="51.82803333" lon="-2.109263333"><ele>280.000000</ele><time>2010-04-07T09:05:40Z</time></trkpt>
	<trkpt lat="51.82806" lon="-2.10922"><ele>276.000000</ele><time>2010-04-07T09:05:45Z</time></trkpt>
	<trkpt lat="51.82807" lon="-2.109253333"><ele>272.000000</ele><time>2010-04-07T09:05:50Z</time></trkpt>
	<trkpt lat="51.82809833" lon="-2.109256667"><ele>268.000000</ele><time>2010-04-07T09:05:55Z</time></trkpt>
	<trkpt lat="51.82812333" lon="-2.109218333"><ele>269.000000</ele><time>2010-04-07T09:06:00Z</time></trkpt>
	<trkpt lat="51.828145" lon="-2.10918"><ele>264.000000</ele><time>2010-04-07T09:06:05Z</time></trkpt>
	<trkpt lat="51.82817167" lon="-2.109173333"><ele>262.000000</ele><time>2010-04-07T09:06:10Z</time></trkpt>
	<trkpt lat="51.828195" lon="-2.109166667"><ele>253.000000</ele><time>2010-04-07T09:06:15Z</time></trkpt>
	<trkpt lat="51.828195" lon="-2.109186667"><ele>247.000000</ele><time>2010-04-07T09:06:20Z</time></trkpt>
	<trkpt lat="51.82818667" lon="-2.109216667"><ele>250.000000</ele><time>2010-04-07T09:06:25Z</time></trkpt>
	<trkpt lat="51.82815833" lon="-2.109255"><ele>260.000000</ele><time>2010-04-07T09:06:30Z</time></trkpt>
	<trkpt lat="51.82814667" lon="-2.109265"><ele>266.000000</ele><time>2010-04-07T09:06:35Z</time></trkpt>
	<trkpt lat="51.82815" lon="-2.109248333"><ele>265.000000</ele><time>2010-04-07T09:06:40Z</time></trkpt>
	<trkpt lat="51.82814833" lon="-2.109243333"><ele>262.000000</ele><time>2010-04-07T09:06:45Z</time></trkpt>
	<trkpt lat="51.82813333" lon="-2.109265"><ele>269.000000</ele><time>2010-04-07T09:06:50Z</time></trkpt>
	<trkpt lat="51.82812" lon="-2.109231667"><ele>280.000000</ele><time>2010-04-07T09:06:55Z</time></trkpt>
	<trkpt lat="51.82813" lon="-2.10921"><ele>280.000000</ele><time>2010-04-07T09:07:00Z</time></trkpt>
	<trkpt lat="51.82813833" lon="-2.109238333"><ele>278.000000</ele><time>2010-04-07T09:07:05Z</time></trkpt>
	<trkpt lat="51.828145" lon="-2.109295"><ele>276.000000</ele><time>2010-04-07T09:07:10Z</time></trkpt>
	<trkpt lat="51.82813833" lon="-2.10935"><ele>277.000000</ele><time>2010-04-07T09:07:15Z</time></trkpt>
	<trkpt lat="51.82811" lon="-2.109416667"><ele>277.000000</ele><time>2010-04-07T09:07:20Z</time></trkpt>
	<trkpt lat="51.82804" lon="-2.109473333"><ele>278.000000</ele><time>2010-04-07T09:07:25Z</time></trkpt>
	<trkpt lat="51.82797" lon="-2.109475"><ele>285.000000</ele><time>2010-04-07T09:07:30Z</time></trkpt>
	<trkpt lat="51.827925" lon="-2.109431667"><ele>289.000000</ele><time>2010-04-07T09:07:35Z</time></trkpt>
	<trkpt lat="51.82790667" lon="-2.109338333"><ele>295.000000</ele><time>2010-04-07T09:07:40Z</time></trkpt>
	<trkpt lat="51.82788" lon="-2.109221667"><ele>300.000000</ele><time>2010-04-07T09:07:45Z</time></trkpt>
	<trkpt lat="51.82785667" lon="-2.109108333"><ele>300.000000</ele><time>2010-04-07T09:07:50Z</time></trkpt>
	<trkpt lat="51.827835" lon="-2.109038333"><ele>297.000000</ele><time>2010-04-07T09:07:55Z</time></trkpt>
	<trkpt lat="51.82781667" lon="-2.108958333"><ele>292.000000</ele><time>2010-04-07T09:08:00Z</time></trkpt>
	<trkpt lat="51.82782" lon="-2.10893"><ele>288.000000</ele><time>2010-04-07T09:08:05Z</time></trkpt>
	<trkpt lat="51.82782333" lon="-2.108908333"><ele>288.000000</ele><time>2010-04-07T09:08:10Z</time></trkpt>
	<trkpt lat="51.82783" lon="-2.108865"><ele>288.000000</ele><time>2010-04-07T09:08:15Z</time></trkpt>
	<trkpt lat="51.827835" lon="-2.108781667"><ele>286.000000</ele><time>2010-04-07T09:08:20Z</time></trkpt>
	<trkpt lat="51.827895" lon="-2.10877"><ele>281.000000</ele><time>2010-04-07T09:08:25Z</time></trkpt>
	<trkpt lat="51.82797" lon="-2.108745"><ele>277.000000</ele><time>2010-04-07T09:08:30Z</time></trkpt>
	<trkpt lat="51.82805" lon="-2.108701667"><ele>278.000000</ele><time>2010-04-07T09:08:35Z</time></trkpt>
	<trkpt lat="51.82809" lon="-2.108658333"><ele>278.000000</ele><time>2010-04-07T09:08:40Z</time></trkpt>
	<trkpt lat="51.82814" lon="-2.108623333"><ele>277.000000</ele><time>2010-04-07T09:08:45Z</time></trkpt>
	<trkpt lat="51.828175" lon="-2.108581667"><ele>280.000000</ele><time>2010-04-07T09:08:50Z</time></trkpt>
	<trkpt lat="51.82824333" lon="-2.10855"><ele>284.000000</ele><time>2010-04-07T09:08:55Z</time></trkpt>
	<trkpt lat="51.82829833" lon="-2.108525"><ele>286.000000</ele><time>2010-04-07T09:09:00Z</time></trkpt>
	<trkpt lat="51.82836667" lon="-2.108523333"><ele>289.000000</ele><time>2010-04-07T09:09:05Z</time></trkpt>
	<trkpt lat="51.82841833" lon="-2.108503333"><ele>288.000000</ele><time>2010-04-07T09:09:10Z</time></trkpt>
	<trkpt lat="51.82845833" lon="-2.108481667"><ele>284.000000</ele><time>2010-04-07T09:09:15Z</time></trkpt>
	<trkpt lat="51.82848833" lon="-2.1085"><ele>285.000000</ele><time>2010-04-07T09:09:20Z</time></trkpt>
	<trkpt lat="51.82856333" lon="-2.108508333"><ele>290.000000</ele><time>2010-04-07T09:09:25Z</time></trkpt>
	<trkpt lat="51.82862833" lon="-2.108488333"><ele>288.000000</ele><time>2010-04-07T09:09:30Z</time></trkpt>
	<trkpt lat="51.82873333" lon="-2.108396667"><ele>290.000000</ele><time>2010-04-07T09:09:35Z</time></trkpt>
	<trkpt lat="51.82881" lon="-2.108301667"><ele>290.000000</ele><time>2010-04-07T09:09:40Z</time></trkpt>
	<trkpt lat="51.82886833" lon="-2.108258333"><ele>290.000000</ele><time>2010-04-07T09:09:45Z</time></trkpt>
	<trkpt lat="51.82888667" lon="-2.108218333"><ele>289.000000</ele><time>2010-04-07T09:09:50Z</time></trkpt>
	<trkpt lat="51.828955" lon="-2.108161667"><ele>290.000000</ele><time>2010-04-07T09:09:55Z</time></trkpt>
	<trkpt lat="51.82901833" lon="-2.108108333"><ele>291.000000</ele><time>2010-04-07T09:10:00Z</time></trkpt>
	<trkpt lat="51.82905667" lon="-2.108076667"><ele>291.000000</ele><time>2010-04-07T09:10:05Z</time></trkpt>
	<trkpt lat="51.82910833" lon="-2.108048333"><ele>292.000000</ele><time>2010-04-07T09:10:10Z</time></trkpt>
	<trkpt lat="51.82914667" lon="-2.108023333"><ele>292.000000</ele><time>2010-04-07T09:10:15Z</time></trkpt>
	<trkpt lat="51.82921167" lon="-2.107995"><ele>293.000000</ele><time>2010-04-07T09:10:20Z</time></trkpt>
	<trkpt lat="51.82923667" lon="-2.10798"><ele>293.000000</ele><time>2010-04-07T09:10:25Z</time></trkpt>
	<trkpt lat="51.82932" lon="-2.107953333"><ele>295.000000</ele><time>2010-04-07T09:10:30Z</time></trkpt>
	<trkpt lat="51.82938333" lon="-2.10793"><ele>294.000000</ele><time>2010-04-07T09:10:35Z</time></trkpt>
	<trkpt lat="51.82943" lon="-2.107933333"><ele>293.000000</ele><time>2010-04-07T09:10:40Z</time></trkpt>
	<trkpt lat="51.82946833" lon="-2.107915"><ele>293.000000</ele><time>2010-04-07T09:10:45Z</time></trkpt>
	<trkpt lat="51.829525" lon="-2.10789"><ele>292.000000</ele><time>2010-04-07T09:10:50Z</time></trkpt>
	<trkpt lat="51.82957333" lon="-2.107883333"><ele>291.000000</ele><time>2010-04-07T09:10:55Z</time></trkpt>
	<trkpt lat="51.82957833" lon="-2.107883333"><ele>290.000000</ele><time>2010-04-07T09:11:00Z</time></trkpt>
	<trkpt lat="51.82965" lon="-2.107868333"><ele>292.000000</ele><time>2010-04-07T09:11:05Z</time></trkpt>
	<trkpt lat="51.82970833" lon="-2.107833333"><ele>293.000000</ele><time>2010-04-07T09:11:10Z</time></trkpt>
	<trkpt lat="51.82977833" lon="-2.107793333"><ele>292.000000</ele><time>2010-04-07T09:11:15Z</time></trkpt>
	<trkpt lat="51.82984333" lon="-2.107758333"><ele>291.000000</ele><time>2010-04-07T09:11:20Z</time></trkpt>
	<trkpt lat="51.82990833" lon="-2.107731667"><ele>291.000000</ele><time>2010-04-07T09:11:25Z</time></trkpt>
	<trkpt lat="51.82996" lon="-2.1077"><ele>292.000000</ele><time>2010-04-07T09:11:30Z</time></trkpt>
	<trkpt lat="51.83001333" lon="-2.107711667"><ele>292.000000</ele><time>2010-04-07T09:11:35Z</time></trkpt>
	<trkpt lat="51.83007333" lon="-2.10774"><ele>292.000000</ele><time>2010-04-07T09:11:40Z</time></trkpt>
	<trkpt lat="51.83012833" lon="-2.10772"><ele>291.000000</ele><time>2010-04-07T09:11:45Z</time></trkpt>
	<trkpt lat="51.83017333" lon="-2.107668333"><ele>291.000000</ele><time>2010-04-07T09:11:50Z</time></trkpt>
	<trkpt lat="51.83021333" lon="-2.107603333"><ele>291.000000</ele><time>2010-04-07T09:11:55Z</time></trkpt>
	<trkpt lat="51.83026333" lon="-2.107546667"><ele>292.000000</ele><time>2010-04-07T09:12:00Z</time></trkpt>
	<trkpt lat="51.83032333" lon="-2.10749"><ele>293.000000</ele><time>2010-04-07T09:12:05Z</time></trkpt>
	<trkpt lat="51.83038167" lon="-2.107455"><ele>291.000000</ele><time>2010-04-07T09:12:10Z</time></trkpt>
	<trkpt lat="51.83042833" lon="-2.107403333"><ele>291.000000</ele><time>2010-04-07T09:12:15Z</time></trkpt>
	<trkpt lat="51.83047833" lon="-2.107346667"><ele>291.000000</ele><time>2010-04-07T09:12:20Z</time></trkpt>
	<trkpt lat="51.830525" lon="-2.107275"><ele>292.000000</ele><time>2010-04-07T09:12:25Z</time></trkpt>
	<trkpt lat="51.830575" lon="-2.107211667"><ele>293.000000</ele><time>2010-04-07T09:12:30Z</time></trkpt>
	<trkpt lat="51.83062167" lon="-2.107153333"><ele>294.000000</ele><time>2010-04-07T09:12:35Z</time></trkpt>
	<trkpt lat="51.83066833" lon="-2.107086667"><ele>294.000000</ele><time>2010-04-07T09:12:40Z</time></trkpt>
	<trkpt lat="51.83072167" lon="-2.107026667"><ele>295.000000</ele><time>2010-04-07T09:12:45Z</time></trkpt>
	<trkpt lat="51.83076833" lon="-2.106968333"><ele>294.000000</ele><time>2010-04-07T09:12:50Z</time></trkpt>
	<trkpt lat="51.83080167" lon="-2.10695"><ele>294.000000</ele><time>2010-04-07T09:12:55Z</time></trkpt>
	<trkpt lat="51.83083" lon="-2.10697"><ele>292.000000</ele><time>2010-04-07T09:13:00Z</time></trkpt>
	<trkpt lat="51.83085833" lon="-2.106978333"><ele>292.000000</ele><time>2010-04-07T09:13:05Z</time></trkpt>
	<trkpt lat="51.83087" lon="-2.106993333"><ele>290.000000</ele><time>2010-04-07T09:13:10Z</time></trkpt>
	<trkpt lat="51.830885" lon="-2.107006667"><ele>291.000000</ele><time>2010-04-07T09:13:15Z</time></trkpt>
	<trkpt lat="51.830905" lon="-2.107068333"><ele>292.000000</ele><time>2010-04-07T09:13:20Z</time></trkpt>
	<trkpt lat="51.83092667" lon="-2.10713"><ele>292.000000</ele><time>2010-04-07T09:13:25Z</time></trkpt>
	<trkpt lat="51.83095" lon="-2.107196667"><ele>290.000000</ele><time>2010-04-07T09:13:30Z</time></trkpt>
	<trkpt lat="51.83098" lon="-2.107273333"><ele>289.000000</ele><time>2010-04-07T09:13:35Z</time></trkpt>
	<trkpt lat="51.83100833" lon="-2.107351667"><ele>288.000000</ele><time>2010-04-07T09:13:40Z</time></trkpt>
	<trkpt lat="51.831035" lon="-2.107426667"><ele>287.000000</ele><time>2010-04-07T09:13:45Z</time></trkpt>
	<trkpt lat="51.831065" lon="-2.107503333"><ele>288.000000</ele><time>2010-04-07T09:13:50Z</time></trkpt>
	<trkpt lat="51.8311" lon="-2.107568333"><ele>289.000000</ele><time>2010-04-07T09:13:55Z</time></trkpt>
	<trkpt lat="51.83113333" lon="-2.10763"><ele>289.000000</ele><time>2010-04-07T09:14:00Z</time></trkpt>
	<trkpt lat="51.83116333" lon="-2.107695"><ele>289.000000</ele><time>2010-04-07T09:14:05Z</time></trkpt>
	<trkpt lat="51.83119" lon="-2.107763333"><ele>289.000000</ele><time>2010-04-07T09:14:10Z</time></trkpt>
	<trkpt lat="51.83122167" lon="-2.107831667"><ele>289.000000</ele><time>2010-04-07T09:14:15Z</time></trkpt>
	<trkpt lat="51.83125" lon="-2.107908333"><ele>290.000000</ele><time>2010-04-07T09:14:20Z</time></trkpt>
	<trkpt lat="51.83128" lon="-2.10798"><ele>291.000000</ele><time>2010-04-07T09:14:25Z</time></trkpt>
	<trkpt lat="51.83131667" lon="-2.108045"><ele>290.000000</ele><time>2010-04-07T09:14:30Z</time></trkpt>
	<trkpt lat="51.83135" lon="-2.108105"><ele>291.000000</ele><time>2010-04-07T09:14:35Z</time></trkpt>
	<trkpt lat="51.83137667" lon="-2.108176667"><ele>290.000000</ele><time>2010-04-07T09:14:40Z</time></trkpt>
	<trkpt lat="51.831405" lon="-2.10825"><ele>290.000000</ele><time>2010-04-07T09:14:45Z</time></trkpt>
	<trkpt lat="51.83143333" lon="-2.108323333"><ele>290.000000</ele><time>2010-04-07T09:14:50Z</time></trkpt>
	<trkpt lat="51.83146333" lon="-2.108385"><ele>292.000000</ele><time>2010-04-07T09:14:55Z</time></trkpt>
	<trkpt lat="51.83149667" lon="-2.108446667"><ele>291.000000</ele><time>2010-04-07T09:15:00Z</time></trkpt>
	<trkpt lat="51.83153" lon="-2.108501667"><ele>290.000000</ele><time>2010-04-07T09:15:05Z</time></trkpt>
	<trkpt lat="51.83154167" lon="-2.108553333"><ele>290.000000</ele><time>2010-04-07T09:15:10Z</time></trkpt>
	<trkpt lat="51.831545" lon="-2.108573333"><ele>289.000000</ele><time>2010-04-07T09:15:15Z</time></trkpt>
	<trkpt lat="51.831545" lon="-2.108595"><ele>288.000000</ele><time>2010-04-07T09:15:20Z</time></trkpt>
	<trkpt lat="51.83154333" lon="-2.108608333"><ele>286.000000</ele><time>2010-04-07T09:15:25Z</time></trkpt>
	<trkpt lat="51.831535" lon="-2.10861"><ele>284.000000</ele><time>2010-04-07T09:15:30Z</time></trkpt>
	<trkpt lat="51.83153" lon="-2.108603333"><ele>284.000000</ele><time>2010-04-07T09:15:35Z</time></trkpt>
	<trkpt lat="51.83154" lon="-2.10861"><ele>286.000000</ele><time>2010-04-07T09:15:40Z</time></trkpt>
	<trkpt lat="51.83152667" lon="-2.10862"><ele>285.000000</ele><time>2010-04-07T09:15:45Z</time></trkpt>
	<trkpt lat="51.831545" lon="-2.10862"><ele>287.000000</ele><time>2010-04-07T09:15:50Z</time></trkpt>
	<trkpt lat="51.83153833" lon="-2.10867"><ele>284.000000</ele><time>2010-04-07T09:15:55Z</time></trkpt>
	<trkpt lat="51.83153667" lon="-2.108725"><ele>284.000000</ele><time>2010-04-07T09:16:00Z</time></trkpt>
	<trkpt lat="51.83154167" lon="-2.108815"><ele>282.000000</ele><time>2010-04-07T09:16:05Z</time></trkpt>
	<trkpt lat="51.83158667" lon="-2.108853333"><ele>285.000000</ele><time>2010-04-07T09:16:10Z</time></trkpt>
	<trkpt lat="51.83161" lon="-2.108913333"><ele>288.000000</ele><time>2010-04-07T09:16:15Z</time></trkpt>
	<trkpt lat="51.83162" lon="-2.108986667"><ele>291.000000</ele><time>2010-04-07T09:16:20Z</time></trkpt>
	<trkpt lat="51.83165" lon="-2.109075"><ele>295.000000</ele><time>2010-04-07T09:16:25Z</time></trkpt>
	<trkpt lat="51.83168833" lon="-2.109121667"><ele>297.000000</ele><time>2010-04-07T09:16:30Z</time></trkpt>
	<trkpt lat="51.83170667" lon="-2.109188333"><ele>295.000000</ele><time>2010-04-07T09:16:35Z</time></trkpt>
	<trkpt lat="51.83172833" lon="-2.109241667"><ele>291.000000</ele><time>2010-04-07T09:16:40Z</time></trkpt>
	<trkpt lat="51.83175333" lon="-2.109266667"><ele>292.000000</ele><time>2010-04-07T09:16:45Z</time></trkpt>
	<trkpt lat="51.83178833" lon="-2.109328333"><ele>289.000000</ele><time>2010-04-07T09:16:50Z</time></trkpt>
	<trkpt lat="51.83182667" lon="-2.109408333"><ele>291.000000</ele><time>2010-04-07T09:16:55Z</time></trkpt>
	<trkpt lat="51.83183167" lon="-2.109501667"><ele>291.000000</ele><time>2010-04-07T09:17:00Z</time></trkpt>
	<trkpt lat="51.831855" lon="-2.109593333"><ele>297.000000</ele><time>2010-04-07T09:17:05Z</time></trkpt>
	<trkpt lat="51.83183667" lon="-2.109688333"><ele>300.000000</ele><time>2010-04-07T09:17:10Z</time></trkpt>
	<trkpt lat="51.83186667" lon="-2.10972"><ele>305.000000</ele><time>2010-04-07T09:17:15Z</time></trkpt>
	<trkpt lat="51.83190167" lon="-2.109763333"><ele>302.000000</ele><time>2010-04-07T09:17:20Z</time></trkpt>
	<trkpt lat="51.83189333" lon="-2.109851667"><ele>294.000000</ele><time>2010-04-07T09:17:25Z</time></trkpt>
	<trkpt lat="51.83189167" lon="-2.109935"><ele>295.000000</ele><time>2010-04-07T09:17:30Z</time></trkpt>
	<trkpt lat="51.83189333" lon="-2.110001667"><ele>291.000000</ele><time>2010-04-07T09:17:35Z</time></trkpt>
	<trkpt lat="51.83185833" lon="-2.110036667"><ele>289.000000</ele><time>2010-04-07T09:17:40Z</time></trkpt>
	<trkpt lat="51.83187833" lon="-2.110106667"><ele>285.000000</ele><time>2010-04-07T09:17:45Z</time></trkpt>
	<trkpt lat="51.83189" lon="-2.11018"><ele>281.000000</ele><time>2010-04-07T09:17:50Z</time></trkpt>
	<trkpt lat="51.831875" lon="-2.110261667"><ele>278.000000</ele><time>2010-04-07T09:17:55Z</time></trkpt>
	<trkpt lat="51.83186" lon="-2.110336667"><ele>276.000000</ele><time>2010-04-07T09:18:00Z</time></trkpt>
	<trkpt lat="51.831855" lon="-2.110423333"><ele>274.000000</ele><time>2010-04-07T09:18:05Z</time></trkpt>
	<trkpt lat="51.83189667" lon="-2.11049"><ele>275.000000</ele><time>2010-04-07T09:18:10Z</time></trkpt>
	<trkpt lat="51.83192167" lon="-2.11054"><ele>274.000000</ele><time>2010-04-07T09:18:15Z</time></trkpt>
	<trkpt lat="51.83195667" lon="-2.110551667"><ele>278.000000</ele><time>2010-04-07T09:18:20Z</time></trkpt>
	<trkpt lat="51.83204667" lon="-2.110558333"><ele>282.000000</ele><time>2010-04-07T09:18:25Z</time></trkpt>
	<trkpt lat="51.83211333" lon="-2.110523333"><ele>288.000000</ele><time>2010-04-07T09:18:30Z</time></trkpt>
	<trkpt lat="51.832165" lon="-2.110463333"><ele>284.000000</ele><time>2010-04-07T09:18:35Z</time></trkpt>
	<trkpt lat="51.83221167" lon="-2.110426667"><ele>282.000000</ele><time>2010-04-07T09:18:40Z</time></trkpt>
	<trkpt lat="51.832275" lon="-2.110416667"><ele>284.000000</ele><time>2010-04-07T09:18:45Z</time></trkpt>
	<trkpt lat="51.83228333" lon="-2.110443333"><ele>282.000000</ele><time>2010-04-07T09:18:50Z</time></trkpt>
	<trkpt lat="51.83232" lon="-2.110446667"><ele>281.000000</ele><time>2010-04-07T09:18:55Z</time></trkpt>
	<trkpt lat="51.83235667" lon="-2.110505"><ele>287.000000</ele><time>2010-04-07T09:19:00Z</time></trkpt>
	<trkpt lat="51.83237667" lon="-2.110575"><ele>288.000000</ele><time>2010-04-07T09:19:05Z</time></trkpt>
	<trkpt lat="51.83237333" lon="-2.110623333"><ele>282.000000</ele><time>2010-04-07T09:19:10Z</time></trkpt>
	<trkpt lat="51.83241833" lon="-2.110656667"><ele>284.000000</ele><time>2010-04-07T09:19:15Z</time></trkpt>
	<trkpt lat="51.83245667" lon="-2.110698333"><ele>285.000000</ele><time>2010-04-07T09:19:20Z</time></trkpt>
	<trkpt lat="51.83248833" lon="-2.110768333"><ele>284.000000</ele><time>2010-04-07T09:19:25Z</time></trkpt>
	<trkpt lat="51.83252667" lon="-2.110828333"><ele>279.000000</ele><time>2010-04-07T09:19:30Z</time></trkpt>
	<trkpt lat="51.83256667" lon="-2.11083"><ele>277.000000</ele><time>2010-04-07T09:19:35Z</time></trkpt>
	<trkpt lat="51.83260167" lon="-2.110871667"><ele>277.000000</ele><time>2010-04-07T09:19:40Z</time></trkpt>
	<trkpt lat="51.832635" lon="-2.110936667"><ele>277.000000</ele><time>2010-04-07T09:19:45Z</time></trkpt>
	<trkpt lat="51.83268333" lon="-2.110998333"><ele>278.000000</ele><time>2010-04-07T09:19:50Z</time></trkpt>
	<trkpt lat="51.83271667" lon="-2.111073333"><ele>275.000000</ele><time>2010-04-07T09:19:55Z</time></trkpt>
	<trkpt lat="51.83274667" lon="-2.111103333"><ele>279.000000</ele><time>2010-04-07T09:20:00Z</time></trkpt>
	<trkpt lat="51.83279667" lon="-2.111136667"><ele>278.000000</ele><time>2010-04-07T09:20:05Z</time></trkpt>
	<trkpt lat="51.83279667" lon="-2.111183333"><ele>272.000000</ele><time>2010-04-07T09:20:10Z</time></trkpt>
	<trkpt lat="51.832855" lon="-2.111243333"><ele>272.000000</ele><time>2010-04-07T09:20:15Z</time></trkpt>
	<trkpt lat="51.832935" lon="-2.111255"><ele>274.000000</ele><time>2010-04-07T09:20:20Z</time></trkpt>
	<trkpt lat="51.83290667" lon="-2.111365"><ele>274.000000</ele><time>2010-04-07T09:20:25Z</time></trkpt>
	<trkpt lat="51.83287833" lon="-2.111443333"><ele>275.000000</ele><time>2010-04-07T09:20:30Z</time></trkpt>
	<trkpt lat="51.83294833" lon="-2.111461667"><ele>280.000000</ele><time>2010-04-07T09:20:35Z</time></trkpt>
	<trkpt lat="51.83306667" lon="-2.111405"><ele>280.000000</ele><time>2010-04-07T09:20:40Z</time></trkpt>
	<trkpt lat="51.83304333" lon="-2.111541667"><ele>275.000000</ele><time>2010-04-07T09:20:45Z</time></trkpt>
	<trkpt lat="51.83307" lon="-2.111626667"><ele>277.000000</ele><time>2010-04-07T09:20:50Z</time></trkpt>
	<trkpt lat="51.83313167" lon="-2.111665"><ele>281.000000</ele><time>2010-04-07T09:20:55Z</time></trkpt>
	<trkpt lat="51.83319" lon="-2.111658333"><ele>282.000000</ele><time>2010-04-07T09:21:00Z</time></trkpt>
	<trkpt lat="51.83327167" lon="-2.111706667"><ele>282.000000</ele><time>2010-04-07T09:21:05Z</time></trkpt>
	<trkpt lat="51.833395" lon="-2.11163"><ele>276.000000</ele><time>2010-04-07T09:21:10Z</time></trkpt>
	<trkpt lat="51.83346833" lon="-2.111613333"><ele>277.000000</ele><time>2010-04-07T09:21:15Z</time></trkpt>
	<trkpt lat="51.83351333" lon="-2.111591667"><ele>270.000000</ele><time>2010-04-07T09:21:20Z</time></trkpt>
	<trkpt lat="51.83357667" lon="-2.111573333"><ele>267.000000</ele><time>2010-04-07T09:21:25Z</time></trkpt>
	<trkpt lat="51.83361333" lon="-2.111613333"><ele>268.000000</ele><time>2010-04-07T09:21:30Z</time></trkpt>
	<trkpt lat="51.83362667" lon="-2.111691667"><ele>265.000000</ele><time>2010-04-07T09:21:35Z</time></trkpt>
	<trkpt lat="51.83368167" lon="-2.111733333"><ele>267.000000</ele><time>2010-04-07T09:21:40Z</time></trkpt>
	<trkpt lat="51.833705" lon="-2.11177"><ele>268.000000</ele><time>2010-04-07T09:21:45Z</time></trkpt>
	<trkpt lat="51.83375" lon="-2.111796667"><ele>268.000000</ele><time>2010-04-07T09:21:50Z</time></trkpt>
	<trkpt lat="51.83378167" lon="-2.111876667"><ele>271.000000</ele><time>2010-04-07T09:21:55Z</time></trkpt>
	<trkpt lat="51.83381167" lon="-2.111935"><ele>272.000000</ele><time>2010-04-07T09:22:00Z</time></trkpt>
	<trkpt lat="51.83386" lon="-2.112006667"><ele>267.000000</ele><time>2010-04-07T09:22:05Z</time></trkpt>
	<trkpt lat="51.83390333" lon="-2.112043333"><ele>271.000000</ele><time>2010-04-07T09:22:10Z</time></trkpt>
	<trkpt lat="51.83392667" lon="-2.112081667"><ele>279.000000</ele><time>2010-04-07T09:22:15Z</time></trkpt>
	<trkpt lat="51.83394167" lon="-2.112121667"><ele>281.000000</ele><time>2010-04-07T09:22:20Z</time></trkpt>
	<trkpt lat="51.83399167" lon="-2.112175"><ele>280.000000</ele><time>2010-04-07T09:22:25Z</time></trkpt>
	<trkpt lat="51.83400167" lon="-2.11227"><ele>279.000000</ele><time>2010-04-07T09:22:30Z</time></trkpt>
	<trkpt lat="51.83401" lon="-2.112373333"><ele>279.000000</ele><time>2010-04-07T09:22:35Z</time></trkpt>
	<trkpt lat="51.83403333" lon="-2.112473333"><ele>279.000000</ele><time>2010-04-07T09:22:40Z</time></trkpt>
	<trkpt lat="51.83407" lon="-2.112523333"><ele>278.000000</ele><time>2010-04-07T09:22:45Z</time></trkpt>
	<trkpt lat="51.83407333" lon="-2.11262"><ele>278.000000</ele><time>2010-04-07T09:22:50Z</time></trkpt>
	<trkpt lat="51.83409667" lon="-2.112661667"><ele>271.000000</ele><time>2010-04-07T09:22:55Z</time></trkpt>
	<trkpt lat="51.8341" lon="-2.112651667"><ele>265.000000</ele><time>2010-04-07T09:23:00Z</time></trkpt>
	<trkpt lat="51.83415667" lon="-2.112661667"><ele>264.000000</ele><time>2010-04-07T09:23:05Z</time></trkpt>
	<trkpt lat="51.83419" lon="-2.112738333"><ele>265.000000</ele><time>2010-04-07T09:23:10Z</time></trkpt>
	<trkpt lat="51.83421833" lon="-2.112791667"><ele>265.000000</ele><time>2010-04-07T09:23:15Z</time></trkpt>
	<trkpt lat="51.834265" lon="-2.112791667"><ele>260.000000</ele><time>2010-04-07T09:23:20Z</time></trkpt>
	<trkpt lat="51.83428667" lon="-2.112786667"><ele>259.000000</ele><time>2010-04-07T09:23:25Z</time></trkpt>
	<trkpt lat="51.83429333" lon="-2.11276"><ele>265.000000</ele><time>2010-04-07T09:23:30Z</time></trkpt>
	<trkpt lat="51.834325" lon="-2.112766667"><ele>268.000000</ele><time>2010-04-07T09:23:35Z</time></trkpt>
	<trkpt lat="51.83438" lon="-2.112791667"><ele>270.000000</ele><time>2010-04-07T09:23:40Z</time></trkpt>
	<trkpt lat="51.834405" lon="-2.112808333"><ele>268.000000</ele><time>2010-04-07T09:23:45Z</time></trkpt>
	<trkpt lat="51.83441" lon="-2.11282"><ele>265.000000</ele><time>2010-04-07T09:23:50Z</time></trkpt>
	<trkpt lat="51.83442" lon="-2.112813333"><ele>268.000000</ele><time>2010-04-07T09:23:55Z</time></trkpt>
	<trkpt lat="51.83445167" lon="-2.112831667"><ele>267.000000</ele><time>2010-04-07T09:24:00Z</time></trkpt>
	<trkpt lat="51.83446667" lon="-2.112836667"><ele>267.000000</ele><time>2010-04-07T09:24:05Z</time></trkpt>
	<trkpt lat="51.83447167" lon="-2.11284"><ele>266.000000</ele><time>2010-04-07T09:24:10Z</time></trkpt>
	<trkpt lat="51.834465" lon="-2.112851667"><ele>265.000000</ele><time>2010-04-07T09:24:15Z</time></trkpt>
	<trkpt lat="51.83448667" lon="-2.112851667"><ele>266.000000</ele><time>2010-04-07T09:24:20Z</time></trkpt>
	<trkpt lat="51.83449667" lon="-2.112881667"><ele>266.000000</ele><time>2010-04-07T09:24:25Z</time></trkpt>
	<trkpt lat="51.83446" lon="-2.112841667"><ele>268.000000</ele><time>2010-04-07T09:24:30Z</time></trkpt>
	<trkpt lat="51.83443667" lon="-2.112798333"><ele>268.000000</ele><time>2010-04-07T09:24:35Z</time></trkpt>
	<trkpt lat="51.834395" lon="-2.112781667"><ele>268.000000</ele><time>2010-04-07T09:24:40Z</time></trkpt>
	<trkpt lat="51.83437333" lon="-2.11276"><ele>269.000000</ele><time>2010-04-07T09:24:45Z</time></trkpt>
	<trkpt lat="51.83435833" lon="-2.112733333"><ele>269.000000</ele><time>2010-04-07T09:24:50Z</time></trkpt>
	<trkpt lat="51.834355" lon="-2.112648333"><ele>270.000000</ele><time>2010-04-07T09:24:55Z</time></trkpt>
	<trkpt lat="51.83435333" lon="-2.112586667"><ele>267.000000</ele><time>2010-04-07T09:25:00Z</time></trkpt>
	<trkpt lat="51.83434833" lon="-2.112505"><ele>264.000000</ele><time>2010-04-07T09:25:05Z</time></trkpt>
	<trkpt lat="51.834355" lon="-2.11242"><ele>263.000000</ele><time>2010-04-07T09:25:10Z</time></trkpt>
	<trkpt lat="51.83438833" lon="-2.11238"><ele>263.000000</ele><time>2010-04-07T09:25:15Z</time></trkpt>
	<trkpt lat="51.83436167" lon="-2.112295"><ele>265.000000</ele><time>2010-04-07T09:25:20Z</time></trkpt>
	<trkpt lat="51.83431" lon="-2.1122"><ele>264.000000</ele><time>2010-04-07T09:25:25Z</time></trkpt>
	<trkpt lat="51.834295" lon="-2.112113333"><ele>263.000000</ele><time>2010-04-07T09:25:30Z</time></trkpt>
	<trkpt lat="51.83428667" lon="-2.112043333"><ele>263.000000</ele><time>2010-04-07T09:25:35Z</time></trkpt>
	<trkpt lat="51.83428333" lon="-2.111983333"><ele>264.000000</ele><time>2010-04-07T09:25:40Z</time></trkpt>
	<trkpt lat="51.834265" lon="-2.11191"><ele>268.000000</ele><time>2010-04-07T09:25:45Z</time></trkpt>
	<trkpt lat="51.83423333" lon="-2.111848333"><ele>263.000000</ele><time>2010-04-07T09:25:50Z</time></trkpt>
	<trkpt lat="51.83422333" lon="-2.111813333"><ele>266.000000</ele><time>2010-04-07T09:25:55Z</time></trkpt>
	<trkpt lat="51.83423167" lon="-2.111771667"><ele>264.000000</ele><time>2010-04-07T09:26:00Z</time></trkpt>
	<trkpt lat="51.83422333" lon="-2.11173"><ele>264.000000</ele><time>2010-04-07T09:26:05Z</time></trkpt>
	<trkpt lat="51.83418333" lon="-2.111633333"><ele>266.000000</ele><time>2010-04-07T09:26:10Z</time></trkpt>
	<trkpt lat="51.834165" lon="-2.111575"><ele>266.000000</ele><time>2010-04-07T09:26:15Z</time></trkpt>
	<trkpt lat="51.83413667" lon="-2.111505"><ele>265.000000</ele><time>2010-04-07T09:26:20Z</time></trkpt>
	<trkpt lat="51.8341" lon="-2.11145"><ele>263.000000</ele><time>2010-04-07T09:26:25Z</time></trkpt>
	<trkpt lat="51.83407667" lon="-2.111393333"><ele>263.000000</ele><time>2010-04-07T09:26:30Z</time></trkpt>
	<trkpt lat="51.83408" lon="-2.11136"><ele>265.000000</ele><time>2010-04-07T09:26:35Z</time></trkpt>
	<trkpt lat="51.83406833" lon="-2.111293333"><ele>266.000000</ele><time>2010-04-07T09:26:40Z</time></trkpt>
	<trkpt lat="51.83405833" lon="-2.111226667"><ele>266.000000</ele><time>2010-04-07T09:26:45Z</time></trkpt>
	<trkpt lat="51.83405" lon="-2.111148333"><ele>269.000000</ele><time>2010-04-07T09:26:50Z</time></trkpt>
	<trkpt lat="51.83403833" lon="-2.111065"><ele>272.000000</ele><time>2010-04-07T09:26:55Z</time></trkpt>
	<trkpt lat="51.83402833" lon="-2.111001667"><ele>274.000000</ele><time>2010-04-07T09:27:00Z</time></trkpt>
	<trkpt lat="51.83399167" lon="-2.110936667"><ele>273.000000</ele><time>2010-04-07T09:27:05Z</time></trkpt>
	<trkpt lat="51.833955" lon="-2.110885"><ele>271.000000</ele><time>2010-04-07T09:27:10Z</time></trkpt>
	<trkpt lat="51.83394167" lon="-2.110833333"><ele>269.000000</ele><time>2010-04-07T09:27:15Z</time></trkpt>
	<trkpt lat="51.83392" lon="-2.110765"><ele>269.000000</ele><time>2010-04-07T09:27:20Z</time></trkpt>
	<trkpt lat="51.83389" lon="-2.110711667"><ele>270.000000</ele><time>2010-04-07T09:27:25Z</time></trkpt>
	<trkpt lat="51.83383667" lon="-2.110655"><ele>270.000000</ele><time>2010-04-07T09:27:30Z</time></trkpt>
	<trkpt lat="51.83382167" lon="-2.110571667"><ele>271.000000</ele><time>2010-04-07T09:27:35Z</time></trkpt>
	<trkpt lat="51.83379667" lon="-2.110501667"><ele>273.000000</ele><time>2010-04-07T09:27:40Z</time></trkpt>
	<trkpt lat="51.83377167" lon="-2.110403333"><ele>273.000000</ele><time>2010-04-07T09:27:45Z</time></trkpt>
	<trkpt lat="51.83375667" lon="-2.11034"><ele>273.000000</ele><time>2010-04-07T09:27:50Z</time></trkpt>
	<trkpt lat="51.83373167" lon="-2.110246667"><ele>273.000000</ele><time>2010-04-07T09:27:55Z</time></trkpt>
	<trkpt lat="51.83374333" lon="-2.11017"><ele>272.000000</ele><time>2010-04-07T09:28:00Z</time></trkpt>
	<trkpt lat="51.83371333" lon="-2.110108333"><ele>270.000000</ele><time>2010-04-07T09:28:05Z</time></trkpt>
	<trkpt lat="51.83370167" lon="-2.11007"><ele>272.000000</ele><time>2010-04-07T09:28:10Z</time></trkpt>
	<trkpt lat="51.83365833" lon="-2.110005"><ele>271.000000</ele><time>2010-04-07T09:28:15Z</time></trkpt>
	<trkpt lat="51.83363833" lon="-2.109955"><ele>270.000000</ele><time>2010-04-07T09:28:20Z</time></trkpt>
	<trkpt lat="51.83367167" lon="-2.109906667"><ele>271.000000</ele><time>2010-04-07T09:28:25Z</time></trkpt>
	<trkpt lat="51.83369167" lon="-2.109843333"><ele>273.000000</ele><time>2010-04-07T09:28:30Z</time></trkpt>
	<trkpt lat="51.83370333" lon="-2.109861667"><ele>276.000000</ele><time>2010-04-07T09:28:35Z</time></trkpt>
	<trkpt lat="51.83372667" lon="-2.109856667"><ele>279.000000</ele><time>2010-04-07T09:28:40Z</time></trkpt>
	<trkpt lat="51.83372833" lon="-2.109811667"><ele>282.000000</ele><time>2010-04-07T09:28:45Z</time></trkpt>
	<trkpt lat="51.83366333" lon="-2.109778333"><ele>281.000000</ele><time>2010-04-07T09:28:50Z</time></trkpt>
	<trkpt lat="51.83359667" lon="-2.109766667"><ele>277.000000</ele><time>2010-04-07T09:28:55Z</time></trkpt>
	<trkpt lat="51.83353833" lon="-2.10971"><ele>273.000000</ele><time>2010-04-07T09:29:00Z</time></trkpt>
	<trkpt lat="51.83350667" lon="-2.109675"><ele>272.000000</ele><time>2010-04-07T09:29:05Z</time></trkpt>
	<trkpt lat="51.83350667" lon="-2.109685"><ele>273.000000</ele><time>2010-04-07T09:29:10Z</time></trkpt>
	<trkpt lat="51.83352333" lon="-2.109741667"><ele>271.000000</ele><time>2010-04-07T09:29:15Z</time></trkpt>
	<trkpt lat="51.83352667" lon="-2.109755"><ele>269.000000</ele><time>2010-04-07T09:29:20Z</time></trkpt>
	<trkpt lat="51.83354167" lon="-2.109731667"><ele>271.000000</ele><time>2010-04-07T09:29:25Z</time></trkpt>
	<trkpt lat="51.83355333" lon="-2.109711667"><ele>273.000000</ele><time>2010-04-07T09:29:30Z</time></trkpt>
	<trkpt lat="51.833545" lon="-2.109718333"><ele>272.000000</ele><time>2010-04-07T09:29:35Z</time></trkpt>
	<trkpt lat="51.83350833" lon="-2.109685"><ele>272.000000</ele><time>2010-04-07T09:29:40Z</time></trkpt>
	<trkpt lat="51.83348833" lon="-2.109675"><ele>271.000000</ele><time>2010-04-07T09:29:45Z</time></trkpt>
	<trkpt lat="51.83347833" lon="-2.109693333"><ele>269.000000</ele><time>2010-04-07T09:29:50Z</time></trkpt>
	<trkpt lat="51.83346333" lon="-2.109695"><ele>267.000000</ele><time>2010-04-07T09:29:55Z</time></trkpt>
	<trkpt lat="51.83343333" lon="-2.10965"><ele>268.000000</ele><time>2010-04-07T09:30:00Z</time></trkpt>
	<trkpt lat="51.83340833" lon="-2.109615"><ele>267.000000</ele><time>2010-04-07T09:30:05Z</time></trkpt>
	<trkpt lat="51.83337833" lon="-2.109573333"><ele>268.000000</ele><time>2010-04-07T09:30:10Z</time></trkpt>
	<trkpt lat="51.83334667" lon="-2.109513333"><ele>269.000000</ele><time>2010-04-07T09:30:15Z</time></trkpt>
	<trkpt lat="51.83330833" lon="-2.109466667"><ele>270.000000</ele><time>2010-04-07T09:30:20Z</time></trkpt>
	<trkpt lat="51.833275" lon="-2.109391667"><ele>270.000000</ele><time>2010-04-07T09:30:25Z</time></trkpt>
	<trkpt lat="51.83324833" lon="-2.109326667"><ele>270.000000</ele><time>2010-04-07T09:30:30Z</time></trkpt>
	<trkpt lat="51.83322333" lon="-2.109263333"><ele>270.000000</ele><time>2010-04-07T09:30:35Z</time></trkpt>
	<trkpt lat="51.83317833" lon="-2.109251667"><ele>271.000000</ele><time>2010-04-07T09:30:40Z</time></trkpt>
	<trkpt lat="51.83314" lon="-2.10923"><ele>271.000000</ele><time>2010-04-07T09:30:45Z</time></trkpt>
	<trkpt lat="51.833095" lon="-2.109153333"><ele>269.000000</ele><time>2010-04-07T09:30:50Z</time></trkpt>
	<trkpt lat="51.83305167" lon="-2.109078333"><ele>268.000000</ele><time>2010-04-07T09:30:55Z</time></trkpt>
	<trkpt lat="51.83302667" lon="-2.109025"><ele>271.000000</ele><time>2010-04-07T09:31:00Z</time></trkpt>
	<trkpt lat="51.83300667" lon="-2.108966667"><ele>273.000000</ele><time>2010-04-07T09:31:05Z</time></trkpt>
	<trkpt lat="51.83296" lon="-2.108906667"><ele>270.000000</ele><time>2010-04-07T09:31:10Z</time></trkpt>
	<trkpt lat="51.83292" lon="-2.108825"><ele>269.000000</ele><time>2010-04-07T09:31:15Z</time></trkpt>
	<trkpt lat="51.83289333" lon="-2.108761667"><ele>269.000000</ele><time>2010-04-07T09:31:20Z</time></trkpt>
	<trkpt lat="51.83289" lon="-2.108721667"><ele>269.000000</ele><time>2010-04-07T09:31:25Z</time></trkpt>
	<trkpt lat="51.83287167" lon="-2.10865"><ele>269.000000</ele><time>2010-04-07T09:31:30Z</time></trkpt>
	<trkpt lat="51.832845" lon="-2.108596667"><ele>270.000000</ele><time>2010-04-07T09:31:35Z</time></trkpt>
	<trkpt lat="51.83281333" lon="-2.108578333"><ele>272.000000</ele><time>2010-04-07T09:31:40Z</time></trkpt>
	<trkpt lat="51.83276833" lon="-2.108585"><ele>271.000000</ele><time>2010-04-07T09:31:45Z</time></trkpt>
	<trkpt lat="51.83274" lon="-2.108591667"><ele>269.000000</ele><time>2010-04-07T09:31:50Z</time></trkpt>
	<trkpt lat="51.83270833" lon="-2.10861"><ele>271.000000</ele><time>2010-04-07T09:31:55Z</time></trkpt>
	<trkpt lat="51.832685" lon="-2.108578333"><ele>275.000000</ele><time>2010-04-07T09:32:00Z</time></trkpt>
	<trkpt lat="51.83264167" lon="-2.108553333"><ele>275.000000</ele><time>2010-04-07T09:32:05Z</time></trkpt>
	<trkpt lat="51.83259167" lon="-2.108553333"><ele>276.000000</ele><time>2010-04-07T09:32:10Z</time></trkpt>
	<trkpt lat="51.83255" lon="-2.10855"><ele>271.000000</ele><time>2010-04-07T09:32:15Z</time></trkpt>
	<trkpt lat="51.83251167" lon="-2.108561667"><ele>269.000000</ele><time>2010-04-07T09:32:20Z</time></trkpt>
	<trkpt lat="51.832475" lon="-2.108565"><ele>272.000000</ele><time>2010-04-07T09:32:25Z</time></trkpt>
	<trkpt lat="51.83244667" lon="-2.108556667"><ele>274.000000</ele><time>2010-04-07T09:32:30Z</time></trkpt>
	<trkpt lat="51.83241833" lon="-2.108551667"><ele>273.000000</ele><time>2010-04-07T09:32:35Z</time></trkpt>
	<trkpt lat="51.83238167" lon="-2.108588333"><ele>271.000000</ele><time>2010-04-07T09:32:40Z</time></trkpt>
	<trkpt lat="51.83235" lon="-2.108596667"><ele>274.000000</ele><time>2010-04-07T09:32:45Z</time></trkpt>
	<trkpt lat="51.83232833" lon="-2.108608333"><ele>276.000000</ele><time>2010-04-07T09:32:50Z</time></trkpt>
	<trkpt lat="51.8323" lon="-2.1086"><ele>276.000000</ele><time>2010-04-07T09:32:55Z</time></trkpt>
	<trkpt lat="51.83224833" lon="-2.10858"><ele>277.000000</ele><time>2010-04-07T09:33:00Z</time></trkpt>
	<trkpt lat="51.832195" lon="-2.108645"><ele>276.000000</ele><time>2010-04-07T09:33:05Z</time></trkpt>
	<trkpt lat="51.83216" lon="-2.10867"><ele>277.000000</ele><time>2010-04-07T09:33:10Z</time></trkpt>
	<trkpt lat="51.83213167" lon="-2.108673333"><ele>280.000000</ele><time>2010-04-07T09:33:15Z</time></trkpt>
	<trkpt lat="51.83207667" lon="-2.10866"><ele>276.000000</ele><time>2010-04-07T09:33:20Z</time></trkpt>
	<trkpt lat="51.83204667" lon="-2.108681667"><ele>275.000000</ele><time>2010-04-07T09:33:25Z</time></trkpt>
	<trkpt lat="51.831985" lon="-2.108653333"><ele>275.000000</ele><time>2010-04-07T09:33:30Z</time></trkpt>
	<trkpt lat="51.83195333" lon="-2.10866"><ele>277.000000</ele><time>2010-04-07T09:33:35Z</time></trkpt>
	<trkpt lat="51.831935" lon="-2.108685"><ele>279.000000</ele><time>2010-04-07T09:33:40Z</time></trkpt>
	<trkpt lat="51.83188667" lon="-2.108696667"><ele>280.000000</ele><time>2010-04-07T09:33:45Z</time></trkpt>
	<trkpt lat="51.83187" lon="-2.108685"><ele>280.000000</ele><time>2010-04-07T09:33:50Z</time></trkpt>
	<trkpt lat="51.83185167" lon="-2.108663333"><ele>282.000000</ele><time>2010-04-07T09:33:55Z</time></trkpt>
	<trkpt lat="51.83182" lon="-2.108678333"><ele>281.000000</ele><time>2010-04-07T09:34:00Z</time></trkpt>
	<trkpt lat="51.831795" lon="-2.108666667"><ele>285.000000</ele><time>2010-04-07T09:34:05Z</time></trkpt>
	<trkpt lat="51.831785" lon="-2.108636667"><ele>290.000000</ele><time>2010-04-07T09:34:10Z</time></trkpt>
	<trkpt lat="51.83174833" lon="-2.108658333"><ele>286.000000</ele><time>2010-04-07T09:34:15Z</time></trkpt>
	<trkpt lat="51.83171667" lon="-2.108665"><ele>283.000000</ele><time>2010-04-07T09:34:20Z</time></trkpt>
	<trkpt lat="51.83169333" lon="-2.108675"><ele>280.000000</ele><time>2010-04-07T09:34:25Z</time></trkpt>
	<trkpt lat="51.83166667" lon="-2.108666667"><ele>278.000000</ele><time>2010-04-07T09:34:30Z</time></trkpt>
	<trkpt lat="51.83164667" lon="-2.108643333"><ele>276.000000</ele><time>2010-04-07T09:34:35Z</time></trkpt>
	<trkpt lat="51.83163833" lon="-2.108658333"><ele>275.000000</ele><time>2010-04-07T09:34:40Z</time></trkpt>
	<trkpt lat="51.83161833" lon="-2.108705"><ele>273.000000</ele><time>2010-04-07T09:34:45Z</time></trkpt>
	<trkpt lat="51.83159333" lon="-2.108663333"><ele>277.000000</ele><time>2010-04-07T09:34:50Z</time></trkpt>
	<trkpt lat="51.83157167" lon="-2.108648333"><ele>276.000000</ele><time>2010-04-07T09:34:55Z</time></trkpt>
	<trkpt lat="51.83154833" lon="-2.108631667"><ele>280.000000</ele><time>2010-04-07T09:35:00Z</time></trkpt>
	<trkpt lat="51.831545" lon="-2.108585"><ele>282.000000</ele><time>2010-04-07T09:35:05Z</time></trkpt>
	<trkpt lat="51.83157833" lon="-2.108573333"><ele>284.000000</ele><time>2010-04-07T09:35:10Z</time></trkpt>
	<trkpt lat="51.83159333" lon="-2.108551667"><ele>286.000000</ele><time>2010-04-07T09:35:15Z</time></trkpt>
	<trkpt lat="51.83164833" lon="-2.108556667"><ele>286.000000</ele><time>2010-04-07T09:35:20Z</time></trkpt>
	<trkpt lat="51.83169667" lon="-2.10852"><ele>286.000000</ele><time>2010-04-07T09:35:25Z</time></trkpt>
	<trkpt lat="51.831745" lon="-2.108505"><ele>285.000000</ele><time>2010-04-07T09:35:30Z</time></trkpt>
	<trkpt lat="51.83178667" lon="-2.108501667"><ele>284.000000</ele><time>2010-04-07T09:35:35Z</time></trkpt>
	<trkpt lat="51.83184667" lon="-2.10849"><ele>285.000000</ele><time>2010-04-07T09:35:40Z</time></trkpt>
	<trkpt lat="51.83188" lon="-2.108451667"><ele>286.000000</ele><time>2010-04-07T09:35:45Z</time></trkpt>
	<trkpt lat="51.83193333" lon="-2.108435"><ele>284.000000</ele><time>2010-04-07T09:35:50Z</time></trkpt>
	<trkpt lat="51.83199667" lon="-2.108438333"><ele>282.000000</ele><time>2010-04-07T09:35:55Z</time></trkpt>
	<trkpt lat="51.83204333" lon="-2.10842"><ele>281.000000</ele><time>2010-04-07T09:36:00Z</time></trkpt>
	<trkpt lat="51.832105" lon="-2.108425"><ele>280.000000</ele><time>2010-04-07T09:36:05Z</time></trkpt>
	<trkpt lat="51.83214333" lon="-2.108408333"><ele>280.000000</ele><time>2010-04-07T09:36:10Z</time></trkpt>
	<trkpt lat="51.83218833" lon="-2.108391667"><ele>280.000000</ele><time>2010-04-07T09:36:15Z</time></trkpt>
	<trkpt lat="51.83222667" lon="-2.108353333"><ele>280.000000</ele><time>2010-04-07T09:36:20Z</time></trkpt>
	<trkpt lat="51.83226167" lon="-2.108305"><ele>280.000000</ele><time>2010-04-07T09:36:25Z</time></trkpt>
	<trkpt lat="51.83229333" lon="-2.108253333"><ele>279.000000</ele><time>2010-04-07T09:36:30Z</time></trkpt>
	<trkpt lat="51.83233667" lon="-2.108213333"><ele>279.000000</ele><time>2010-04-07T09:36:35Z</time></trkpt>
	<trkpt lat="51.83237" lon="-2.108156667"><ele>279.000000</ele><time>2010-04-07T09:36:40Z</time></trkpt>
	<trkpt lat="51.83241167" lon="-2.108103333"><ele>280.000000</ele><time>2010-04-07T09:36:45Z</time></trkpt>
	<trkpt lat="51.83244167" lon="-2.108058333"><ele>280.000000</ele><time>2010-04-07T09:36:50Z</time></trkpt>
	<trkpt lat="51.83248667" lon="-2.108021667"><ele>280.000000</ele><time>2010-04-07T09:36:55Z</time></trkpt>
	<trkpt lat="51.83252667" lon="-2.10798"><ele>280.000000</ele><time>2010-04-07T09:37:00Z</time></trkpt>
	<trkpt lat="51.83257167" lon="-2.107936667"><ele>281.000000</ele><time>2010-04-07T09:37:05Z</time></trkpt>
	<trkpt lat="51.83261833" lon="-2.107893333"><ele>280.000000</ele><time>2010-04-07T09:37:10Z</time></trkpt>
	<trkpt lat="51.83265667" lon="-2.107833333"><ele>281.000000</ele><time>2010-04-07T09:37:15Z</time></trkpt>
	<trkpt lat="51.83268833" lon="-2.107776667"><ele>281.000000</ele><time>2010-04-07T09:37:20Z</time></trkpt>
	<trkpt lat="51.83272333" lon="-2.107725"><ele>281.000000</ele><time>2010-04-07T09:37:25Z</time></trkpt>
	<trkpt lat="51.83276167" lon="-2.107673333"><ele>281.000000</ele><time>2010-04-07T09:37:30Z</time></trkpt>
	<trkpt lat="51.832805" lon="-2.107618333"><ele>282.000000</ele><time>2010-04-07T09:37:35Z</time></trkpt>
	<trkpt lat="51.83284833" lon="-2.107561667"><ele>282.000000</ele><time>2010-04-07T09:37:40Z</time></trkpt>
	<trkpt lat="51.83288833" lon="-2.10751"><ele>282.000000</ele><time>2010-04-07T09:37:45Z</time></trkpt>
	<trkpt lat="51.83292833" lon="-2.107445"><ele>284.000000</ele><time>2010-04-07T09:37:50Z</time></trkpt>
	<trkpt lat="51.83297333" lon="-2.107398333"><ele>285.000000</ele><time>2010-04-07T09:37:55Z</time></trkpt>
	<trkpt lat="51.83301333" lon="-2.10735"><ele>285.000000</ele><time>2010-04-07T09:38:00Z</time></trkpt>
	<trkpt lat="51.83304833" lon="-2.107303333"><ele>284.000000</ele><time>2010-04-07T09:38:05Z</time></trkpt>
	<trkpt lat="51.83307833" lon="-2.107283333"><ele>282.000000</ele><time>2010-04-07T09:38:10Z</time></trkpt>
	<trkpt lat="51.83310167" lon="-2.10732"><ele>281.000000</ele><time>2010-04-07T09:38:15Z</time></trkpt>
	<trkpt lat="51.83314" lon="-2.107318333"><ele>281.000000</ele><time>2010-04-07T09:38:20Z</time></trkpt>
	<trkpt lat="51.83317833" lon="-2.107253333"><ele>281.000000</ele><time>2010-04-07T09:38:25Z</time></trkpt>
	<trkpt lat="51.83322167" lon="-2.107186667"><ele>281.000000</ele><time>2010-04-07T09:38:30Z</time></trkpt>
	<trkpt lat="51.83326167" lon="-2.107125"><ele>281.000000</ele><time>2010-04-07T09:38:35Z</time></trkpt>
	<trkpt lat="51.83330833" lon="-2.107065"><ele>281.000000</ele><time>2010-04-07T09:38:40Z</time></trkpt>
	<trkpt lat="51.83334167" lon="-2.107021667"><ele>280.000000</ele><time>2010-04-07T09:38:45Z</time></trkpt>
	<trkpt lat="51.833385" lon="-2.106968333"><ele>280.000000</ele><time>2010-04-07T09:38:50Z</time></trkpt>
	<trkpt lat="51.83341" lon="-2.106918333"><ele>280.000000</ele><time>2010-04-07T09:38:55Z</time></trkpt>
	<trkpt lat="51.833445" lon="-2.106863333"><ele>279.000000</ele><time>2010-04-07T09:39:00Z</time></trkpt>
	<trkpt lat="51.83348167" lon="-2.106801667"><ele>278.000000</ele><time>2010-04-07T09:39:05Z</time></trkpt>
	<trkpt lat="51.83351667" lon="-2.106753333"><ele>278.000000</ele><time>2010-04-07T09:39:10Z</time></trkpt>
	<trkpt lat="51.83355333" lon="-2.106706667"><ele>278.000000</ele><time>2010-04-07T09:39:15Z</time></trkpt>
	<trkpt lat="51.83358333" lon="-2.106661667"><ele>278.000000</ele><time>2010-04-07T09:39:20Z</time></trkpt>
	<trkpt lat="51.83360833" lon="-2.106606667"><ele>277.000000</ele><time>2010-04-07T09:39:25Z</time></trkpt>
	<trkpt lat="51.83364667" lon="-2.106555"><ele>277.000000</ele><time>2010-04-07T09:39:30Z</time></trkpt>
	<trkpt lat="51.83368667" lon="-2.106501667"><ele>276.000000</ele><time>2010-04-07T09:39:35Z</time></trkpt>
	<trkpt lat="51.83372667" lon="-2.106453333"><ele>276.000000</ele><time>2010-04-07T09:39:40Z</time></trkpt>
	<trkpt lat="51.83376333" lon="-2.106398333"><ele>276.000000</ele><time>2010-04-07T09:39:45Z</time></trkpt>
	<trkpt lat="51.83379833" lon="-2.106341667"><ele>277.000000</ele><time>2010-04-07T09:39:50Z</time></trkpt>
	<trkpt lat="51.83384" lon="-2.10629"><ele>278.000000</ele><time>2010-04-07T09:39:55Z</time></trkpt>
	<trkpt lat="51.83388667" lon="-2.10624"><ele>279.000000</ele><time>2010-04-07T09:40:00Z</time></trkpt>
	<trkpt lat="51.83393" lon="-2.106193333"><ele>279.000000</ele><time>2010-04-07T09:40:05Z</time></trkpt>
	<trkpt lat="51.83396833" lon="-2.106138333"><ele>280.000000</ele><time>2010-04-07T09:40:10Z</time></trkpt>
	<trkpt lat="51.834" lon="-2.106085"><ele>279.000000</ele><time>2010-04-07T09:40:15Z</time></trkpt>
	<trkpt lat="51.834035" lon="-2.106036667"><ele>279.000000</ele><time>2010-04-07T09:40:20Z</time></trkpt>
	<trkpt lat="51.834075" lon="-2.10598"><ele>280.000000</ele><time>2010-04-07T09:40:25Z</time></trkpt>
	<trkpt lat="51.83411" lon="-2.105928333"><ele>281.000000</ele><time>2010-04-07T09:40:30Z</time></trkpt>
	<trkpt lat="51.834145" lon="-2.105873333"><ele>281.000000</ele><time>2010-04-07T09:40:35Z</time></trkpt>
	<trkpt lat="51.83418" lon="-2.105826667"><ele>280.000000</ele><time>2010-04-07T09:40:40Z</time></trkpt>
	<trkpt lat="51.83421" lon="-2.105773333"><ele>280.000000</ele><time>2010-04-07T09:40:45Z</time></trkpt>
	<trkpt lat="51.83423833" lon="-2.105728333"><ele>279.000000</ele><time>2010-04-07T09:40:50Z</time></trkpt>
	<trkpt lat="51.834265" lon="-2.105696667"><ele>280.000000</ele><time>2010-04-07T09:40:55Z</time></trkpt>
	<trkpt lat="51.83425833" lon="-2.1057"><ele>278.000000</ele><time>2010-04-07T09:41:00Z</time></trkpt>
	<trkpt lat="51.834255" lon="-2.105703333"><ele>277.000000</ele><time>2010-04-07T09:41:05Z</time></trkpt>
	<trkpt lat="51.83425" lon="-2.105713333"><ele>274.000000</ele><time>2010-04-07T09:41:10Z</time></trkpt>
	<trkpt lat="51.83424833" lon="-2.105726667"><ele>273.000000</ele><time>2010-04-07T09:41:15Z</time></trkpt>
	<trkpt lat="51.83425667" lon="-2.105726667"><ele>273.000000</ele><time>2010-04-07T09:41:20Z</time></trkpt>
	<trkpt lat="51.83426333" lon="-2.105718333"><ele>269.000000</ele><time>2010-04-07T09:41:25Z</time></trkpt>
	<trkpt lat="51.83425" lon="-2.105736667"><ele>265.000000</ele><time>2010-04-07T09:41:30Z</time></trkpt>
	<trkpt lat="51.83424167" lon="-2.10575"><ele>264.000000</ele><time>2010-04-07T09:41:35Z</time></trkpt>
	<trkpt lat="51.83423833" lon="-2.105755"><ele>265.000000</ele><time>2010-04-07T09:41:40Z</time></trkpt>
	<trkpt lat="51.834235" lon="-2.105756667"><ele>266.000000</ele><time>2010-04-07T09:41:45Z</time></trkpt>
	<trkpt lat="51.83423833" lon="-2.105753333"><ele>268.000000</ele><time>2010-04-07T09:41:51Z</time></trkpt>
	<trkpt lat="51.83424" lon="-2.105748333"><ele>269.000000</ele><time>2010-04-07T09:41:56Z</time></trkpt>
	<trkpt lat="51.83424" lon="-2.105751667"><ele>269.000000</ele><time>2010-04-07T09:42:01Z</time></trkpt>
	<trkpt lat="51.834235" lon="-2.105756667"><ele>270.000000</ele><time>2010-04-07T09:42:06Z</time></trkpt>
	<trkpt lat="51.83424" lon="-2.10576"><ele>269.000000</ele><time>2010-04-07T09:42:11Z</time></trkpt>
	<trkpt lat="51.83424333" lon="-2.105773333"><ele>267.000000</ele><time>2010-04-07T09:42:16Z</time></trkpt>
	<trkpt lat="51.83425" lon="-2.10578"><ele>267.000000</ele><time>2010-04-07T09:42:21Z</time></trkpt>
	<trkpt lat="51.83428333" lon="-2.105733333"><ele>269.000000</ele><time>2010-04-07T09:42:26Z</time></trkpt>
	<trkpt lat="51.834315" lon="-2.105653333"><ele>272.000000</ele><time>2010-04-07T09:42:31Z</time></trkpt>
	<trkpt lat="51.83434833" lon="-2.105565"><ele>274.000000</ele><time>2010-04-07T09:42:36Z</time></trkpt>
	<trkpt lat="51.83437" lon="-2.10549"><ele>278.000000</ele><time>2010-04-07T09:42:41Z</time></trkpt>
	<trkpt lat="51.83437833" lon="-2.105421667"><ele>280.000000</ele><time>2010-04-07T09:42:46Z</time></trkpt>
	<trkpt lat="51.8344" lon="-2.105328333"><ele>281.000000</ele><time>2010-04-07T09:42:51Z</time></trkpt>
	<trkpt lat="51.834415" lon="-2.105238333"><ele>281.000000</ele><time>2010-04-07T09:42:56Z</time></trkpt>
	<trkpt lat="51.83442167" lon="-2.105138333"><ele>282.000000</ele><time>2010-04-07T09:43:01Z</time></trkpt>
	<trkpt lat="51.834425" lon="-2.105048333"><ele>283.000000</ele><time>2010-04-07T09:43:06Z</time></trkpt>
	<trkpt lat="51.83442667" lon="-2.104961667"><ele>283.000000</ele><time>2010-04-07T09:43:11Z</time></trkpt>
	<trkpt lat="51.834435" lon="-2.10487"><ele>283.000000</ele><time>2010-04-07T09:43:16Z</time></trkpt>
	<trkpt lat="51.83443667" lon="-2.104776667"><ele>284.000000</ele><time>2010-04-07T09:43:21Z</time></trkpt>
	<trkpt lat="51.83443667" lon="-2.104685"><ele>286.000000</ele><time>2010-04-07T09:43:26Z</time></trkpt>
	<trkpt lat="51.83444" lon="-2.104601667"><ele>286.000000</ele><time>2010-04-07T09:43:31Z</time></trkpt>
	<trkpt lat="51.83444167" lon="-2.104511667"><ele>285.000000</ele><time>2010-04-07T09:43:36Z</time></trkpt>
	<trkpt lat="51.83444" lon="-2.104413333"><ele>284.000000</ele><time>2010-04-07T09:43:41Z</time></trkpt>
	<trkpt lat="51.83443333" lon="-2.104318333"><ele>284.000000</ele><time>2010-04-07T09:43:46Z</time></trkpt>
	<trkpt lat="51.83443833" lon="-2.104228333"><ele>290.000000</ele><time>2010-04-07T09:43:51Z</time></trkpt>
	<trkpt lat="51.834435" lon="-2.104151667"><ele>291.000000</ele><time>2010-04-07T09:43:56Z</time></trkpt>
	<trkpt lat="51.834425" lon="-2.10407"><ele>291.000000</ele><time>2010-04-07T09:44:01Z</time></trkpt>
	<trkpt lat="51.83440833" lon="-2.103981667"><ele>293.000000</ele><time>2010-04-07T09:44:06Z</time></trkpt>
	<trkpt lat="51.83439333" lon="-2.10389"><ele>297.000000</ele><time>2010-04-07T09:44:11Z</time></trkpt>
	<trkpt lat="51.83437667" lon="-2.103823333"><ele>297.000000</ele><time>2010-04-07T09:44:16Z</time></trkpt>
	<trkpt lat="51.83437" lon="-2.103768333"><ele>294.000000</ele><time>2010-04-07T09:44:21Z</time></trkpt>
	<trkpt lat="51.83435" lon="-2.103686667"><ele>294.000000</ele><time>2010-04-07T09:44:26Z</time></trkpt>
	<trkpt lat="51.83433167" lon="-2.10362"><ele>291.000000</ele><time>2010-04-07T09:44:31Z</time></trkpt>
	<trkpt lat="51.83434833" lon="-2.103573333"><ele>286.000000</ele><time>2010-04-07T09:44:36Z</time></trkpt>
	<trkpt lat="51.83433167" lon="-2.103528333"><ele>284.000000</ele><time>2010-04-07T09:44:41Z</time></trkpt>
	<trkpt lat="51.83431667" lon="-2.103491667"><ele>280.000000</ele><time>2010-04-07T09:44:46Z</time></trkpt>
	<trkpt lat="51.834325" lon="-2.1035"><ele>283.000000</ele><time>2010-04-07T09:44:51Z</time></trkpt>
	<trkpt lat="51.83432167" lon="-2.10351"><ele>283.000000</ele><time>2010-04-07T09:44:56Z</time></trkpt>
	<trkpt lat="51.83433" lon="-2.103511667"><ele>285.000000</ele><time>2010-04-07T09:45:01Z</time></trkpt>
	<trkpt lat="51.83434833" lon="-2.103543333"><ele>285.000000</ele><time>2010-04-07T09:45:06Z</time></trkpt>
	<trkpt lat="51.834365" lon="-2.10358"><ele>286.000000</ele><time>2010-04-07T09:45:11Z</time></trkpt>
	<trkpt lat="51.834385" lon="-2.103645"><ele>288.000000</ele><time>2010-04-07T09:45:16Z</time></trkpt>
	<trkpt lat="51.834415" lon="-2.103716667"><ele>288.000000</ele><time>2010-04-07T09:45:21Z</time></trkpt>
	<trkpt lat="51.83442167" lon="-2.103758333"><ele>288.000000</ele><time>2010-04-07T09:45:26Z</time></trkpt>
	<trkpt lat="51.83443833" lon="-2.103858333"><ele>294.000000</ele><time>2010-04-07T09:45:31Z</time></trkpt>
	<trkpt lat="51.83446333" lon="-2.1039"><ele>298.000000</ele><time>2010-04-07T09:45:36Z</time></trkpt>
	<trkpt lat="51.83448333" lon="-2.103993333"><ele>299.000000</ele><time>2010-04-07T09:45:41Z</time></trkpt>
	<trkpt lat="51.83449" lon="-2.104048333"><ele>298.000000</ele><time>2010-04-07T09:45:46Z</time></trkpt>
	<trkpt lat="51.834525" lon="-2.10413"><ele>297.000000</ele><time>2010-04-07T09:45:51Z</time></trkpt>
	<trkpt lat="51.83448167" lon="-2.104268333"><ele>294.000000</ele><time>2010-04-07T09:45:56Z</time></trkpt>
	<trkpt lat="51.83446" lon="-2.10439"><ele>292.000000</ele><time>2010-04-07T09:46:01Z</time></trkpt>
	<trkpt lat="51.83449" lon="-2.104466667"><ele>289.000000</ele><time>2010-04-07T09:46:06Z</time></trkpt>
	<trkpt lat="51.83451" lon="-2.104535"><ele>288.000000</ele><time>2010-04-07T09:46:11Z</time></trkpt>
	<trkpt lat="51.834505" lon="-2.104605"><ele>288.000000</ele><time>2010-04-07T09:46:16Z</time></trkpt>
	<trkpt lat="51.83451167" lon="-2.104696667"><ele>290.000000</ele><time>2010-04-07T09:46:21Z</time></trkpt>
	<trkpt lat="51.83452667" lon="-2.104761667"><ele>291.000000</ele><time>2010-04-07T09:46:26Z</time></trkpt>
	<trkpt lat="51.83454333" lon="-2.10483"><ele>288.000000</ele><time>2010-04-07T09:46:31Z</time></trkpt>
	<trkpt lat="51.834545" lon="-2.104885"><ele>287.000000</ele><time>2010-04-07T09:46:36Z</time></trkpt>
	<trkpt lat="51.83455" lon="-2.104986667"><ele>284.000000</ele><time>2010-04-07T09:46:41Z</time></trkpt>
	<trkpt lat="51.83452833" lon="-2.105078333"><ele>285.000000</ele><time>2010-04-07T09:46:46Z</time></trkpt>
	<trkpt lat="51.8345" lon="-2.105135"><ele>283.000000</ele><time>2010-04-07T09:46:51Z</time></trkpt>
	<trkpt lat="51.834465" lon="-2.105205"><ele>281.000000</ele><time>2010-04-07T09:46:56Z</time></trkpt>
	<trkpt lat="51.83443333" lon="-2.105295"><ele>283.000000</ele><time>2010-04-07T09:47:01Z</time></trkpt>
	<trkpt lat="51.83437" lon="-2.105361667"><ele>285.000000</ele><time>2010-04-07T09:47:06Z</time></trkpt>
	<trkpt lat="51.83435167" lon="-2.105433333"><ele>286.000000</ele><time>2010-04-07T09:47:11Z</time></trkpt>
	<trkpt lat="51.83436" lon="-2.10547"><ele>285.000000</ele><time>2010-04-07T09:47:16Z</time></trkpt>
	<trkpt lat="51.83437667" lon="-2.105508333"><ele>285.000000</ele><time>2010-04-07T09:47:21Z</time></trkpt>
	<trkpt lat="51.83439667" lon="-2.105555"><ele>285.000000</ele><time>2010-04-07T09:47:26Z</time></trkpt>
	<trkpt lat="51.83443667" lon="-2.105585"><ele>285.000000</ele><time>2010-04-07T09:47:31Z</time></trkpt>
	<trkpt lat="51.83446" lon="-2.105626667"><ele>282.000000</ele><time>2010-04-07T09:47:36Z</time></trkpt>
	<trkpt lat="51.83448833" lon="-2.105671667"><ele>280.000000</ele><time>2010-04-07T09:47:41Z</time></trkpt>
	<trkpt lat="51.83452667" lon="-2.105718333"><ele>281.000000</ele><time>2010-04-07T09:47:46Z</time></trkpt>
	<trkpt lat="51.83455" lon="-2.105766667"><ele>279.000000</ele><time>2010-04-07T09:47:51Z</time></trkpt>
	<trkpt lat="51.83457833" lon="-2.105805"><ele>279.000000</ele><time>2010-04-07T09:47:56Z</time></trkpt>
	<trkpt lat="51.834605" lon="-2.10582"><ele>276.000000</ele><time>2010-04-07T09:48:01Z</time></trkpt>
	<trkpt lat="51.83462833" lon="-2.105845"><ele>277.000000</ele><time>2010-04-07T09:48:06Z</time></trkpt>
	<trkpt lat="51.83465" lon="-2.105866667"><ele>277.000000</ele><time>2010-04-07T09:48:11Z</time></trkpt>
	<trkpt lat="51.83467333" lon="-2.105888333"><ele>277.000000</ele><time>2010-04-07T09:48:16Z</time></trkpt>
	<trkpt lat="51.83469167" lon="-2.105865"><ele>276.000000</ele><time>2010-04-07T09:48:21Z</time></trkpt>
	<trkpt lat="51.834705" lon="-2.105856667"><ele>276.000000</ele><time>2010-04-07T09:48:26Z</time></trkpt>
	<trkpt lat="51.83468833" lon="-2.10586"><ele>274.000000</ele><time>2010-04-07T09:48:31Z</time></trkpt>
	<trkpt lat="51.83468333" lon="-2.105861667"><ele>272.000000</ele><time>2010-04-07T09:48:36Z</time></trkpt>
	<trkpt lat="51.83468" lon="-2.105865"><ele>272.000000</ele><time>2010-04-07T09:48:41Z</time></trkpt>
	<trkpt lat="51.83468167" lon="-2.105845"><ele>271.000000</ele><time>2010-04-07T09:48:46Z</time></trkpt>
	<trkpt lat="51.83468167" lon="-2.105846667"><ele>271.000000</ele><time>2010-04-07T09:48:51Z</time></trkpt>
	<trkpt lat="51.83469333" lon="-2.105826667"><ele>273.000000</ele><time>2010-04-07T09:48:56Z</time></trkpt>
	<trkpt lat="51.83470167" lon="-2.105756667"><ele>272.000000</ele><time>2010-04-07T09:49:01Z</time></trkpt>
	<trkpt lat="51.83471667" lon="-2.105685"><ele>270.000000</ele><time>2010-04-07T09:49:06Z</time></trkpt>
	<trkpt lat="51.83474167" lon="-2.10562"><ele>271.000000</ele><time>2010-04-07T09:49:11Z</time></trkpt>
	<trkpt lat="51.834765" lon="-2.105561667"><ele>273.000000</ele><time>2010-04-07T09:49:16Z</time></trkpt>
	<trkpt lat="51.83476833" lon="-2.105525"><ele>272.000000</ele><time>2010-04-07T09:49:21Z</time></trkpt>
	<trkpt lat="51.83479333" lon="-2.105453333"><ele>273.000000</ele><time>2010-04-07T09:49:26Z</time></trkpt>
	<trkpt lat="51.83479667" lon="-2.10544"><ele>274.000000</ele><time>2010-04-07T09:49:31Z</time></trkpt>
	<trkpt lat="51.83479167" lon="-2.10544"><ele>273.000000</ele><time>2010-04-07T09:49:36Z</time></trkpt>
	<trkpt lat="51.834795" lon="-2.105443333"><ele>274.000000</ele><time>2010-04-07T09:49:41Z</time></trkpt>
	<trkpt lat="51.83479667" lon="-2.105431667"><ele>275.000000</ele><time>2010-04-07T09:49:46Z</time></trkpt>
	<trkpt lat="51.834805" lon="-2.105385"><ele>276.000000</ele><time>2010-04-07T09:49:51Z</time></trkpt>
	<trkpt lat="51.834815" lon="-2.105316667"><ele>278.000000</ele><time>2010-04-07T09:49:56Z</time></trkpt>
	<trkpt lat="51.83483667" lon="-2.105243333"><ele>279.000000</ele><time>2010-04-07T09:50:01Z</time></trkpt>
	<trkpt lat="51.83486167" lon="-2.105188333"><ele>279.000000</ele><time>2010-04-07T09:50:06Z</time></trkpt>
	<trkpt lat="51.83488833" lon="-2.105151667"><ele>278.000000</ele><time>2010-04-07T09:50:11Z</time></trkpt>
	<trkpt lat="51.834915" lon="-2.105106667"><ele>277.000000</ele><time>2010-04-07T09:50:16Z</time></trkpt>
	<trkpt lat="51.83494" lon="-2.105043333"><ele>276.000000</ele><time>2010-04-07T09:50:21Z</time></trkpt>
	<trkpt lat="51.83497333" lon="-2.105015"><ele>276.000000</ele><time>2010-04-07T09:50:26Z</time></trkpt>
	<trkpt lat="51.835005" lon="-2.104965"><ele>276.000000</ele><time>2010-04-07T09:50:31Z</time></trkpt>
	<trkpt lat="51.83503667" lon="-2.104896667"><ele>275.000000</ele><time>2010-04-07T09:50:36Z</time></trkpt>
	<trkpt lat="51.83506667" lon="-2.104836667"><ele>276.000000</ele><time>2010-04-07T09:50:41Z</time></trkpt>
	<trkpt lat="51.83508667" lon="-2.104761667"><ele>276.000000</ele><time>2010-04-07T09:50:46Z</time></trkpt>
	<trkpt lat="51.83512333" lon="-2.104693333"><ele>279.000000</ele><time>2010-04-07T09:50:51Z</time></trkpt>
	<trkpt lat="51.835155" lon="-2.104625"><ele>280.000000</ele><time>2010-04-07T09:50:56Z</time></trkpt>
	<trkpt lat="51.83518" lon="-2.104576667"><ele>281.000000</ele><time>2010-04-07T09:51:01Z</time></trkpt>
	<trkpt lat="51.83520833" lon="-2.10453"><ele>280.000000</ele><time>2010-04-07T09:51:06Z</time></trkpt>
	<trkpt lat="51.83524333" lon="-2.104485"><ele>281.000000</ele><time>2010-04-07T09:51:11Z</time></trkpt>
	<trkpt lat="51.83527333" lon="-2.104433333"><ele>280.000000</ele><time>2010-04-07T09:51:16Z</time></trkpt>
	<trkpt lat="51.83530667" lon="-2.104375"><ele>280.000000</ele><time>2010-04-07T09:51:21Z</time></trkpt>
	<trkpt lat="51.83534" lon="-2.104305"><ele>280.000000</ele><time>2010-04-07T09:51:26Z</time></trkpt>
	<trkpt lat="51.835375" lon="-2.10423"><ele>282.000000</ele><time>2010-04-07T09:51:31Z</time></trkpt>
	<trkpt lat="51.83539333" lon="-2.104161667"><ele>283.000000</ele><time>2010-04-07T09:51:36Z</time></trkpt>
	<trkpt lat="51.83536167" lon="-2.104098333"><ele>283.000000</ele><time>2010-04-07T09:51:41Z</time></trkpt>
	<trkpt lat="51.83533" lon="-2.104038333"><ele>283.000000</ele><time>2010-04-07T09:51:46Z</time></trkpt>
	<trkpt lat="51.83530667" lon="-2.103963333"><ele>283.000000</ele><time>2010-04-07T09:51:51Z</time></trkpt>
	<trkpt lat="51.83529667" lon="-2.10388"><ele>284.000000</ele><time>2010-04-07T09:51:56Z</time></trkpt>
	<trkpt lat="51.83528667" lon="-2.1038"><ele>284.000000</ele><time>2010-04-07T09:52:01Z</time></trkpt>
	<trkpt lat="51.835275" lon="-2.10372"><ele>284.000000</ele><time>2010-04-07T09:52:06Z</time></trkpt>
	<trkpt lat="51.83525833" lon="-2.103655"><ele>285.000000</ele><time>2010-04-07T09:52:11Z</time></trkpt>
	<trkpt lat="51.83524667" lon="-2.103571667"><ele>284.000000</ele><time>2010-04-07T09:52:16Z</time></trkpt>
	<trkpt lat="51.83524167" lon="-2.103488333"><ele>284.000000</ele><time>2010-04-07T09:52:21Z</time></trkpt>
	<trkpt lat="51.83523167" lon="-2.103426667"><ele>284.000000</ele><time>2010-04-07T09:52:26Z</time></trkpt>
	<trkpt lat="51.83523667" lon="-2.103366667"><ele>285.000000</ele><time>2010-04-07T09:52:31Z</time></trkpt>
	<trkpt lat="51.83525833" lon="-2.103301667"><ele>284.000000</ele><time>2010-04-07T09:52:36Z</time></trkpt>
	<trkpt lat="51.83529833" lon="-2.103258333"><ele>284.000000</ele><time>2010-04-07T09:52:41Z</time></trkpt>
	<trkpt lat="51.83534" lon="-2.103215"><ele>283.000000</ele><time>2010-04-07T09:52:46Z</time></trkpt>
	<trkpt lat="51.835385" lon="-2.103181667"><ele>286.000000</ele><time>2010-04-07T09:52:51Z</time></trkpt>
	<trkpt lat="51.83542167" lon="-2.103148333"><ele>287.000000</ele><time>2010-04-07T09:52:56Z</time></trkpt>
	<trkpt lat="51.83545333" lon="-2.103108333"><ele>287.000000</ele><time>2010-04-07T09:53:01Z</time></trkpt>
	<trkpt lat="51.835485" lon="-2.103078333"><ele>287.000000</ele><time>2010-04-07T09:53:06Z</time></trkpt>
	<trkpt lat="51.83548667" lon="-2.103071667"><ele>285.000000</ele><time>2010-04-07T09:53:11Z</time></trkpt>
	<trkpt lat="51.83548333" lon="-2.103066667"><ele>284.000000</ele><time>2010-04-07T09:53:16Z</time></trkpt>
	<trkpt lat="51.83548167" lon="-2.103065"><ele>283.000000</ele><time>2010-04-07T09:53:21Z</time></trkpt>
	<trkpt lat="51.83547167" lon="-2.103068333"><ele>282.000000</ele><time>2010-04-07T09:53:26Z</time></trkpt>
	<trkpt lat="51.83547833" lon="-2.103055"><ele>281.000000</ele><time>2010-04-07T09:53:31Z</time></trkpt>
	<trkpt lat="51.83550167" lon="-2.103005"><ele>284.000000</ele><time>2010-04-07T09:53:36Z</time></trkpt>
	<trkpt lat="51.83552333" lon="-2.102958333"><ele>284.000000</ele><time>2010-04-07T09:53:41Z</time></trkpt>
	<trkpt lat="51.835545" lon="-2.102903333"><ele>284.000000</ele><time>2010-04-07T09:53:46Z</time></trkpt>
	<trkpt lat="51.83558" lon="-2.102845"><ele>286.000000</ele><time>2010-04-07T09:53:51Z</time></trkpt>
	<trkpt lat="51.83561167" lon="-2.102778333"><ele>287.000000</ele><time>2010-04-07T09:53:56Z</time></trkpt>
	<trkpt lat="51.83563" lon="-2.102698333"><ele>287.000000</ele><time>2010-04-07T09:54:01Z</time></trkpt>
	<trkpt lat="51.83564167" lon="-2.102616667"><ele>287.000000</ele><time>2010-04-07T09:54:06Z</time></trkpt>
	<trkpt lat="51.83565167" lon="-2.102536667"><ele>286.000000</ele><time>2010-04-07T09:54:11Z</time></trkpt>
	<trkpt lat="51.83566167" lon="-2.102455"><ele>287.000000</ele><time>2010-04-07T09:54:16Z</time></trkpt>
	<trkpt lat="51.83567833" lon="-2.102375"><ele>287.000000</ele><time>2010-04-07T09:54:21Z</time></trkpt>
	<trkpt lat="51.83568167" lon="-2.102293333"><ele>287.000000</ele><time>2010-04-07T09:54:26Z</time></trkpt>
	<trkpt lat="51.83568167" lon="-2.102215"><ele>287.000000</ele><time>2010-04-07T09:54:31Z</time></trkpt>
	<trkpt lat="51.835695" lon="-2.102141667"><ele>287.000000</ele><time>2010-04-07T09:54:36Z</time></trkpt>
	<trkpt lat="51.83570667" lon="-2.102073333"><ele>287.000000</ele><time>2010-04-07T09:54:41Z</time></trkpt>
	<trkpt lat="51.83571833" lon="-2.102036667"><ele>288.000000</ele><time>2010-04-07T09:54:46Z</time></trkpt>
	<trkpt lat="51.83571" lon="-2.102023333"><ele>287.000000</ele><time>2010-04-07T09:54:51Z</time></trkpt>
	<trkpt lat="51.835715" lon="-2.102015"><ele>288.000000</ele><time>2010-04-07T09:54:56Z</time></trkpt>
	<trkpt lat="51.83572667" lon="-2.101945"><ele>288.000000</ele><time>2010-04-07T09:55:01Z</time></trkpt>
	<trkpt lat="51.83574667" lon="-2.101895"><ele>287.000000</ele><time>2010-04-07T09:55:06Z</time></trkpt>
	<trkpt lat="51.83579" lon="-2.101868333"><ele>286.000000</ele><time>2010-04-07T09:55:11Z</time></trkpt>
	<trkpt lat="51.835825" lon="-2.101833333"><ele>285.000000</ele><time>2010-04-07T09:55:16Z</time></trkpt>
	<trkpt lat="51.835875" lon="-2.101788333"><ele>288.000000</ele><time>2010-04-07T09:55:21Z</time></trkpt>
	<trkpt lat="51.83591333" lon="-2.101721667"><ele>288.000000</ele><time>2010-04-07T09:55:26Z</time></trkpt>
	<trkpt lat="51.83594333" lon="-2.101651667"><ele>287.000000</ele><time>2010-04-07T09:55:31Z</time></trkpt>
	<trkpt lat="51.83598" lon="-2.10158"><ele>286.000000</ele><time>2010-04-07T09:55:36Z</time></trkpt>
	<trkpt lat="51.83601167" lon="-2.101501667"><ele>286.000000</ele><time>2010-04-07T09:55:41Z</time></trkpt>
	<trkpt lat="51.83601833" lon="-2.101408333"><ele>285.000000</ele><time>2010-04-07T09:55:46Z</time></trkpt>
	<trkpt lat="51.83602833" lon="-2.101321667"><ele>286.000000</ele><time>2010-04-07T09:55:51Z</time></trkpt>
	<trkpt lat="51.83602167" lon="-2.101236667"><ele>288.000000</ele><time>2010-04-07T09:55:56Z</time></trkpt>
	<trkpt lat="51.83601833" lon="-2.101153333"><ele>292.000000</ele><time>2010-04-07T09:56:01Z</time></trkpt>
	<trkpt lat="51.83603333" lon="-2.101"><ele>298.000000</ele><time>2010-04-07T09:56:08Z</time></trkpt>
	<trkpt lat="51.83595333" lon="-2.100928333"><ele>290.000000</ele><time>2010-04-07T09:56:13Z</time></trkpt>
	<trkpt lat="51.83591" lon="-2.100838333"><ele>288.000000</ele><time>2010-04-07T09:56:18Z</time></trkpt>
	<trkpt lat="51.83588167" lon="-2.100758333"><ele>288.000000</ele><time>2010-04-07T09:56:23Z</time></trkpt>
	<trkpt lat="51.835855" lon="-2.100695"><ele>286.000000</ele><time>2010-04-07T09:56:28Z</time></trkpt>
	<trkpt lat="51.83581833" lon="-2.100625"><ele>283.000000</ele><time>2010-04-07T09:56:33Z</time></trkpt>
	<trkpt lat="51.83578333" lon="-2.100548333"><ele>283.000000</ele><time>2010-04-07T09:56:38Z</time></trkpt>
	<trkpt lat="51.83575667" lon="-2.100475"><ele>284.000000</ele><time>2010-04-07T09:56:43Z</time></trkpt>
	<trkpt lat="51.835725" lon="-2.100408333"><ele>285.000000</ele><time>2010-04-07T09:56:48Z</time></trkpt>
	<trkpt lat="51.83569667" lon="-2.100345"><ele>285.000000</ele><time>2010-04-07T09:56:53Z</time></trkpt>
	<trkpt lat="51.83566667" lon="-2.100273333"><ele>286.000000</ele><time>2010-04-07T09:56:58Z</time></trkpt>
	<trkpt lat="51.83565" lon="-2.100198333"><ele>286.000000</ele><time>2010-04-07T09:57:03Z</time></trkpt>
	<trkpt lat="51.83562667" lon="-2.100131667"><ele>286.000000</ele><time>2010-04-07T09:57:08Z</time></trkpt>
	<trkpt lat="51.83559833" lon="-2.100075"><ele>285.000000</ele><time>2010-04-07T09:57:13Z</time></trkpt>
	<trkpt lat="51.83557333" lon="-2.100006667"><ele>285.000000</ele><time>2010-04-07T09:57:18Z</time></trkpt>
	<trkpt lat="51.83555167" lon="-2.099925"><ele>286.000000</ele><time>2010-04-07T09:57:23Z</time></trkpt>
	<trkpt lat="51.83553" lon="-2.099841667"><ele>286.000000</ele><time>2010-04-07T09:57:28Z</time></trkpt>
	<trkpt lat="51.83551333" lon="-2.099758333"><ele>286.000000</ele><time>2010-04-07T09:57:33Z</time></trkpt>
	<trkpt lat="51.83550167" lon="-2.099671667"><ele>286.000000</ele><time>2010-04-07T09:57:38Z</time></trkpt>
	<trkpt lat="51.83549" lon="-2.099603333"><ele>286.000000</ele><time>2010-04-07T09:57:43Z</time></trkpt>
	<trkpt lat="51.83547833" lon="-2.099575"><ele>286.000000</ele><time>2010-04-07T09:57:48Z</time></trkpt>
	<trkpt lat="51.83548" lon="-2.099576667"><ele>287.000000</ele><time>2010-04-07T09:57:53Z</time></trkpt>
	<trkpt lat="51.83548333" lon="-2.099553333"><ele>288.000000</ele><time>2010-04-07T09:57:58Z</time></trkpt>
	<trkpt lat="51.83548" lon="-2.099505"><ele>289.000000</ele><time>2010-04-07T09:58:03Z</time></trkpt>
	<trkpt lat="51.83547667" lon="-2.099421667"><ele>288.000000</ele><time>2010-04-07T09:58:08Z</time></trkpt>
	<trkpt lat="51.83547833" lon="-2.099331667"><ele>286.000000</ele><time>2010-04-07T09:58:13Z</time></trkpt>
	<trkpt lat="51.83548667" lon="-2.09925"><ele>288.000000</ele><time>2010-04-07T09:58:18Z</time></trkpt>
	<trkpt lat="51.83550667" lon="-2.09916"><ele>289.000000</ele><time>2010-04-07T09:58:23Z</time></trkpt>
	<trkpt lat="51.83552167" lon="-2.099075"><ele>291.000000</ele><time>2010-04-07T09:58:28Z</time></trkpt>
	<trkpt lat="51.835535" lon="-2.098996667"><ele>290.000000</ele><time>2010-04-07T09:58:33Z</time></trkpt>
	<trkpt lat="51.83555167" lon="-2.09892"><ele>290.000000</ele><time>2010-04-07T09:58:38Z</time></trkpt>
	<trkpt lat="51.83556667" lon="-2.09884"><ele>290.000000</ele><time>2010-04-07T09:58:43Z</time></trkpt>
	<trkpt lat="51.83558333" lon="-2.098763333"><ele>290.000000</ele><time>2010-04-07T09:58:48Z</time></trkpt>
	<trkpt lat="51.83559833" lon="-2.098681667"><ele>289.000000</ele><time>2010-04-07T09:58:53Z</time></trkpt>
	<trkpt lat="51.83561333" lon="-2.098603333"><ele>288.000000</ele><time>2010-04-07T09:58:58Z</time></trkpt>
	<trkpt lat="51.83563" lon="-2.098526667"><ele>287.000000</ele><time>2010-04-07T09:59:03Z</time></trkpt>
	<trkpt lat="51.83564667" lon="-2.09844"><ele>287.000000</ele><time>2010-04-07T09:59:08Z</time></trkpt>
	<trkpt lat="51.83566333" lon="-2.09836"><ele>287.000000</ele><time>2010-04-07T09:59:13Z</time></trkpt>
	<trkpt lat="51.83567833" lon="-2.098283333"><ele>287.000000</ele><time>2010-04-07T09:59:18Z</time></trkpt>
	<trkpt lat="51.83569667" lon="-2.098201667"><ele>288.000000</ele><time>2010-04-07T09:59:23Z</time></trkpt>
	<trkpt lat="51.835715" lon="-2.098115"><ele>289.000000</ele><time>2010-04-07T09:59:28Z</time></trkpt>
	<trkpt lat="51.835735" lon="-2.098036667"><ele>290.000000</ele><time>2010-04-07T09:59:33Z</time></trkpt>
	<trkpt lat="51.83575333" lon="-2.097963333"><ele>290.000000</ele><time>2010-04-07T09:59:38Z</time></trkpt>
	<trkpt lat="51.83576333" lon="-2.097883333"><ele>289.000000</ele><time>2010-04-07T09:59:43Z</time></trkpt>
	<trkpt lat="51.83577333" lon="-2.097798333"><ele>288.000000</ele><time>2010-04-07T09:59:48Z</time></trkpt>
	<trkpt lat="51.83577667" lon="-2.097713333"><ele>288.000000</ele><time>2010-04-07T09:59:53Z</time></trkpt>
	<trkpt lat="51.83578667" lon="-2.097641667"><ele>287.000000</ele><time>2010-04-07T09:59:58Z</time></trkpt>
	<trkpt lat="51.83579333" lon="-2.09756"><ele>285.000000</ele><time>2010-04-07T10:00:03Z</time></trkpt>
	<trkpt lat="51.83580667" lon="-2.097471667"><ele>285.000000</ele><time>2010-04-07T10:00:08Z</time></trkpt>
	<trkpt lat="51.83582333" lon="-2.097405"><ele>286.000000</ele><time>2010-04-07T10:00:13Z</time></trkpt>
	<trkpt lat="51.83583833" lon="-2.097333333"><ele>287.000000</ele><time>2010-04-07T10:00:18Z</time></trkpt>
	<trkpt lat="51.83584167" lon="-2.09731"><ele>289.000000</ele><time>2010-04-07T10:00:23Z</time></trkpt>
	<trkpt lat="51.83584" lon="-2.097238333"><ele>289.000000</ele><time>2010-04-07T10:00:28Z</time></trkpt>
	<trkpt lat="51.835855" lon="-2.097145"><ele>289.000000</ele><time>2010-04-07T10:00:33Z</time></trkpt>
	<trkpt lat="51.83587" lon="-2.097055"><ele>288.000000</ele><time>2010-04-07T10:00:38Z</time></trkpt>
	<trkpt lat="51.83588333" lon="-2.096966667"><ele>288.000000</ele><time>2010-04-07T10:00:43Z</time></trkpt>
	<trkpt lat="51.83588667" lon="-2.096881667"><ele>287.000000</ele><time>2010-04-07T10:00:48Z</time></trkpt>
	<trkpt lat="51.83589667" lon="-2.09681"><ele>286.000000</ele><time>2010-04-07T10:00:53Z</time></trkpt>
	<trkpt lat="51.83591167" lon="-2.096743333"><ele>285.000000</ele><time>2010-04-07T10:00:58Z</time></trkpt>
	<trkpt lat="51.83593333" lon="-2.09668"><ele>286.000000</ele><time>2010-04-07T10:01:03Z</time></trkpt>
	<trkpt lat="51.83595333" lon="-2.096595"><ele>286.000000</ele><time>2010-04-07T10:01:08Z</time></trkpt>
	<trkpt lat="51.83597" lon="-2.096508333"><ele>287.000000</ele><time>2010-04-07T10:01:13Z</time></trkpt>
	<trkpt lat="51.83598833" lon="-2.096418333"><ele>287.000000</ele><time>2010-04-07T10:01:18Z</time></trkpt>
	<trkpt lat="51.83599833" lon="-2.096333333"><ele>286.000000</ele><time>2010-04-07T10:01:23Z</time></trkpt>
	<trkpt lat="51.83601167" lon="-2.096246667"><ele>286.000000</ele><time>2010-04-07T10:01:28Z</time></trkpt>
	<trkpt lat="51.836025" lon="-2.096156667"><ele>286.000000</ele><time>2010-04-07T10:01:33Z</time></trkpt>
	<trkpt lat="51.83603333" lon="-2.096071667"><ele>286.000000</ele><time>2010-04-07T10:01:38Z</time></trkpt>
	<trkpt lat="51.83604333" lon="-2.095991667"><ele>286.000000</ele><time>2010-04-07T10:01:43Z</time></trkpt>
	<trkpt lat="51.83604833" lon="-2.09591"><ele>286.000000</ele><time>2010-04-07T10:01:48Z</time></trkpt>
	<trkpt lat="51.83606" lon="-2.095825"><ele>286.000000</ele><time>2010-04-07T10:01:53Z</time></trkpt>
	<trkpt lat="51.83607167" lon="-2.095745"><ele>286.000000</ele><time>2010-04-07T10:01:58Z</time></trkpt>
	<trkpt lat="51.83607833" lon="-2.095663333"><ele>286.000000</ele><time>2010-04-07T10:02:03Z</time></trkpt>
	<trkpt lat="51.83608833" lon="-2.095573333"><ele>285.000000</ele><time>2010-04-07T10:02:08Z</time></trkpt>
	<trkpt lat="51.83609333" lon="-2.095483333"><ele>284.000000</ele><time>2010-04-07T10:02:13Z</time></trkpt>
	<trkpt lat="51.836105" lon="-2.095396667"><ele>283.000000</ele><time>2010-04-07T10:02:18Z</time></trkpt>
	<trkpt lat="51.83611833" lon="-2.09532"><ele>283.000000</ele><time>2010-04-07T10:02:23Z</time></trkpt>
	<trkpt lat="51.83613833" lon="-2.09524"><ele>283.000000</ele><time>2010-04-07T10:02:28Z</time></trkpt>
	<trkpt lat="51.83617167" lon="-2.095168333"><ele>284.000000</ele><time>2010-04-07T10:02:33Z</time></trkpt>
	<trkpt lat="51.83618833" lon="-2.095088333"><ele>285.000000</ele><time>2010-04-07T10:02:38Z</time></trkpt>
	<trkpt lat="51.83620333" lon="-2.095008333"><ele>284.000000</ele><time>2010-04-07T10:02:43Z</time></trkpt>
	<trkpt lat="51.83621833" lon="-2.094933333"><ele>282.000000</ele><time>2010-04-07T10:02:48Z</time></trkpt>
	<trkpt lat="51.83623833" lon="-2.094863333"><ele>281.000000</ele><time>2010-04-07T10:02:53Z</time></trkpt>
	<trkpt lat="51.83626167" lon="-2.09479"><ele>280.000000</ele><time>2010-04-07T10:02:58Z</time></trkpt>
	<trkpt lat="51.836285" lon="-2.09472"><ele>279.000000</ele><time>2010-04-07T10:03:03Z</time></trkpt>
	<trkpt lat="51.83631333" lon="-2.094653333"><ele>278.000000</ele><time>2010-04-07T10:03:08Z</time></trkpt>
	<trkpt lat="51.83634167" lon="-2.094595"><ele>278.000000</ele><time>2010-04-07T10:03:13Z</time></trkpt>
	<trkpt lat="51.83637667" lon="-2.094536667"><ele>279.000000</ele><time>2010-04-07T10:03:18Z</time></trkpt>
	<trkpt lat="51.83640833" lon="-2.09447"><ele>279.000000</ele><time>2010-04-07T10:03:23Z</time></trkpt>
	<trkpt lat="51.83644667" lon="-2.094411667"><ele>280.000000</ele><time>2010-04-07T10:03:28Z</time></trkpt>
	<trkpt lat="51.83648" lon="-2.094346667"><ele>280.000000</ele><time>2010-04-07T10:03:33Z</time></trkpt>
	<trkpt lat="51.83651333" lon="-2.094286667"><ele>281.000000</ele><time>2010-04-07T10:03:38Z</time></trkpt>
	<trkpt lat="51.83655" lon="-2.094225"><ele>281.000000</ele><time>2010-04-07T10:03:43Z</time></trkpt>
	<trkpt lat="51.83658167" lon="-2.094163333"><ele>281.000000</ele><time>2010-04-07T10:03:48Z</time></trkpt>
	<trkpt lat="51.83660833" lon="-2.094103333"><ele>282.000000</ele><time>2010-04-07T10:03:53Z</time></trkpt>
	<trkpt lat="51.83665167" lon="-2.09405"><ele>282.000000</ele><time>2010-04-07T10:03:58Z</time></trkpt>
	<trkpt lat="51.83669" lon="-2.093968333"><ele>283.000000</ele><time>2010-04-07T10:04:03Z</time></trkpt>
	<trkpt lat="51.83671833" lon="-2.093895"><ele>282.000000</ele><time>2010-04-07T10:04:08Z</time></trkpt>
	<trkpt lat="51.83675333" lon="-2.093828333"><ele>282.000000</ele><time>2010-04-07T10:04:13Z</time></trkpt>
	<trkpt lat="51.83679" lon="-2.093756667"><ele>282.000000</ele><time>2010-04-07T10:04:18Z</time></trkpt>
	<trkpt lat="51.83681667" lon="-2.093688333"><ele>281.000000</ele><time>2010-04-07T10:04:23Z</time></trkpt>
	<trkpt lat="51.836845" lon="-2.093618333"><ele>281.000000</ele><time>2010-04-07T10:04:28Z</time></trkpt>
	<trkpt lat="51.836875" lon="-2.09355"><ele>281.000000</ele><time>2010-04-07T10:04:33Z</time></trkpt>
	<trkpt lat="51.83690167" lon="-2.093478333"><ele>280.000000</ele><time>2010-04-07T10:04:38Z</time></trkpt>
	<trkpt lat="51.83693" lon="-2.0934"><ele>281.000000</ele><time>2010-04-07T10:04:43Z</time></trkpt>
	<trkpt lat="51.83695833" lon="-2.093323333"><ele>280.000000</ele><time>2010-04-07T10:04:48Z</time></trkpt>
	<trkpt lat="51.836985" lon="-2.093246667"><ele>280.000000</ele><time>2010-04-07T10:04:53Z</time></trkpt>
	<trkpt lat="51.83701167" lon="-2.093171667"><ele>280.000000</ele><time>2010-04-07T10:04:58Z</time></trkpt>
	<trkpt lat="51.837035" lon="-2.093095"><ele>279.000000</ele><time>2010-04-07T10:05:03Z</time></trkpt>
	<trkpt lat="51.83706" lon="-2.093036667"><ele>278.000000</ele><time>2010-04-07T10:05:08Z</time></trkpt>
	<trkpt lat="51.83709" lon="-2.093028333"><ele>280.000000</ele><time>2010-04-07T10:05:13Z</time></trkpt>
	<trkpt lat="51.83710333" lon="-2.093023333"><ele>283.000000</ele><time>2010-04-07T10:05:18Z</time></trkpt>
	<trkpt lat="51.83710333" lon="-2.093023333"><ele>282.000000</ele><time>2010-04-07T10:05:23Z</time></trkpt>
	<trkpt lat="51.83710167" lon="-2.093021667"><ele>282.000000</ele><time>2010-04-07T10:05:28Z</time></trkpt>
	<trkpt lat="51.83709667" lon="-2.093018333"><ele>281.000000</ele><time>2010-04-07T10:05:33Z</time></trkpt>
	<trkpt lat="51.83709833" lon="-2.093011667"><ele>281.000000</ele><time>2010-04-07T10:05:38Z</time></trkpt>
	<trkpt lat="51.837075" lon="-2.093"><ele>280.000000</ele><time>2010-04-07T10:05:43Z</time></trkpt>
	<trkpt lat="51.83703833" lon="-2.093021667"><ele>280.000000</ele><time>2010-04-07T10:05:48Z</time></trkpt>
	<trkpt lat="51.83700333" lon="-2.093056667"><ele>280.000000</ele><time>2010-04-07T10:05:53Z</time></trkpt>
	<trkpt lat="51.83698333" lon="-2.093071667"><ele>280.000000</ele><time>2010-04-07T10:05:58Z</time></trkpt>
	<trkpt lat="51.83698333" lon="-2.093083333"><ele>280.000000</ele><time>2010-04-07T10:06:03Z</time></trkpt>
	<trkpt lat="51.83696833" lon="-2.09306"><ele>281.000000</ele><time>2010-04-07T10:06:08Z</time></trkpt>
	<trkpt lat="51.836955" lon="-2.09305"><ele>280.000000</ele><time>2010-04-07T10:06:13Z</time></trkpt>
	<trkpt lat="51.836955" lon="-2.093043333"><ele>281.000000</ele><time>2010-04-07T10:06:18Z</time></trkpt>
	<trkpt lat="51.836955" lon="-2.09304"><ele>281.000000</ele><time>2010-04-07T10:06:23Z</time></trkpt>
	<trkpt lat="51.83695833" lon="-2.093036667"><ele>281.000000</ele><time>2010-04-07T10:06:28Z</time></trkpt>
	<trkpt lat="51.83698" lon="-2.093018333"><ele>281.000000</ele><time>2010-04-07T10:06:33Z</time></trkpt>
	<trkpt lat="51.83693833" lon="-2.093003333"><ele>281.000000</ele><time>2010-04-07T10:06:38Z</time></trkpt>
	<trkpt lat="51.83692333" lon="-2.093005"><ele>281.000000</ele><time>2010-04-07T10:06:43Z</time></trkpt>
	<trkpt lat="51.83692167" lon="-2.093003333"><ele>281.000000</ele><time>2010-04-07T10:06:48Z</time></trkpt>
	<trkpt lat="51.83692" lon="-2.093"><ele>282.000000</ele><time>2010-04-07T10:06:53Z</time></trkpt>
	<trkpt lat="51.83691833" lon="-2.093"><ele>283.000000</ele><time>2010-04-07T10:06:58Z</time></trkpt>
	<trkpt lat="51.83691833" lon="-2.093"><ele>283.000000</ele><time>2010-04-07T10:07:03Z</time></trkpt>
	<trkpt lat="51.836915" lon="-2.092998333"><ele>283.000000</ele><time>2010-04-07T10:07:08Z</time></trkpt>
	<trkpt lat="51.83691167" lon="-2.093"><ele>284.000000</ele><time>2010-04-07T10:07:13Z</time></trkpt>
	<trkpt lat="51.83690833" lon="-2.093003333"><ele>284.000000</ele><time>2010-04-07T10:07:18Z</time></trkpt>
	<trkpt lat="51.836905" lon="-2.093003333"><ele>285.000000</ele><time>2010-04-07T10:07:23Z</time></trkpt>
	<trkpt lat="51.83690167" lon="-2.092993333"><ele>285.000000</ele><time>2010-04-07T10:07:28Z</time></trkpt>
	<trkpt lat="51.8369" lon="-2.092988333"><ele>286.000000</ele><time>2010-04-07T10:07:33Z</time></trkpt>
	<trkpt lat="51.83689833" lon="-2.092983333"><ele>286.000000</ele><time>2010-04-07T10:07:38Z</time></trkpt>
	<trkpt lat="51.83689667" lon="-2.09298"><ele>286.000000</ele><time>2010-04-07T10:07:43Z</time></trkpt>
	<trkpt lat="51.83689833" lon="-2.09298"><ele>287.000000</ele><time>2010-04-07T10:07:48Z</time></trkpt>
	<trkpt lat="51.83690333" lon="-2.092985"><ele>286.000000</ele><time>2010-04-07T10:07:53Z</time></trkpt>
	<trkpt lat="51.836905" lon="-2.092983333"><ele>286.000000</ele><time>2010-04-07T10:07:58Z</time></trkpt>
	<trkpt lat="51.83690667" lon="-2.092981667"><ele>286.000000</ele><time>2010-04-07T10:08:03Z</time></trkpt>
	<trkpt lat="51.83692" lon="-2.092988333"><ele>285.000000</ele><time>2010-04-07T10:08:08Z</time></trkpt>
	<trkpt lat="51.836935" lon="-2.093005"><ele>284.000000</ele><time>2010-04-07T10:08:13Z</time></trkpt>
	<trkpt lat="51.83693667" lon="-2.09301"><ele>284.000000</ele><time>2010-04-07T10:08:18Z</time></trkpt>
	<trkpt lat="51.83694" lon="-2.093018333"><ele>284.000000</ele><time>2010-04-07T10:08:23Z</time></trkpt>
	<trkpt lat="51.83694167" lon="-2.09302"><ele>284.000000</ele><time>2010-04-07T10:08:28Z</time></trkpt>
	<trkpt lat="51.836945" lon="-2.09302"><ele>284.000000</ele><time>2010-04-07T10:08:33Z</time></trkpt>
	<trkpt lat="51.83694667" lon="-2.09302"><ele>284.000000</ele><time>2010-04-07T10:08:38Z</time></trkpt>
	<trkpt lat="51.83694833" lon="-2.09302"><ele>284.000000</ele><time>2010-04-07T10:08:43Z</time></trkpt>
	<trkpt lat="51.83695167" lon="-2.093018333"><ele>284.000000</ele><time>2010-04-07T10:08:48Z</time></trkpt>
	<trkpt lat="51.83695167" lon="-2.093015"><ele>284.000000</ele><time>2010-04-07T10:08:53Z</time></trkpt>
	<trkpt lat="51.83695167" lon="-2.093013333"><ele>284.000000</ele><time>2010-04-07T10:08:58Z</time></trkpt>
	<trkpt lat="51.83695167" lon="-2.09301"><ele>284.000000</ele><time>2010-04-07T10:09:03Z</time></trkpt>
	<trkpt lat="51.83695333" lon="-2.093008333"><ele>284.000000</ele><time>2010-04-07T10:09:08Z</time></trkpt>
	<trkpt lat="51.83695333" lon="-2.093006667"><ele>284.000000</ele><time>2010-04-07T10:09:13Z</time></trkpt>
	<trkpt lat="51.83695333" lon="-2.093008333"><ele>285.000000</ele><time>2010-04-07T10:09:18Z</time></trkpt>
	<trkpt lat="51.83695167" lon="-2.093003333"><ele>285.000000</ele><time>2010-04-07T10:09:23Z</time></trkpt>
	<trkpt lat="51.83694167" lon="-2.093023333"><ele>285.000000</ele><time>2010-04-07T10:09:28Z</time></trkpt>
	<trkpt lat="51.83693333" lon="-2.093035"><ele>284.000000</ele><time>2010-04-07T10:09:33Z</time></trkpt>
	<trkpt lat="51.83693333" lon="-2.093033333"><ele>284.000000</ele><time>2010-04-07T10:09:38Z</time></trkpt>
	<trkpt lat="51.83693167" lon="-2.093025"><ele>284.000000</ele><time>2010-04-07T10:09:43Z</time></trkpt>
	<trkpt lat="51.83693" lon="-2.093023333"><ele>284.000000</ele><time>2010-04-07T10:09:48Z</time></trkpt>
	<trkpt lat="51.83692833" lon="-2.093021667"><ele>284.000000</ele><time>2010-04-07T10:09:53Z</time></trkpt>
	<trkpt lat="51.83692667" lon="-2.093016667"><ele>284.000000</ele><time>2010-04-07T10:09:58Z</time></trkpt>
	<trkpt lat="51.836925" lon="-2.093011667"><ele>284.000000</ele><time>2010-04-07T10:10:03Z</time></trkpt>
	<trkpt lat="51.83692333" lon="-2.093008333"><ele>285.000000</ele><time>2010-04-07T10:10:08Z</time></trkpt>
	<trkpt lat="51.83692167" lon="-2.093005"><ele>285.000000</ele><time>2010-04-07T10:10:13Z</time></trkpt>
	<trkpt lat="51.83691333" lon="-2.092983333"><ele>284.000000</ele><time>2010-04-07T10:10:18Z</time></trkpt>
	<trkpt lat="51.83689167" lon="-2.092976667"><ele>284.000000</ele><time>2010-04-07T10:10:23Z</time></trkpt>
	<trkpt lat="51.83689" lon="-2.09298"><ele>284.000000</ele><time>2010-04-07T10:10:28Z</time></trkpt>
	<trkpt lat="51.83689167" lon="-2.09298"><ele>283.000000</ele><time>2010-04-07T10:10:33Z</time></trkpt>
	<trkpt lat="51.836895" lon="-2.092981667"><ele>283.000000</ele><time>2010-04-07T10:10:38Z</time></trkpt>
	<trkpt lat="51.836895" lon="-2.09298"><ele>283.000000</ele><time>2010-04-07T10:10:43Z</time></trkpt>
	<trkpt lat="51.8369" lon="-2.092985"><ele>283.000000</ele><time>2010-04-07T10:10:48Z</time></trkpt>
	<trkpt lat="51.83690167" lon="-2.092988333"><ele>284.000000</ele><time>2010-04-07T10:10:53Z</time></trkpt>
	<trkpt lat="51.83691833" lon="-2.092998333"><ele>284.000000</ele><time>2010-04-07T10:10:58Z</time></trkpt>
	<trkpt lat="51.83692" lon="-2.093003333"><ele>284.000000</ele><time>2010-04-07T10:11:03Z</time></trkpt>
	<trkpt lat="51.83692167" lon="-2.093005"><ele>284.000000</ele><time>2010-04-07T10:11:08Z</time></trkpt>
	<trkpt lat="51.83692333" lon="-2.093008333"><ele>284.000000</ele><time>2010-04-07T10:11:13Z</time></trkpt>
	<trkpt lat="51.83692333" lon="-2.093008333"><ele>284.000000</ele><time>2010-04-07T10:11:18Z</time></trkpt>
	<trkpt lat="51.83692333" lon="-2.093008333"><ele>284.000000</ele><time>2010-04-07T10:11:23Z</time></trkpt>
	<trkpt lat="51.83692333" lon="-2.093008333"><ele>284.000000</ele><time>2010-04-07T10:11:28Z</time></trkpt>
	<trkpt lat="51.83692333" lon="-2.093008333"><ele>284.000000</ele><time>2010-04-07T10:11:33Z</time></trkpt>
	<trkpt lat="51.83692167" lon="-2.093006667"><ele>283.000000</ele><time>2010-04-07T10:11:38Z</time></trkpt>
	<trkpt lat="51.83692" lon="-2.093006667"><ele>284.000000</ele><time>2010-04-07T10:11:43Z</time></trkpt>
	<trkpt lat="51.83691833" lon="-2.093005"><ele>284.000000</ele><time>2010-04-07T10:11:48Z</time></trkpt>
	<trkpt lat="51.83691833" lon="-2.093005"><ele>283.000000</ele><time>2010-04-07T10:11:53Z</time></trkpt>
	<trkpt lat="51.836915" lon="-2.09301"><ele>283.000000</ele><time>2010-04-07T10:11:58Z</time></trkpt>
	<trkpt lat="51.83691667" lon="-2.093008333"><ele>283.000000</ele><time>2010-04-07T10:12:03Z</time></trkpt>
	<trkpt lat="51.83691667" lon="-2.093003333"><ele>282.000000</ele><time>2010-04-07T10:12:08Z</time></trkpt>
	<trkpt lat="51.83692" lon="-2.092995"><ele>282.000000</ele><time>2010-04-07T10:12:13Z</time></trkpt>
	<trkpt lat="51.83692167" lon="-2.092983333"><ele>285.000000</ele><time>2010-04-07T10:12:18Z</time></trkpt>
	<trkpt lat="51.83692333" lon="-2.092971667"><ele>287.000000</ele><time>2010-04-07T10:12:23Z</time></trkpt>
	<trkpt lat="51.836925" lon="-2.092971667"><ele>287.000000</ele><time>2010-04-07T10:12:28Z</time></trkpt>
	<trkpt lat="51.836925" lon="-2.092966667"><ele>287.000000</ele><time>2010-04-07T10:12:33Z</time></trkpt>
	<trkpt lat="51.83692333" lon="-2.092965"><ele>287.000000</ele><time>2010-04-07T10:12:38Z</time></trkpt>
	<trkpt lat="51.836925" lon="-2.09296"><ele>287.000000</ele><time>2010-04-07T10:12:43Z</time></trkpt>
	<trkpt lat="51.83693" lon="-2.092965"><ele>288.000000</ele><time>2010-04-07T10:12:48Z</time></trkpt>
	<trkpt lat="51.83693167" lon="-2.092968333"><ele>287.000000</ele><time>2010-04-07T10:12:53Z</time></trkpt>
	<trkpt lat="51.83693333" lon="-2.092968333"><ele>288.000000</ele><time>2010-04-07T10:12:58Z</time></trkpt>
	<trkpt lat="51.836935" lon="-2.092968333"><ele>288.000000</ele><time>2010-04-07T10:13:03Z</time></trkpt>
	<trkpt lat="51.83692667" lon="-2.092998333"><ele>285.000000</ele><time>2010-04-07T10:13:08Z</time></trkpt>
	<trkpt lat="51.83692167" lon="-2.093015"><ele>283.000000</ele><time>2010-04-07T10:13:13Z</time></trkpt>
	<trkpt lat="51.83691833" lon="-2.093011667"><ele>284.000000</ele><time>2010-04-07T10:13:18Z</time></trkpt>
	<trkpt lat="51.83692" lon="-2.093005"><ele>285.000000</ele><time>2010-04-07T10:13:23Z</time></trkpt>
	<trkpt lat="51.83691667" lon="-2.093006667"><ele>283.000000</ele><time>2010-04-07T10:13:28Z</time></trkpt>
	<trkpt lat="51.836915" lon="-2.09301"><ele>282.000000</ele><time>2010-04-07T10:13:33Z</time></trkpt>
	<trkpt lat="51.83691667" lon="-2.093008333"><ele>282.000000</ele><time>2010-04-07T10:13:38Z</time></trkpt>
	<trkpt lat="51.83691167" lon="-2.093028333"><ele>275.000000</ele><time>2010-04-07T10:13:43Z</time></trkpt>
	<trkpt lat="51.83691" lon="-2.093036667"><ele>271.000000</ele><time>2010-04-07T10:13:48Z</time></trkpt>
	<trkpt lat="51.83691333" lon="-2.093041667"><ele>271.000000</ele><time>2010-04-07T10:13:53Z</time></trkpt>
	<trkpt lat="51.83691333" lon="-2.093051667"><ele>270.000000</ele><time>2010-04-07T10:13:58Z</time></trkpt>
	<trkpt lat="51.83691167" lon="-2.09305"><ele>271.000000</ele><time>2010-04-07T10:14:03Z</time></trkpt>
	<trkpt lat="51.83690833" lon="-2.093055"><ele>271.000000</ele><time>2010-04-07T10:14:08Z</time></trkpt>
	<trkpt lat="51.83690667" lon="-2.093056667"><ele>272.000000</ele><time>2010-04-07T10:14:13Z</time></trkpt>
	<trkpt lat="51.83690667" lon="-2.093056667"><ele>272.000000</ele><time>2010-04-07T10:14:18Z</time></trkpt>
	<trkpt lat="51.836905" lon="-2.09306"><ele>273.000000</ele><time>2010-04-07T10:14:23Z</time></trkpt>
	<trkpt lat="51.83690333" lon="-2.09306"><ele>273.000000</ele><time>2010-04-07T10:14:28Z</time></trkpt>
	<trkpt lat="51.83690167" lon="-2.09306"><ele>273.000000</ele><time>2010-04-07T10:14:33Z</time></trkpt>
	<trkpt lat="51.8369" lon="-2.09306"><ele>274.000000</ele><time>2010-04-07T10:14:38Z</time></trkpt>
	<trkpt lat="51.83690167" lon="-2.093056667"><ele>274.000000</ele><time>2010-04-07T10:14:43Z</time></trkpt>
	<trkpt lat="51.83690167" lon="-2.093056667"><ele>273.000000</ele><time>2010-04-07T10:14:48Z</time></trkpt>
	<trkpt lat="51.83690333" lon="-2.09306"><ele>273.000000</ele><time>2010-04-07T10:14:53Z</time></trkpt>
	<trkpt lat="51.836905" lon="-2.09306"><ele>273.000000</ele><time>2010-04-07T10:14:58Z</time></trkpt>
	<trkpt lat="51.83690667" lon="-2.093056667"><ele>273.000000</ele><time>2010-04-07T10:15:03Z</time></trkpt>
	<trkpt lat="51.83690833" lon="-2.093056667"><ele>274.000000</ele><time>2010-04-07T10:15:08Z</time></trkpt>
	<trkpt lat="51.83691" lon="-2.093056667"><ele>274.000000</ele><time>2010-04-07T10:15:13Z</time></trkpt>
	<trkpt lat="51.83691" lon="-2.093055"><ele>274.000000</ele><time>2010-04-07T10:15:18Z</time></trkpt>
	<trkpt lat="51.83691167" lon="-2.093055"><ele>275.000000</ele><time>2010-04-07T10:15:23Z</time></trkpt>
	<trkpt lat="51.83691333" lon="-2.093051667"><ele>275.000000</ele><time>2010-04-07T10:15:28Z</time></trkpt>
	<trkpt lat="51.836915" lon="-2.09305"><ele>275.000000</ele><time>2010-04-07T10:15:33Z</time></trkpt>
	<trkpt lat="51.83691833" lon="-2.093048333"><ele>275.000000</ele><time>2010-04-07T10:15:38Z</time></trkpt>
	<trkpt lat="51.83691833" lon="-2.093048333"><ele>275.000000</ele><time>2010-04-07T10:15:43Z</time></trkpt>
	<trkpt lat="51.83692" lon="-2.093048333"><ele>275.000000</ele><time>2010-04-07T10:15:48Z</time></trkpt>
	<trkpt lat="51.83692167" lon="-2.093048333"><ele>275.000000</ele><time>2010-04-07T10:15:53Z</time></trkpt>
	<trkpt lat="51.83692" lon="-2.093051667"><ele>276.000000</ele><time>2010-04-07T10:15:58Z</time></trkpt>
	<trkpt lat="51.83691833" lon="-2.093055"><ele>276.000000</ele><time>2010-04-07T10:16:03Z</time></trkpt>
	<trkpt lat="51.83692" lon="-2.093055"><ele>277.000000</ele><time>2010-04-07T10:16:08Z</time></trkpt>
	<trkpt lat="51.83692333" lon="-2.093048333"><ele>278.000000</ele><time>2010-04-07T10:16:13Z</time></trkpt>
	<trkpt lat="51.836925" lon="-2.093043333"><ele>279.000000</ele><time>2010-04-07T10:16:18Z</time></trkpt>
	<trkpt lat="51.83692667" lon="-2.09304"><ele>279.000000</ele><time>2010-04-07T10:16:23Z</time></trkpt>
	<trkpt lat="51.83692833" lon="-2.093038333"><ele>280.000000</ele><time>2010-04-07T10:16:28Z</time></trkpt>
	<trkpt lat="51.83692833" lon="-2.09304"><ele>280.000000</ele><time>2010-04-07T10:16:33Z</time></trkpt>
	<trkpt lat="51.83693" lon="-2.09304"><ele>280.000000</ele><time>2010-04-07T10:16:38Z</time></trkpt>
	<trkpt lat="51.83693167" lon="-2.093041667"><ele>280.000000</ele><time>2010-04-07T10:16:43Z</time></trkpt>
	<trkpt lat="51.83693333" lon="-2.093041667"><ele>280.000000</ele><time>2010-04-07T10:16:48Z</time></trkpt>
	<trkpt lat="51.83693333" lon="-2.093043333"><ele>280.000000</ele><time>2010-04-07T10:16:53Z</time></trkpt>
	<trkpt lat="51.836935" lon="-2.093045"><ele>279.000000</ele><time>2010-04-07T10:16:58Z</time></trkpt>
	<trkpt lat="51.836935" lon="-2.093043333"><ele>279.000000</ele><time>2010-04-07T10:17:03Z</time></trkpt>
	<trkpt lat="51.83693667" lon="-2.093043333"><ele>279.000000</ele><time>2010-04-07T10:17:08Z</time></trkpt>
	<trkpt lat="51.83693667" lon="-2.093041667"><ele>278.000000</ele><time>2010-04-07T10:17:13Z</time></trkpt>
	<trkpt lat="51.83693667" lon="-2.093041667"><ele>278.000000</ele><time>2010-04-07T10:17:18Z</time></trkpt>
	<trkpt lat="51.83693667" lon="-2.093041667"><ele>278.000000</ele><time>2010-04-07T10:17:23Z</time></trkpt>
	<trkpt lat="51.83693667" lon="-2.093041667"><ele>277.000000</ele><time>2010-04-07T10:17:28Z</time></trkpt>
	<trkpt lat="51.836935" lon="-2.093045"><ele>277.000000</ele><time>2010-04-07T10:17:33Z</time></trkpt>
	<trkpt lat="51.83693333" lon="-2.09305"><ele>278.000000</ele><time>2010-04-07T10:17:38Z</time></trkpt>
	<trkpt lat="51.83693" lon="-2.093055"><ele>278.000000</ele><time>2010-04-07T10:17:43Z</time></trkpt>
	<trkpt lat="51.83693167" lon="-2.093056667"><ele>278.000000</ele><time>2010-04-07T10:17:48Z</time></trkpt>
	<trkpt lat="51.83693" lon="-2.093063333"><ele>279.000000</ele><time>2010-04-07T10:17:53Z</time></trkpt>
	<trkpt lat="51.83692833" lon="-2.093068333"><ele>281.000000</ele><time>2010-04-07T10:17:58Z</time></trkpt>
	<trkpt lat="51.83692667" lon="-2.093071667"><ele>283.000000</ele><time>2010-04-07T10:18:03Z</time></trkpt>
	<trkpt lat="51.83692667" lon="-2.093071667"><ele>285.000000</ele><time>2010-04-07T10:18:08Z</time></trkpt>
	<trkpt lat="51.83692833" lon="-2.093075"><ele>284.000000</ele><time>2010-04-07T10:18:13Z</time></trkpt>
	<trkpt lat="51.83692833" lon="-2.09308"><ele>283.000000</ele><time>2010-04-07T10:18:18Z</time></trkpt>
	<trkpt lat="51.83692833" lon="-2.093083333"><ele>281.000000</ele><time>2010-04-07T10:18:23Z</time></trkpt>
	<trkpt lat="51.83692667" lon="-2.093081667"><ele>280.000000</ele><time>2010-04-07T10:18:28Z</time></trkpt>
	<trkpt lat="51.836925" lon="-2.093081667"><ele>278.000000</ele><time>2010-04-07T10:18:33Z</time></trkpt>
	<trkpt lat="51.83692167" lon="-2.093076667"><ele>276.000000</ele><time>2010-04-07T10:18:38Z</time></trkpt>
	<trkpt lat="51.83692" lon="-2.093078333"><ele>275.000000</ele><time>2010-04-07T10:18:43Z</time></trkpt>
	<trkpt lat="51.83692167" lon="-2.093071667"><ele>274.000000</ele><time>2010-04-07T10:18:48Z</time></trkpt>
	<trkpt lat="51.83692167" lon="-2.093071667"><ele>274.000000</ele><time>2010-04-07T10:18:53Z</time></trkpt>
	<trkpt lat="51.83692167" lon="-2.09307"><ele>273.000000</ele><time>2010-04-07T10:18:58Z</time></trkpt>
	<trkpt lat="51.83692167" lon="-2.09307"><ele>273.000000</ele><time>2010-04-07T10:19:03Z</time></trkpt>
	<trkpt lat="51.83692167" lon="-2.09307"><ele>273.000000</ele><time>2010-04-07T10:19:08Z</time></trkpt>
	<trkpt lat="51.83692167" lon="-2.09307"><ele>273.000000</ele><time>2010-04-07T10:19:13Z</time></trkpt>
	<trkpt lat="51.836925" lon="-2.093068333"><ele>274.000000</ele><time>2010-04-07T10:19:18Z</time></trkpt>
	<trkpt lat="51.836925" lon="-2.093066667"><ele>274.000000</ele><time>2010-04-07T10:19:23Z</time></trkpt>
	<trkpt lat="51.83692833" lon="-2.09306"><ele>273.000000</ele><time>2010-04-07T10:19:28Z</time></trkpt>
	<trkpt lat="51.83693" lon="-2.093051667"><ele>273.000000</ele><time>2010-04-07T10:19:33Z</time></trkpt>
	<trkpt lat="51.83693" lon="-2.093048333"><ele>272.000000</ele><time>2010-04-07T10:19:38Z</time></trkpt>
	<trkpt lat="51.83693" lon="-2.093043333"><ele>272.000000</ele><time>2010-04-07T10:19:43Z</time></trkpt>
	<trkpt lat="51.83693" lon="-2.093041667"><ele>271.000000</ele><time>2010-04-07T10:19:48Z</time></trkpt>
	<trkpt lat="51.83693167" lon="-2.093038333"><ele>271.000000</ele><time>2010-04-07T10:19:53Z</time></trkpt>
	<trkpt lat="51.83693167" lon="-2.093035"><ele>271.000000</ele><time>2010-04-07T10:19:58Z</time></trkpt>
	<trkpt lat="51.83693" lon="-2.093033333"><ele>271.000000</ele><time>2010-04-07T10:20:03Z</time></trkpt>
	<trkpt lat="51.83693" lon="-2.093028333"><ele>271.000000</ele><time>2010-04-07T10:20:08Z</time></trkpt>
	<trkpt lat="51.83693167" lon="-2.093026667"><ele>271.000000</ele><time>2010-04-07T10:20:13Z</time></trkpt>
	<trkpt lat="51.836935" lon="-2.093026667"><ele>275.000000</ele><time>2010-04-07T10:20:18Z</time></trkpt>
	<trkpt lat="51.83693333" lon="-2.093023333"><ele>275.000000</ele><time>2010-04-07T10:20:23Z</time></trkpt>
	<trkpt lat="51.83693167" lon="-2.093023333"><ele>276.000000</ele><time>2010-04-07T10:20:28Z</time></trkpt>
	<trkpt lat="51.83693" lon="-2.093025"><ele>276.000000</ele><time>2010-04-07T10:20:33Z</time></trkpt>
	<trkpt lat="51.83693" lon="-2.093026667"><ele>277.000000</ele><time>2010-04-07T10:20:38Z</time></trkpt>
	<trkpt lat="51.83692667" lon="-2.093028333"><ele>277.000000</ele><time>2010-04-07T10:20:43Z</time></trkpt>
	<trkpt lat="51.83692667" lon="-2.093035"><ele>278.000000</ele><time>2010-04-07T10:20:48Z</time></trkpt>
	<trkpt lat="51.83692667" lon="-2.093038333"><ele>278.000000</ele><time>2010-04-07T10:20:53Z</time></trkpt>
	<trkpt lat="51.83692667" lon="-2.09304"><ele>279.000000</ele><time>2010-04-07T10:20:58Z</time></trkpt>
	<trkpt lat="51.83692667" lon="-2.093043333"><ele>279.000000</ele><time>2010-04-07T10:21:03Z</time></trkpt>
	<trkpt lat="51.83692667" lon="-2.093045"><ele>279.000000</ele><time>2010-04-07T10:21:08Z</time></trkpt>
	<trkpt lat="51.836925" lon="-2.093048333"><ele>278.000000</ele><time>2010-04-07T10:21:13Z</time></trkpt>
	<trkpt lat="51.83692333" lon="-2.093055"><ele>279.000000</ele><time>2010-04-07T10:21:18Z</time></trkpt>
	<trkpt lat="51.83692167" lon="-2.093053333"><ele>280.000000</ele><time>2010-04-07T10:21:23Z</time></trkpt>
	<trkpt lat="51.83692" lon="-2.09305"><ele>281.000000</ele><time>2010-04-07T10:21:28Z</time></trkpt>
	<trkpt lat="51.83691833" lon="-2.09305"><ele>282.000000</ele><time>2010-04-07T10:21:33Z</time></trkpt>
	<trkpt lat="51.83691667" lon="-2.09305"><ele>284.000000</ele><time>2010-04-07T10:21:38Z</time></trkpt>
	<trkpt lat="51.83691333" lon="-2.09305"><ele>285.000000</ele><time>2010-04-07T10:21:43Z</time></trkpt>
	<trkpt lat="51.83691" lon="-2.093051667"><ele>287.000000</ele><time>2010-04-07T10:21:48Z</time></trkpt>
	<trkpt lat="51.836905" lon="-2.093053333"><ele>288.000000</ele><time>2010-04-07T10:21:53Z</time></trkpt>
	<trkpt lat="51.83690333" lon="-2.093055"><ele>290.000000</ele><time>2010-04-07T10:21:58Z</time></trkpt>
	<trkpt lat="51.83690167" lon="-2.093056667"><ele>291.000000</ele><time>2010-04-07T10:22:03Z</time></trkpt>
	<trkpt lat="51.8369" lon="-2.093056667"><ele>292.000000</ele><time>2010-04-07T10:22:08Z</time></trkpt>
	<trkpt lat="51.83689167" lon="-2.093068333"><ele>295.000000</ele><time>2010-04-07T10:22:13Z</time></trkpt>
	<trkpt lat="51.836895" lon="-2.093061667"><ele>294.000000</ele><time>2010-04-07T10:22:18Z</time></trkpt>
	<trkpt lat="51.83689667" lon="-2.093056667"><ele>293.000000</ele><time>2010-04-07T10:22:23Z</time></trkpt>
	<trkpt lat="51.836895" lon="-2.093056667"><ele>294.000000</ele><time>2010-04-07T10:22:28Z</time></trkpt>
	<trkpt lat="51.83689667" lon="-2.093053333"><ele>293.000000</ele><time>2010-04-07T10:22:33Z</time></trkpt>
	<trkpt lat="51.83689667" lon="-2.093055"><ele>293.000000</ele><time>2010-04-07T10:22:38Z</time></trkpt>
	<trkpt lat="51.83689667" lon="-2.093056667"><ele>293.000000</ele><time>2010-04-07T10:22:43Z</time></trkpt>
	<trkpt lat="51.83689667" lon="-2.093056667"><ele>293.000000</ele><time>2010-04-07T10:22:48Z</time></trkpt>
	<trkpt lat="51.836895" lon="-2.093055"><ele>293.000000</ele><time>2010-04-07T10:22:53Z</time></trkpt>
	<trkpt lat="51.836895" lon="-2.093055"><ele>293.000000</ele><time>2010-04-07T10:22:58Z</time></trkpt>
	<trkpt lat="51.836895" lon="-2.093055"><ele>292.000000</ele><time>2010-04-07T10:23:03Z</time></trkpt>
	<trkpt lat="51.836895" lon="-2.093061667"><ele>289.000000</ele><time>2010-04-07T10:23:08Z</time></trkpt>
	<trkpt lat="51.83689833" lon="-2.093065"><ele>287.000000</ele><time>2010-04-07T10:23:13Z</time></trkpt>
	<trkpt lat="51.8369" lon="-2.093065"><ele>284.000000</ele><time>2010-04-07T10:23:18Z</time></trkpt>
	<trkpt lat="51.8369" lon="-2.093068333"><ele>283.000000</ele><time>2010-04-07T10:23:23Z</time></trkpt>
	<trkpt lat="51.8369" lon="-2.09307"><ele>281.000000</ele><time>2010-04-07T10:23:28Z</time></trkpt>
	<trkpt lat="51.8369" lon="-2.09307"><ele>280.000000</ele><time>2010-04-07T10:23:33Z</time></trkpt>
	<trkpt lat="51.83690167" lon="-2.09307"><ele>279.000000</ele><time>2010-04-07T10:23:38Z</time></trkpt>
	<trkpt lat="51.83690167" lon="-2.093071667"><ele>278.000000</ele><time>2010-04-07T10:23:43Z</time></trkpt>
	<trkpt lat="51.8369" lon="-2.093075"><ele>278.000000</ele><time>2010-04-07T10:23:48Z</time></trkpt>
	<trkpt lat="51.8369" lon="-2.093075"><ele>278.000000</ele><time>2010-04-07T10:23:53Z</time></trkpt>
	<trkpt lat="51.83690167" lon="-2.093075"><ele>278.000000</ele><time>2010-04-07T10:23:58Z</time></trkpt>
	<trkpt lat="51.836905" lon="-2.093071667"><ele>278.000000</ele><time>2010-04-07T10:24:03Z</time></trkpt>
	<trkpt lat="51.83690833" lon="-2.093068333"><ele>278.000000</ele><time>2010-04-07T10:24:08Z</time></trkpt>
	<trkpt lat="51.83690667" lon="-2.093076667"><ele>278.000000</ele><time>2010-04-07T10:24:13Z</time></trkpt>
	<trkpt lat="51.836915" lon="-2.093043333"><ele>281.000000</ele><time>2010-04-07T10:24:18Z</time></trkpt>
	<trkpt lat="51.83691333" lon="-2.09305"><ele>279.000000</ele><time>2010-04-07T10:24:23Z</time></trkpt>
	<trkpt lat="51.83691667" lon="-2.093036667"><ele>281.000000</ele><time>2010-04-07T10:24:28Z</time></trkpt>
	<trkpt lat="51.83692" lon="-2.093015"><ele>285.000000</ele><time>2010-04-07T10:24:33Z</time></trkpt>
	<trkpt lat="51.83692167" lon="-2.093"><ele>287.000000</ele><time>2010-04-07T10:24:38Z</time></trkpt>
	<trkpt lat="51.83691833" lon="-2.093028333"><ele>282.000000</ele><time>2010-04-07T10:24:43Z</time></trkpt>
	<trkpt lat="51.83692167" lon="-2.093013333"><ele>284.000000</ele><time>2010-04-07T10:24:48Z</time></trkpt>
	<trkpt lat="51.83692" lon="-2.093023333"><ele>283.000000</ele><time>2010-04-07T10:24:53Z</time></trkpt>
	<trkpt lat="51.83691667" lon="-2.093033333"><ele>281.000000</ele><time>2010-04-07T10:24:58Z</time></trkpt>
	<trkpt lat="51.83691833" lon="-2.093026667"><ele>282.000000</ele><time>2010-04-07T10:25:03Z</time></trkpt>
	<trkpt lat="51.836915" lon="-2.093038333"><ele>279.000000</ele><time>2010-04-07T10:25:08Z</time></trkpt>
	<trkpt lat="51.836915" lon="-2.093035"><ele>279.000000</ele><time>2010-04-07T10:25:13Z</time></trkpt>
	<trkpt lat="51.83691167" lon="-2.093035"><ele>278.000000</ele><time>2010-04-07T10:25:18Z</time></trkpt>
	<trkpt lat="51.83691667" lon="-2.093023333"><ele>281.000000</ele><time>2010-04-07T10:25:23Z</time></trkpt>
	<trkpt lat="51.83691667" lon="-2.093023333"><ele>282.000000</ele><time>2010-04-07T10:25:28Z</time></trkpt>
	<trkpt lat="51.83692167" lon="-2.093018333"><ele>281.000000</ele><time>2010-04-07T10:25:33Z</time></trkpt>
	<trkpt lat="51.83692" lon="-2.093023333"><ele>280.000000</ele><time>2010-04-07T10:25:38Z</time></trkpt>
	<trkpt lat="51.83692333" lon="-2.093025"><ele>282.000000</ele><time>2010-04-07T10:25:43Z</time></trkpt>
	<trkpt lat="51.83692167" lon="-2.093028333"><ele>281.000000</ele><time>2010-04-07T10:25:48Z</time></trkpt>
	<trkpt lat="51.83692" lon="-2.093033333"><ele>280.000000</ele><time>2010-04-07T10:25:53Z</time></trkpt>
	<trkpt lat="51.83691667" lon="-2.093031667"><ele>280.000000</ele><time>2010-04-07T10:25:58Z</time></trkpt>
	<trkpt lat="51.83691667" lon="-2.093031667"><ele>281.000000</ele><time>2010-04-07T10:26:03Z</time></trkpt>
	<trkpt lat="51.83692" lon="-2.093036667"><ele>283.000000</ele><time>2010-04-07T10:26:08Z</time></trkpt>
	<trkpt lat="51.83693" lon="-2.093013333"><ele>283.000000</ele><time>2010-04-07T10:26:13Z</time></trkpt>
	<trkpt lat="51.83693667" lon="-2.093008333"><ele>285.000000</ele><time>2010-04-07T10:26:18Z</time></trkpt>
	<trkpt lat="51.836945" lon="-2.09299"><ele>288.000000</ele><time>2010-04-07T10:26:23Z</time></trkpt>
	<trkpt lat="51.836945" lon="-2.092981667"><ele>290.000000</ele><time>2010-04-07T10:26:28Z</time></trkpt>
	<trkpt lat="51.83694833" lon="-2.09296"><ele>292.000000</ele><time>2010-04-07T10:26:33Z</time></trkpt>
	<trkpt lat="51.83694833" lon="-2.092953333"><ele>293.000000</ele><time>2010-04-07T10:26:38Z</time></trkpt>
	<trkpt lat="51.83694167" lon="-2.092956667"><ele>292.000000</ele><time>2010-04-07T10:26:43Z</time></trkpt>
	<trkpt lat="51.83691167" lon="-2.09296"><ele>290.000000</ele><time>2010-04-07T10:26:48Z</time></trkpt>
	<trkpt lat="51.83690833" lon="-2.092963333"><ele>289.000000</ele><time>2010-04-07T10:26:53Z</time></trkpt>
	<trkpt lat="51.83690833" lon="-2.092963333"><ele>289.000000</ele><time>2010-04-07T10:26:58Z</time></trkpt>
	<trkpt lat="51.83690667" lon="-2.092971667"><ele>288.000000</ele><time>2010-04-07T10:27:03Z</time></trkpt>
	<trkpt lat="51.83690667" lon="-2.092988333"><ele>286.000000</ele><time>2010-04-07T10:27:08Z</time></trkpt>
	<trkpt lat="51.83690167" lon="-2.092988333"><ele>286.000000</ele><time>2010-04-07T10:27:13Z</time></trkpt>
	<trkpt lat="51.8369" lon="-2.092995"><ele>286.000000</ele><time>2010-04-07T10:27:18Z</time></trkpt>
	<trkpt lat="51.83689833" lon="-2.093"><ele>286.000000</ele><time>2010-04-07T10:27:23Z</time></trkpt>
	<trkpt lat="51.8369" lon="-2.093003333"><ele>286.000000</ele><time>2010-04-07T10:27:28Z</time></trkpt>
	<trkpt lat="51.8369" lon="-2.093006667"><ele>285.000000</ele><time>2010-04-07T10:27:33Z</time></trkpt>
	<trkpt lat="51.83687667" lon="-2.09297"><ele>285.000000</ele><time>2010-04-07T10:27:38Z</time></trkpt>
	<trkpt lat="51.83684" lon="-2.092935"><ele>286.000000</ele><time>2010-04-07T10:27:43Z</time></trkpt>
	<trkpt lat="51.8368" lon="-2.092903333"><ele>286.000000</ele><time>2010-04-07T10:27:48Z</time></trkpt>
	<trkpt lat="51.83676167" lon="-2.092865"><ele>285.000000</ele><time>2010-04-07T10:27:53Z</time></trkpt>
	<trkpt lat="51.83670833" lon="-2.092816667"><ele>286.000000</ele><time>2010-04-07T10:27:58Z</time></trkpt>
	<trkpt lat="51.83665667" lon="-2.092791667"><ele>287.000000</ele><time>2010-04-07T10:28:03Z</time></trkpt>
	<trkpt lat="51.83660333" lon="-2.092771667"><ele>287.000000</ele><time>2010-04-07T10:28:08Z</time></trkpt>
	<trkpt lat="51.83655" lon="-2.092751667"><ele>287.000000</ele><time>2010-04-07T10:28:13Z</time></trkpt>
	<trkpt lat="51.83649833" lon="-2.092733333"><ele>287.000000</ele><time>2010-04-07T10:28:18Z</time></trkpt>
	<trkpt lat="51.83644833" lon="-2.09272"><ele>286.000000</ele><time>2010-04-07T10:28:23Z</time></trkpt>
	<trkpt lat="51.83639333" lon="-2.0927"><ele>286.000000</ele><time>2010-04-07T10:28:28Z</time></trkpt>
	<trkpt lat="51.83633833" lon="-2.09268"><ele>286.000000</ele><time>2010-04-07T10:28:33Z</time></trkpt>
	<trkpt lat="51.83628167" lon="-2.092663333"><ele>286.000000</ele><time>2010-04-07T10:28:38Z</time></trkpt>
	<trkpt lat="51.836235" lon="-2.092646667"><ele>286.000000</ele><time>2010-04-07T10:28:43Z</time></trkpt>
	<trkpt lat="51.83618" lon="-2.092631667"><ele>286.000000</ele><time>2010-04-07T10:28:48Z</time></trkpt>
	<trkpt lat="51.83612333" lon="-2.092626667"><ele>285.000000</ele><time>2010-04-07T10:28:53Z</time></trkpt>
	<trkpt lat="51.83607167" lon="-2.092623333"><ele>284.000000</ele><time>2010-04-07T10:28:58Z</time></trkpt>
	<trkpt lat="51.83601333" lon="-2.092613333"><ele>284.000000</ele><time>2010-04-07T10:29:03Z</time></trkpt>
	<trkpt lat="51.835955" lon="-2.0926"><ele>285.000000</ele><time>2010-04-07T10:29:08Z</time></trkpt>
	<trkpt lat="51.83589333" lon="-2.092586667"><ele>285.000000</ele><time>2010-04-07T10:29:13Z</time></trkpt>
	<trkpt lat="51.83583667" lon="-2.09258"><ele>285.000000</ele><time>2010-04-07T10:29:18Z</time></trkpt>
	<trkpt lat="51.835775" lon="-2.092565"><ele>285.000000</ele><time>2010-04-07T10:29:23Z</time></trkpt>
	<trkpt lat="51.83572" lon="-2.09256"><ele>284.000000</ele><time>2010-04-07T10:29:28Z</time></trkpt>
	<trkpt lat="51.83566667" lon="-2.092546667"><ele>283.000000</ele><time>2010-04-07T10:29:33Z</time></trkpt>
	<trkpt lat="51.83561667" lon="-2.092543333"><ele>283.000000</ele><time>2010-04-07T10:29:38Z</time></trkpt>
	<trkpt lat="51.835565" lon="-2.092528333"><ele>282.000000</ele><time>2010-04-07T10:29:43Z</time></trkpt>
	<trkpt lat="51.83551333" lon="-2.092528333"><ele>281.000000</ele><time>2010-04-07T10:29:48Z</time></trkpt>
	<trkpt lat="51.83546167" lon="-2.092518333"><ele>281.000000</ele><time>2010-04-07T10:29:53Z</time></trkpt>
	<trkpt lat="51.83541" lon="-2.09251"><ele>281.000000</ele><time>2010-04-07T10:29:58Z</time></trkpt>
	<trkpt lat="51.83536" lon="-2.092498333"><ele>280.000000</ele><time>2010-04-07T10:30:03Z</time></trkpt>
	<trkpt lat="51.8353" lon="-2.092483333"><ele>281.000000</ele><time>2010-04-07T10:30:08Z</time></trkpt>
	<trkpt lat="51.83524333" lon="-2.092463333"><ele>281.000000</ele><time>2010-04-07T10:30:13Z</time></trkpt>
	<trkpt lat="51.83518667" lon="-2.092443333"><ele>281.000000</ele><time>2010-04-07T10:30:18Z</time></trkpt>
	<trkpt lat="51.835135" lon="-2.092425"><ele>281.000000</ele><time>2010-04-07T10:30:23Z</time></trkpt>
	<trkpt lat="51.83508833" lon="-2.0924"><ele>281.000000</ele><time>2010-04-07T10:30:28Z</time></trkpt>
	<trkpt lat="51.83506667" lon="-2.09237"><ele>280.000000</ele><time>2010-04-07T10:30:33Z</time></trkpt>
	<trkpt lat="51.83503167" lon="-2.092351667"><ele>280.000000</ele><time>2010-04-07T10:30:38Z</time></trkpt>
	<trkpt lat="51.83498833" lon="-2.092305"><ele>280.000000</ele><time>2010-04-07T10:30:43Z</time></trkpt>
	<trkpt lat="51.834935" lon="-2.092248333"><ele>281.000000</ele><time>2010-04-07T10:30:48Z</time></trkpt>
	<trkpt lat="51.83488833" lon="-2.092201667"><ele>281.000000</ele><time>2010-04-07T10:30:53Z</time></trkpt>
	<trkpt lat="51.834835" lon="-2.092171667"><ele>281.000000</ele><time>2010-04-07T10:30:58Z</time></trkpt>
	<trkpt lat="51.83479167" lon="-2.092158333"><ele>279.000000</ele><time>2010-04-07T10:31:03Z</time></trkpt>
	<trkpt lat="51.83473333" lon="-2.092118333"><ele>279.000000</ele><time>2010-04-07T10:31:08Z</time></trkpt>
	<trkpt lat="51.83467667" lon="-2.092085"><ele>280.000000</ele><time>2010-04-07T10:31:13Z</time></trkpt>
	<trkpt lat="51.834625" lon="-2.092058333"><ele>279.000000</ele><time>2010-04-07T10:31:18Z</time></trkpt>
	<trkpt lat="51.83458833" lon="-2.09203"><ele>278.000000</ele><time>2010-04-07T10:31:23Z</time></trkpt>
	<trkpt lat="51.83455333" lon="-2.091995"><ele>277.000000</ele><time>2010-04-07T10:31:28Z</time></trkpt>
	<trkpt lat="51.83452667" lon="-2.091971667"><ele>275.000000</ele><time>2010-04-07T10:31:33Z</time></trkpt>
	<trkpt lat="51.83448833" lon="-2.091923333"><ele>274.000000</ele><time>2010-04-07T10:31:38Z</time></trkpt>
	<trkpt lat="51.834445" lon="-2.091871667"><ele>274.000000</ele><time>2010-04-07T10:31:43Z</time></trkpt>
	<trkpt lat="51.83441167" lon="-2.091836667"><ele>274.000000</ele><time>2010-04-07T10:31:48Z</time></trkpt>
	<trkpt lat="51.83438333" lon="-2.091801667"><ele>274.000000</ele><time>2010-04-07T10:31:53Z</time></trkpt>
	<trkpt lat="51.83435" lon="-2.091773333"><ele>274.000000</ele><time>2010-04-07T10:31:58Z</time></trkpt>
	<trkpt lat="51.83430667" lon="-2.091723333"><ele>274.000000</ele><time>2010-04-07T10:32:03Z</time></trkpt>
	<trkpt lat="51.83427333" lon="-2.091695"><ele>275.000000</ele><time>2010-04-07T10:32:08Z</time></trkpt>
	<trkpt lat="51.83426" lon="-2.091691667"><ele>277.000000</ele><time>2010-04-07T10:32:13Z</time></trkpt>
	<trkpt lat="51.834265" lon="-2.091708333"><ele>277.000000</ele><time>2010-04-07T10:32:18Z</time></trkpt>
	<trkpt lat="51.83428" lon="-2.091681667"><ele>276.000000</ele><time>2010-04-07T10:32:23Z</time></trkpt>
	<trkpt lat="51.8343" lon="-2.091673333"><ele>276.000000</ele><time>2010-04-07T10:32:28Z</time></trkpt>
	<trkpt lat="51.834285" lon="-2.091665"><ele>275.000000</ele><time>2010-04-07T10:32:33Z</time></trkpt>
	<trkpt lat="51.83425" lon="-2.09162"><ele>275.000000</ele><time>2010-04-07T10:32:38Z</time></trkpt>
	<trkpt lat="51.83421667" lon="-2.091585"><ele>273.000000</ele><time>2010-04-07T10:32:43Z</time></trkpt>
	<trkpt lat="51.83417167" lon="-2.091533333"><ele>273.000000</ele><time>2010-04-07T10:32:48Z</time></trkpt>
	<trkpt lat="51.83413" lon="-2.091486667"><ele>273.000000</ele><time>2010-04-07T10:32:53Z</time></trkpt>
	<trkpt lat="51.834095" lon="-2.091453333"><ele>272.000000</ele><time>2010-04-07T10:32:58Z</time></trkpt>
	<trkpt lat="51.83405833" lon="-2.091411667"><ele>272.000000</ele><time>2010-04-07T10:33:03Z</time></trkpt>
	<trkpt lat="51.834025" lon="-2.091358333"><ele>272.000000</ele><time>2010-04-07T10:33:08Z</time></trkpt>
	<trkpt lat="51.83399833" lon="-2.091301667"><ele>272.000000</ele><time>2010-04-07T10:33:13Z</time></trkpt>
	<trkpt lat="51.833965" lon="-2.091251667"><ele>273.000000</ele><time>2010-04-07T10:33:18Z</time></trkpt>
	<trkpt lat="51.83393" lon="-2.091206667"><ele>273.000000</ele><time>2010-04-07T10:33:23Z</time></trkpt>
	<trkpt lat="51.83389833" lon="-2.091136667"><ele>273.000000</ele><time>2010-04-07T10:33:28Z</time></trkpt>
	<trkpt lat="51.833865" lon="-2.091073333"><ele>274.000000</ele><time>2010-04-07T10:33:33Z</time></trkpt>
	<trkpt lat="51.83383333" lon="-2.091008333"><ele>274.000000</ele><time>2010-04-07T10:33:38Z</time></trkpt>
	<trkpt lat="51.8338" lon="-2.09094"><ele>275.000000</ele><time>2010-04-07T10:33:43Z</time></trkpt>
	<trkpt lat="51.83377167" lon="-2.090873333"><ele>275.000000</ele><time>2010-04-07T10:33:48Z</time></trkpt>
	<trkpt lat="51.83374833" lon="-2.0908"><ele>275.000000</ele><time>2010-04-07T10:33:53Z</time></trkpt>
	<trkpt lat="51.83372333" lon="-2.09072"><ele>276.000000</ele><time>2010-04-07T10:33:58Z</time></trkpt>
	<trkpt lat="51.83370167" lon="-2.090643333"><ele>276.000000</ele><time>2010-04-07T10:34:03Z</time></trkpt>
	<trkpt lat="51.83368" lon="-2.090568333"><ele>276.000000</ele><time>2010-04-07T10:34:08Z</time></trkpt>
	<trkpt lat="51.833655" lon="-2.090503333"><ele>276.000000</ele><time>2010-04-07T10:34:13Z</time></trkpt>
	<trkpt lat="51.83363333" lon="-2.090465"><ele>276.000000</ele><time>2010-04-07T10:34:18Z</time></trkpt>
	<trkpt lat="51.83363333" lon="-2.090465"><ele>276.000000</ele><time>2010-04-07T10:34:23Z</time></trkpt>
	<trkpt lat="51.833635" lon="-2.090466667"><ele>276.000000</ele><time>2010-04-07T10:34:28Z</time></trkpt>
	<trkpt lat="51.83362833" lon="-2.09046"><ele>277.000000</ele><time>2010-04-07T10:34:33Z</time></trkpt>
	<trkpt lat="51.83362833" lon="-2.09046"><ele>277.000000</ele><time>2010-04-07T10:34:38Z</time></trkpt>
	<trkpt lat="51.83362667" lon="-2.09046"><ele>277.000000</ele><time>2010-04-07T10:34:43Z</time></trkpt>
	<trkpt lat="51.83362333" lon="-2.090431667"><ele>277.000000</ele><time>2010-04-07T10:34:48Z</time></trkpt>
	<trkpt lat="51.83361667" lon="-2.090383333"><ele>277.000000</ele><time>2010-04-07T10:34:53Z</time></trkpt>
	<trkpt lat="51.83361167" lon="-2.09035"><ele>278.000000</ele><time>2010-04-07T10:34:58Z</time></trkpt>
	<trkpt lat="51.83359833" lon="-2.090268333"><ele>279.000000</ele><time>2010-04-07T10:35:03Z</time></trkpt>
	<trkpt lat="51.83358667" lon="-2.090223333"><ele>278.000000</ele><time>2010-04-07T10:35:08Z</time></trkpt>
	<trkpt lat="51.83358833" lon="-2.090178333"><ele>278.000000</ele><time>2010-04-07T10:35:13Z</time></trkpt>
	<trkpt lat="51.83358" lon="-2.090068333"><ele>278.000000</ele><time>2010-04-07T10:35:18Z</time></trkpt>
	<trkpt lat="51.83356833" lon="-2.09001"><ele>278.000000</ele><time>2010-04-07T10:35:23Z</time></trkpt>
	<trkpt lat="51.83354333" lon="-2.089965"><ele>278.000000</ele><time>2010-04-07T10:35:28Z</time></trkpt>
	<trkpt lat="51.83350833" lon="-2.08992"><ele>278.000000</ele><time>2010-04-07T10:35:33Z</time></trkpt>
	<trkpt lat="51.83346167" lon="-2.08987"><ele>278.000000</ele><time>2010-04-07T10:35:38Z</time></trkpt>
	<trkpt lat="51.83342167" lon="-2.089825"><ele>277.000000</ele><time>2010-04-07T10:35:43Z</time></trkpt>
	<trkpt lat="51.83338667" lon="-2.089775"><ele>277.000000</ele><time>2010-04-07T10:35:48Z</time></trkpt>
	<trkpt lat="51.83335167" lon="-2.089738333"><ele>277.000000</ele><time>2010-04-07T10:35:53Z</time></trkpt>
	<trkpt lat="51.83331333" lon="-2.089696667"><ele>277.000000</ele><time>2010-04-07T10:35:58Z</time></trkpt>
	<trkpt lat="51.833275" lon="-2.089651667"><ele>277.000000</ele><time>2010-04-07T10:36:03Z</time></trkpt>
	<trkpt lat="51.83324333" lon="-2.089618333"><ele>277.000000</ele><time>2010-04-07T10:36:08Z</time></trkpt>
	<trkpt lat="51.83320667" lon="-2.089586667"><ele>277.000000</ele><time>2010-04-07T10:36:13Z</time></trkpt>
	<trkpt lat="51.83318167" lon="-2.089543333"><ele>278.000000</ele><time>2010-04-07T10:36:18Z</time></trkpt>
	<trkpt lat="51.83315167" lon="-2.089498333"><ele>279.000000</ele><time>2010-04-07T10:36:23Z</time></trkpt>
	<trkpt lat="51.83311833" lon="-2.089463333"><ele>280.000000</ele><time>2010-04-07T10:36:28Z</time></trkpt>
	<trkpt lat="51.83307667" lon="-2.089426667"><ele>280.000000</ele><time>2010-04-07T10:36:33Z</time></trkpt>
	<trkpt lat="51.83304833" lon="-2.089381667"><ele>281.000000</ele><time>2010-04-07T10:36:38Z</time></trkpt>
	<trkpt lat="51.83301833" lon="-2.089333333"><ele>282.000000</ele><time>2010-04-07T10:36:43Z</time></trkpt>
	<trkpt lat="51.83299" lon="-2.089273333"><ele>282.000000</ele><time>2010-04-07T10:36:48Z</time></trkpt>
	<trkpt lat="51.83295833" lon="-2.089218333"><ele>283.000000</ele><time>2010-04-07T10:36:53Z</time></trkpt>
	<trkpt lat="51.83292333" lon="-2.089166667"><ele>283.000000</ele><time>2010-04-07T10:36:58Z</time></trkpt>
	<trkpt lat="51.83289333" lon="-2.08911"><ele>283.000000</ele><time>2010-04-07T10:37:03Z</time></trkpt>
	<trkpt lat="51.83286" lon="-2.089056667"><ele>283.000000</ele><time>2010-04-07T10:37:08Z</time></trkpt>
	<trkpt lat="51.83282167" lon="-2.089005"><ele>283.000000</ele><time>2010-04-07T10:37:13Z</time></trkpt>
	<trkpt lat="51.83280667" lon="-2.088981667"><ele>283.000000</ele><time>2010-04-07T10:37:18Z</time></trkpt>
	<trkpt lat="51.83280667" lon="-2.088975"><ele>283.000000</ele><time>2010-04-07T10:37:23Z</time></trkpt>
	<trkpt lat="51.83280333" lon="-2.08897"><ele>283.000000</ele><time>2010-04-07T10:37:28Z</time></trkpt>
	<trkpt lat="51.83277833" lon="-2.08893"><ele>284.000000</ele><time>2010-04-07T10:37:33Z</time></trkpt>
	<trkpt lat="51.832745" lon="-2.088876667"><ele>284.000000</ele><time>2010-04-07T10:37:38Z</time></trkpt>
	<trkpt lat="51.83270667" lon="-2.088813333"><ele>284.000000</ele><time>2010-04-07T10:37:43Z</time></trkpt>
	<trkpt lat="51.83267167" lon="-2.088751667"><ele>284.000000</ele><time>2010-04-07T10:37:48Z</time></trkpt>
	<trkpt lat="51.83263667" lon="-2.088698333"><ele>285.000000</ele><time>2010-04-07T10:37:53Z</time></trkpt>
	<trkpt lat="51.83260167" lon="-2.08864"><ele>285.000000</ele><time>2010-04-07T10:37:58Z</time></trkpt>
	<trkpt lat="51.832565" lon="-2.088581667"><ele>286.000000</ele><time>2010-04-07T10:38:03Z</time></trkpt>
	<trkpt lat="51.83252333" lon="-2.088523333"><ele>285.000000</ele><time>2010-04-07T10:38:08Z</time></trkpt>
	<trkpt lat="51.832485" lon="-2.088466667"><ele>286.000000</ele><time>2010-04-07T10:38:13Z</time></trkpt>
	<trkpt lat="51.83245" lon="-2.08841"><ele>286.000000</ele><time>2010-04-07T10:38:18Z</time></trkpt>
	<trkpt lat="51.832415" lon="-2.088358333"><ele>286.000000</ele><time>2010-04-07T10:38:23Z</time></trkpt>
	<trkpt lat="51.83237667" lon="-2.088305"><ele>286.000000</ele><time>2010-04-07T10:38:28Z</time></trkpt>
	<trkpt lat="51.83234667" lon="-2.088251667"><ele>287.000000</ele><time>2010-04-07T10:38:33Z</time></trkpt>
	<trkpt lat="51.83231667" lon="-2.088185"><ele>287.000000</ele><time>2010-04-07T10:38:38Z</time></trkpt>
	<trkpt lat="51.83228" lon="-2.088126667"><ele>288.000000</ele><time>2010-04-07T10:38:43Z</time></trkpt>
	<trkpt lat="51.83224833" lon="-2.088063333"><ele>288.000000</ele><time>2010-04-07T10:38:48Z</time></trkpt>
	<trkpt lat="51.83221167" lon="-2.088001667"><ele>288.000000</ele><time>2010-04-07T10:38:53Z</time></trkpt>
	<trkpt lat="51.832175" lon="-2.087945"><ele>288.000000</ele><time>2010-04-07T10:38:58Z</time></trkpt>
	<trkpt lat="51.83214667" lon="-2.08788"><ele>288.000000</ele><time>2010-04-07T10:39:03Z</time></trkpt>
	<trkpt lat="51.83210667" lon="-2.08782"><ele>288.000000</ele><time>2010-04-07T10:39:08Z</time></trkpt>
	<trkpt lat="51.83207667" lon="-2.087758333"><ele>289.000000</ele><time>2010-04-07T10:39:13Z</time></trkpt>
	<trkpt lat="51.83203167" lon="-2.087705"><ele>289.000000</ele><time>2010-04-07T10:39:18Z</time></trkpt>
	<trkpt lat="51.831995" lon="-2.087656667"><ele>289.000000</ele><time>2010-04-07T10:39:23Z</time></trkpt>
	<trkpt lat="51.83196167" lon="-2.087643333"><ele>288.000000</ele><time>2010-04-07T10:39:28Z</time></trkpt>
	<trkpt lat="51.83194" lon="-2.087625"><ele>288.000000</ele><time>2010-04-07T10:39:33Z</time></trkpt>
	<trkpt lat="51.8319" lon="-2.087613333"><ele>287.000000</ele><time>2010-04-07T10:39:38Z</time></trkpt>
	<trkpt lat="51.831845" lon="-2.08763"><ele>287.000000</ele><time>2010-04-07T10:39:43Z</time></trkpt>
	<trkpt lat="51.83179667" lon="-2.087648333"><ele>287.000000</ele><time>2010-04-07T10:39:48Z</time></trkpt>
	<trkpt lat="51.83176667" lon="-2.087656667"><ele>288.000000</ele><time>2010-04-07T10:39:53Z</time></trkpt>
	<trkpt lat="51.83172667" lon="-2.087681667"><ele>288.000000</ele><time>2010-04-07T10:39:58Z</time></trkpt>
	<trkpt lat="51.83168" lon="-2.087706667"><ele>287.000000</ele><time>2010-04-07T10:40:03Z</time></trkpt>
	<trkpt lat="51.831625" lon="-2.08771"><ele>287.000000</ele><time>2010-04-07T10:40:08Z</time></trkpt>
	<trkpt lat="51.83156667" lon="-2.087715"><ele>286.000000</ele><time>2010-04-07T10:40:13Z</time></trkpt>
	<trkpt lat="51.83151167" lon="-2.087715"><ele>286.000000</ele><time>2010-04-07T10:40:18Z</time></trkpt>
	<trkpt lat="51.83145833" lon="-2.087726667"><ele>285.000000</ele><time>2010-04-07T10:40:23Z</time></trkpt>
	<trkpt lat="51.83141" lon="-2.087735"><ele>286.000000</ele><time>2010-04-07T10:40:28Z</time></trkpt>
	<trkpt lat="51.831365" lon="-2.08774"><ele>286.000000</ele><time>2010-04-07T10:40:33Z</time></trkpt>
	<trkpt lat="51.83131833" lon="-2.087753333"><ele>286.000000</ele><time>2010-04-07T10:40:38Z</time></trkpt>
	<trkpt lat="51.83126833" lon="-2.087761667"><ele>286.000000</ele><time>2010-04-07T10:40:43Z</time></trkpt>
	<trkpt lat="51.83122" lon="-2.08777"><ele>287.000000</ele><time>2010-04-07T10:40:48Z</time></trkpt>
	<trkpt lat="51.83117" lon="-2.087781667"><ele>287.000000</ele><time>2010-04-07T10:40:53Z</time></trkpt>
	<trkpt lat="51.83112167" lon="-2.087791667"><ele>287.000000</ele><time>2010-04-07T10:40:58Z</time></trkpt>
	<trkpt lat="51.831085" lon="-2.087801667"><ele>287.000000</ele><time>2010-04-07T10:41:03Z</time></trkpt>
	<trkpt lat="51.831065" lon="-2.08782"><ele>286.000000</ele><time>2010-04-07T10:41:08Z</time></trkpt>
	<trkpt lat="51.831065" lon="-2.087828333"><ele>286.000000</ele><time>2010-04-07T10:41:13Z</time></trkpt>
	<trkpt lat="51.83106333" lon="-2.087836667"><ele>285.000000</ele><time>2010-04-07T10:41:18Z</time></trkpt>
	<trkpt lat="51.83105667" lon="-2.087848333"><ele>285.000000</ele><time>2010-04-07T10:41:23Z</time></trkpt>
	<trkpt lat="51.83105667" lon="-2.087853333"><ele>285.000000</ele><time>2010-04-07T10:41:28Z</time></trkpt>
	<trkpt lat="51.83106" lon="-2.087863333"><ele>286.000000</ele><time>2010-04-07T10:41:33Z</time></trkpt>
	<trkpt lat="51.83102" lon="-2.08786"><ele>286.000000</ele><time>2010-04-07T10:41:38Z</time></trkpt>
	<trkpt lat="51.83096" lon="-2.087876667"><ele>286.000000</ele><time>2010-04-07T10:41:43Z</time></trkpt>
	<trkpt lat="51.83089667" lon="-2.087885"><ele>286.000000</ele><time>2010-04-07T10:41:48Z</time></trkpt>
	<trkpt lat="51.83083333" lon="-2.0879"><ele>286.000000</ele><time>2010-04-07T10:41:53Z</time></trkpt>
	<trkpt lat="51.830765" lon="-2.08791"><ele>286.000000</ele><time>2010-04-07T10:41:58Z</time></trkpt>
	<trkpt lat="51.830705" lon="-2.087928333"><ele>286.000000</ele><time>2010-04-07T10:42:03Z</time></trkpt>
	<trkpt lat="51.83065" lon="-2.08794"><ele>286.000000</ele><time>2010-04-07T10:42:08Z</time></trkpt>
	<trkpt lat="51.83061833" lon="-2.087951667"><ele>285.000000</ele><time>2010-04-07T10:42:13Z</time></trkpt>
	<trkpt lat="51.83059" lon="-2.087963333"><ele>285.000000</ele><time>2010-04-07T10:42:18Z</time></trkpt>
	<trkpt lat="51.83057667" lon="-2.08796"><ele>285.000000</ele><time>2010-04-07T10:42:23Z</time></trkpt>
	<trkpt lat="51.830555" lon="-2.087961667"><ele>285.000000</ele><time>2010-04-07T10:42:28Z</time></trkpt>
	<trkpt lat="51.83051667" lon="-2.087966667"><ele>285.000000</ele><time>2010-04-07T10:42:33Z</time></trkpt>
	<trkpt lat="51.83047" lon="-2.087973333"><ele>285.000000</ele><time>2010-04-07T10:42:38Z</time></trkpt>
	<trkpt lat="51.83042167" lon="-2.087986667"><ele>284.000000</ele><time>2010-04-07T10:42:43Z</time></trkpt>
	<trkpt lat="51.83037333" lon="-2.088003333"><ele>284.000000</ele><time>2010-04-07T10:42:48Z</time></trkpt>
	<trkpt lat="51.83032667" lon="-2.088015"><ele>284.000000</ele><time>2010-04-07T10:42:53Z</time></trkpt>
	<trkpt lat="51.83027833" lon="-2.088026667"><ele>284.000000</ele><time>2010-04-07T10:42:58Z</time></trkpt>
	<trkpt lat="51.83023167" lon="-2.088043333"><ele>284.000000</ele><time>2010-04-07T10:43:03Z</time></trkpt>
	<trkpt lat="51.83018667" lon="-2.088051667"><ele>284.000000</ele><time>2010-04-07T10:43:08Z</time></trkpt>
	<trkpt lat="51.83016667" lon="-2.088051667"><ele>284.000000</ele><time>2010-04-07T10:43:13Z</time></trkpt>
	<trkpt lat="51.83016333" lon="-2.088048333"><ele>284.000000</ele><time>2010-04-07T10:43:18Z</time></trkpt>
	<trkpt lat="51.83015833" lon="-2.088041667"><ele>285.000000</ele><time>2010-04-07T10:43:23Z</time></trkpt>
	<trkpt lat="51.83015667" lon="-2.088041667"><ele>286.000000</ele><time>2010-04-07T10:43:28Z</time></trkpt>
	<trkpt lat="51.830155" lon="-2.088036667"><ele>286.000000</ele><time>2010-04-07T10:43:33Z</time></trkpt>
	<trkpt lat="51.830135" lon="-2.088045"><ele>286.000000</ele><time>2010-04-07T10:43:38Z</time></trkpt>
	<trkpt lat="51.83010333" lon="-2.088058333"><ele>286.000000</ele><time>2010-04-07T10:43:43Z</time></trkpt>
	<trkpt lat="51.83007667" lon="-2.08807"><ele>286.000000</ele><time>2010-04-07T10:43:48Z</time></trkpt>
	<trkpt lat="51.83005167" lon="-2.088068333"><ele>286.000000</ele><time>2010-04-07T10:43:53Z</time></trkpt>
	<trkpt lat="51.83003667" lon="-2.088071667"><ele>286.000000</ele><time>2010-04-07T10:43:58Z</time></trkpt>
	<trkpt lat="51.83003167" lon="-2.08808"><ele>285.000000</ele><time>2010-04-07T10:44:03Z</time></trkpt>
	<trkpt lat="51.83002667" lon="-2.088088333"><ele>285.000000</ele><time>2010-04-07T10:44:08Z</time></trkpt>
	<trkpt lat="51.83002" lon="-2.088081667"><ele>284.000000</ele><time>2010-04-07T10:44:13Z</time></trkpt>
	<trkpt lat="51.82998667" lon="-2.08809"><ele>284.000000</ele><time>2010-04-07T10:44:18Z</time></trkpt>
	<trkpt lat="51.82994667" lon="-2.088101667"><ele>283.000000</ele><time>2010-04-07T10:44:23Z</time></trkpt>
	<trkpt lat="51.82991833" lon="-2.088113333"><ele>284.000000</ele><time>2010-04-07T10:44:28Z</time></trkpt>
	<trkpt lat="51.82990333" lon="-2.088113333"><ele>283.000000</ele><time>2010-04-07T10:44:33Z</time></trkpt>
	<trkpt lat="51.82986833" lon="-2.088115"><ele>283.000000</ele><time>2010-04-07T10:44:38Z</time></trkpt>
	<trkpt lat="51.82982" lon="-2.088125"><ele>283.000000</ele><time>2010-04-07T10:44:43Z</time></trkpt>
	<trkpt lat="51.82976833" lon="-2.088126667"><ele>283.000000</ele><time>2010-04-07T10:44:48Z</time></trkpt>
	<trkpt lat="51.82973833" lon="-2.088126667"><ele>283.000000</ele><time>2010-04-07T10:44:53Z</time></trkpt>
	<trkpt lat="51.82973833" lon="-2.088105"><ele>282.000000</ele><time>2010-04-07T10:44:58Z</time></trkpt>
	<trkpt lat="51.82971667" lon="-2.08812"><ele>282.000000</ele><time>2010-04-07T10:45:03Z</time></trkpt>
	<trkpt lat="51.82970333" lon="-2.088131667"><ele>283.000000</ele><time>2010-04-07T10:45:08Z</time></trkpt>
	<trkpt lat="51.82968" lon="-2.088188333"><ele>283.000000</ele><time>2010-04-07T10:45:13Z</time></trkpt>
	<trkpt lat="51.82966" lon="-2.088238333"><ele>283.000000</ele><time>2010-04-07T10:45:18Z</time></trkpt>
	<trkpt lat="51.82964833" lon="-2.088295"><ele>282.000000</ele><time>2010-04-07T10:45:23Z</time></trkpt>
	<trkpt lat="51.82965" lon="-2.088343333"><ele>283.000000</ele><time>2010-04-07T10:45:28Z</time></trkpt>
	<trkpt lat="51.82965167" lon="-2.08842"><ele>283.000000</ele><time>2010-04-07T10:45:33Z</time></trkpt>
	<trkpt lat="51.82967" lon="-2.088496667"><ele>283.000000</ele><time>2010-04-07T10:45:38Z</time></trkpt>
	<trkpt lat="51.82968" lon="-2.088588333"><ele>283.000000</ele><time>2010-04-07T10:45:43Z</time></trkpt>
	<trkpt lat="51.82969167" lon="-2.088675"><ele>283.000000</ele><time>2010-04-07T10:45:48Z</time></trkpt>
	<trkpt lat="51.82970667" lon="-2.088761667"><ele>283.000000</ele><time>2010-04-07T10:45:53Z</time></trkpt>
	<trkpt lat="51.82971333" lon="-2.08884"><ele>283.000000</ele><time>2010-04-07T10:45:58Z</time></trkpt>
	<trkpt lat="51.82973" lon="-2.088931667"><ele>284.000000</ele><time>2010-04-07T10:46:03Z</time></trkpt>
	<trkpt lat="51.829745" lon="-2.089021667"><ele>284.000000</ele><time>2010-04-07T10:46:08Z</time></trkpt>
	<trkpt lat="51.82976" lon="-2.089118333"><ele>284.000000</ele><time>2010-04-07T10:46:13Z</time></trkpt>
	<trkpt lat="51.82977833" lon="-2.089215"><ele>285.000000</ele><time>2010-04-07T10:46:18Z</time></trkpt>
	<trkpt lat="51.82979333" lon="-2.089306667"><ele>285.000000</ele><time>2010-04-07T10:46:23Z</time></trkpt>
	<trkpt lat="51.82980833" lon="-2.089398333"><ele>285.000000</ele><time>2010-04-07T10:46:28Z</time></trkpt>
	<trkpt lat="51.82982167" lon="-2.089486667"><ele>285.000000</ele><time>2010-04-07T10:46:33Z</time></trkpt>
	<trkpt lat="51.82983667" lon="-2.089573333"><ele>285.000000</ele><time>2010-04-07T10:46:38Z</time></trkpt>
	<trkpt lat="51.82985" lon="-2.089661667"><ele>285.000000</ele><time>2010-04-07T10:46:43Z</time></trkpt>
	<trkpt lat="51.82986333" lon="-2.089746667"><ele>285.000000</ele><time>2010-04-07T10:46:48Z</time></trkpt>
	<trkpt lat="51.82987667" lon="-2.089831667"><ele>286.000000</ele><time>2010-04-07T10:46:53Z</time></trkpt>
	<trkpt lat="51.82988667" lon="-2.089923333"><ele>286.000000</ele><time>2010-04-07T10:46:58Z</time></trkpt>
	<trkpt lat="51.8299" lon="-2.090013333"><ele>286.000000</ele><time>2010-04-07T10:47:03Z</time></trkpt>
	<trkpt lat="51.82991167" lon="-2.090103333"><ele>286.000000</ele><time>2010-04-07T10:47:08Z</time></trkpt>
	<trkpt lat="51.82992667" lon="-2.090196667"><ele>286.000000</ele><time>2010-04-07T10:47:13Z</time></trkpt>
	<trkpt lat="51.82993833" lon="-2.090288333"><ele>287.000000</ele><time>2010-04-07T10:47:18Z</time></trkpt>
	<trkpt lat="51.82995833" lon="-2.090378333"><ele>288.000000</ele><time>2010-04-07T10:47:23Z</time></trkpt>
	<trkpt lat="51.82996667" lon="-2.09046"><ele>288.000000</ele><time>2010-04-07T10:47:28Z</time></trkpt>
	<trkpt lat="51.829985" lon="-2.09054"><ele>287.000000</ele><time>2010-04-07T10:47:33Z</time></trkpt>
	<trkpt lat="51.83000333" lon="-2.090631667"><ele>287.000000</ele><time>2010-04-07T10:47:38Z</time></trkpt>
	<trkpt lat="51.83002167" lon="-2.090716667"><ele>286.000000</ele><time>2010-04-07T10:47:43Z</time></trkpt>
	<trkpt lat="51.83004167" lon="-2.090806667"><ele>286.000000</ele><time>2010-04-07T10:47:48Z</time></trkpt>
	<trkpt lat="51.83006167" lon="-2.090901667"><ele>285.000000</ele><time>2010-04-07T10:47:53Z</time></trkpt>
	<trkpt lat="51.83008167" lon="-2.090986667"><ele>285.000000</ele><time>2010-04-07T10:47:58Z</time></trkpt>
	<trkpt lat="51.83009167" lon="-2.091071667"><ele>284.000000</ele><time>2010-04-07T10:48:03Z</time></trkpt>
	<trkpt lat="51.83009833" lon="-2.091166667"><ele>284.000000</ele><time>2010-04-07T10:48:08Z</time></trkpt>
	<trkpt lat="51.83010667" lon="-2.091251667"><ele>284.000000</ele><time>2010-04-07T10:48:13Z</time></trkpt>
	<trkpt lat="51.83011833" lon="-2.091338333"><ele>284.000000</ele><time>2010-04-07T10:48:18Z</time></trkpt>
	<trkpt lat="51.83013667" lon="-2.091433333"><ele>284.000000</ele><time>2010-04-07T10:48:23Z</time></trkpt>
	<trkpt lat="51.83014333" lon="-2.091521667"><ele>284.000000</ele><time>2010-04-07T10:48:28Z</time></trkpt>
	<trkpt lat="51.83015333" lon="-2.091613333"><ele>285.000000</ele><time>2010-04-07T10:48:33Z</time></trkpt>
	<trkpt lat="51.83016333" lon="-2.091705"><ele>286.000000</ele><time>2010-04-07T10:48:38Z</time></trkpt>
	<trkpt lat="51.83017167" lon="-2.091786667"><ele>287.000000</ele><time>2010-04-07T10:48:43Z</time></trkpt>
	<trkpt lat="51.83017333" lon="-2.091871667"><ele>286.000000</ele><time>2010-04-07T10:48:48Z</time></trkpt>
	<trkpt lat="51.83018" lon="-2.091951667"><ele>286.000000</ele><time>2010-04-07T10:48:53Z</time></trkpt>
	<trkpt lat="51.83018667" lon="-2.09204"><ele>286.000000</ele><time>2010-04-07T10:48:58Z</time></trkpt>
	<trkpt lat="51.83019667" lon="-2.092126667"><ele>286.000000</ele><time>2010-04-07T10:49:03Z</time></trkpt>
	<trkpt lat="51.83021" lon="-2.09221"><ele>286.000000</ele><time>2010-04-07T10:49:08Z</time></trkpt>
	<trkpt lat="51.830215" lon="-2.0923"><ele>287.000000</ele><time>2010-04-07T10:49:13Z</time></trkpt>
	<trkpt lat="51.83023333" lon="-2.092378333"><ele>287.000000</ele><time>2010-04-07T10:49:18Z</time></trkpt>
	<trkpt lat="51.83024833" lon="-2.092451667"><ele>288.000000</ele><time>2010-04-07T10:49:23Z</time></trkpt>
	<trkpt lat="51.830255" lon="-2.092531667"><ele>288.000000</ele><time>2010-04-07T10:49:28Z</time></trkpt>
	<trkpt lat="51.83026333" lon="-2.09262"><ele>289.000000</ele><time>2010-04-07T10:49:33Z</time></trkpt>
	<trkpt lat="51.83027167" lon="-2.092703333"><ele>288.000000</ele><time>2010-04-07T10:49:38Z</time></trkpt>
	<trkpt lat="51.83027667" lon="-2.092795"><ele>289.000000</ele><time>2010-04-07T10:49:43Z</time></trkpt>
	<trkpt lat="51.83029333" lon="-2.092875"><ele>290.000000</ele><time>2010-04-07T10:49:48Z</time></trkpt>
	<trkpt lat="51.83030667" lon="-2.092953333"><ele>289.000000</ele><time>2010-04-07T10:49:53Z</time></trkpt>
	<trkpt lat="51.83032333" lon="-2.093016667"><ele>288.000000</ele><time>2010-04-07T10:49:58Z</time></trkpt>
	<trkpt lat="51.83032833" lon="-2.093083333"><ele>288.000000</ele><time>2010-04-07T10:50:03Z</time></trkpt>
	<trkpt lat="51.83033" lon="-2.093128333"><ele>288.000000</ele><time>2010-04-07T10:50:08Z</time></trkpt>
	<trkpt lat="51.83033333" lon="-2.093146667"><ele>288.000000</ele><time>2010-04-07T10:50:13Z</time></trkpt>
	<trkpt lat="51.83033" lon="-2.093156667"><ele>288.000000</ele><time>2010-04-07T10:50:18Z</time></trkpt>
	<trkpt lat="51.83032667" lon="-2.093161667"><ele>288.000000</ele><time>2010-04-07T10:50:23Z</time></trkpt>
	<trkpt lat="51.83032333" lon="-2.09317"><ele>288.000000</ele><time>2010-04-07T10:50:28Z</time></trkpt>
	<trkpt lat="51.83031333" lon="-2.093195"><ele>288.000000</ele><time>2010-04-07T10:50:33Z</time></trkpt>
	<trkpt lat="51.83030667" lon="-2.093216667"><ele>287.000000</ele><time>2010-04-07T10:50:38Z</time></trkpt>
	<trkpt lat="51.83027667" lon="-2.093235"><ele>287.000000</ele><time>2010-04-07T10:50:43Z</time></trkpt>
	<trkpt lat="51.83025333" lon="-2.093245"><ele>287.000000</ele><time>2010-04-07T10:50:48Z</time></trkpt>
	<trkpt lat="51.83022833" lon="-2.093253333"><ele>287.000000</ele><time>2010-04-07T10:50:53Z</time></trkpt>
	<trkpt lat="51.83020333" lon="-2.09326"><ele>287.000000</ele><time>2010-04-07T10:50:58Z</time></trkpt>
	<trkpt lat="51.830195" lon="-2.093285"><ele>286.000000</ele><time>2010-04-07T10:51:03Z</time></trkpt>
	<trkpt lat="51.83019167" lon="-2.09329"><ele>287.000000</ele><time>2010-04-07T10:51:08Z</time></trkpt>
	<trkpt lat="51.83018833" lon="-2.093291667"><ele>287.000000</ele><time>2010-04-07T10:51:13Z</time></trkpt>
	<trkpt lat="51.83017" lon="-2.093291667"><ele>286.000000</ele><time>2010-04-07T10:51:18Z</time></trkpt>
	<trkpt lat="51.83015333" lon="-2.093305"><ele>286.000000</ele><time>2010-04-07T10:51:23Z</time></trkpt>
	<trkpt lat="51.83012833" lon="-2.093336667"><ele>285.000000</ele><time>2010-04-07T10:51:28Z</time></trkpt>
	<trkpt lat="51.830105" lon="-2.093331667"><ele>285.000000</ele><time>2010-04-07T10:51:33Z</time></trkpt>
	<trkpt lat="51.83005833" lon="-2.093333333"><ele>285.000000</ele><time>2010-04-07T10:51:38Z</time></trkpt>
	<trkpt lat="51.83002167" lon="-2.093336667"><ele>284.000000</ele><time>2010-04-07T10:51:43Z</time></trkpt>
	<trkpt lat="51.829985" lon="-2.09336"><ele>283.000000</ele><time>2010-04-07T10:51:48Z</time></trkpt>
	<trkpt lat="51.82994833" lon="-2.093381667"><ele>283.000000</ele><time>2010-04-07T10:51:53Z</time></trkpt>
	<trkpt lat="51.82990833" lon="-2.093398333"><ele>282.000000</ele><time>2010-04-07T10:51:58Z</time></trkpt>
	<trkpt lat="51.82986667" lon="-2.093413333"><ele>280.000000</ele><time>2010-04-07T10:52:03Z</time></trkpt>
	<trkpt lat="51.82982333" lon="-2.093456667"><ele>280.000000</ele><time>2010-04-07T10:52:08Z</time></trkpt>
	<trkpt lat="51.82977667" lon="-2.093488333"><ele>280.000000</ele><time>2010-04-07T10:52:13Z</time></trkpt>
	<trkpt lat="51.82973" lon="-2.093513333"><ele>280.000000</ele><time>2010-04-07T10:52:18Z</time></trkpt>
	<trkpt lat="51.82968167" lon="-2.093545"><ele>280.000000</ele><time>2010-04-07T10:52:23Z</time></trkpt>
	<trkpt lat="51.829635" lon="-2.093583333"><ele>280.000000</ele><time>2010-04-07T10:52:28Z</time></trkpt>
	<trkpt lat="51.82958667" lon="-2.093613333"><ele>280.000000</ele><time>2010-04-07T10:52:33Z</time></trkpt>
	<trkpt lat="51.82953167" lon="-2.093648333"><ele>281.000000</ele><time>2010-04-07T10:52:38Z</time></trkpt>
	<trkpt lat="51.82948167" lon="-2.093685"><ele>281.000000</ele><time>2010-04-07T10:52:43Z</time></trkpt>
	<trkpt lat="51.82943167" lon="-2.09372"><ele>281.000000</ele><time>2010-04-07T10:52:48Z</time></trkpt>
	<trkpt lat="51.82938667" lon="-2.09376"><ele>281.000000</ele><time>2010-04-07T10:52:53Z</time></trkpt>
	<trkpt lat="51.82933667" lon="-2.093791667"><ele>282.000000</ele><time>2010-04-07T10:52:58Z</time></trkpt>
	<trkpt lat="51.829285" lon="-2.093828333"><ele>283.000000</ele><time>2010-04-07T10:53:03Z</time></trkpt>
	<trkpt lat="51.82923333" lon="-2.093863333"><ele>283.000000</ele><time>2010-04-07T10:53:08Z</time></trkpt>
	<trkpt lat="51.82918333" lon="-2.093906667"><ele>284.000000</ele><time>2010-04-07T10:53:13Z</time></trkpt>
	<trkpt lat="51.82913167" lon="-2.093955"><ele>285.000000</ele><time>2010-04-07T10:53:18Z</time></trkpt>
	<trkpt lat="51.829085" lon="-2.093993333"><ele>285.000000</ele><time>2010-04-07T10:53:23Z</time></trkpt>
	<trkpt lat="51.82904167" lon="-2.09403"><ele>285.000000</ele><time>2010-04-07T10:53:28Z</time></trkpt>
	<trkpt lat="51.82899667" lon="-2.094075"><ele>285.000000</ele><time>2010-04-07T10:53:33Z</time></trkpt>
	<trkpt lat="51.82895167" lon="-2.094126667"><ele>286.000000</ele><time>2010-04-07T10:53:38Z</time></trkpt>
	<trkpt lat="51.82891667" lon="-2.09417"><ele>286.000000</ele><time>2010-04-07T10:53:43Z</time></trkpt>
	<trkpt lat="51.82888667" lon="-2.094191667"><ele>286.000000</ele><time>2010-04-07T10:53:48Z</time></trkpt>
	<trkpt lat="51.82886667" lon="-2.094195"><ele>285.000000</ele><time>2010-04-07T10:53:53Z</time></trkpt>
	<trkpt lat="51.82883667" lon="-2.094213333"><ele>285.000000</ele><time>2010-04-07T10:53:58Z</time></trkpt>
	<trkpt lat="51.82882833" lon="-2.094261667"><ele>286.000000</ele><time>2010-04-07T10:54:03Z</time></trkpt>
	<trkpt lat="51.82885" lon="-2.094306667"><ele>285.000000</ele><time>2010-04-07T10:54:08Z</time></trkpt>
	<trkpt lat="51.82887333" lon="-2.094355"><ele>285.000000</ele><time>2010-04-07T10:54:13Z</time></trkpt>
	<trkpt lat="51.8289" lon="-2.094413333"><ele>287.000000</ele><time>2010-04-07T10:54:18Z</time></trkpt>
	<trkpt lat="51.82892667" lon="-2.094488333"><ele>287.000000</ele><time>2010-04-07T10:54:23Z</time></trkpt>
	<trkpt lat="51.82895167" lon="-2.09456"><ele>287.000000</ele><time>2010-04-07T10:54:28Z</time></trkpt>
	<trkpt lat="51.82898167" lon="-2.09462"><ele>287.000000</ele><time>2010-04-07T10:54:33Z</time></trkpt>
	<trkpt lat="51.829015" lon="-2.094675"><ele>286.000000</ele><time>2010-04-07T10:54:38Z</time></trkpt>
	<trkpt lat="51.82904667" lon="-2.094731667"><ele>286.000000</ele><time>2010-04-07T10:54:43Z</time></trkpt>
	<trkpt lat="51.829075" lon="-2.09479"><ele>285.000000</ele><time>2010-04-07T10:54:48Z</time></trkpt>
	<trkpt lat="51.82909667" lon="-2.094868333"><ele>286.000000</ele><time>2010-04-07T10:54:53Z</time></trkpt>
	<trkpt lat="51.82912" lon="-2.09495"><ele>286.000000</ele><time>2010-04-07T10:54:58Z</time></trkpt>
	<trkpt lat="51.82913667" lon="-2.095005"><ele>286.000000</ele><time>2010-04-07T10:55:03Z</time></trkpt>
	<trkpt lat="51.82915833" lon="-2.095055"><ele>286.000000</ele><time>2010-04-07T10:55:08Z</time></trkpt>
	<trkpt lat="51.829175" lon="-2.095086667"><ele>286.000000</ele><time>2010-04-07T10:55:13Z</time></trkpt>
	<trkpt lat="51.829195" lon="-2.095116667"><ele>286.000000</ele><time>2010-04-07T10:55:18Z</time></trkpt>
	<trkpt lat="51.82923167" lon="-2.095148333"><ele>286.000000</ele><time>2010-04-07T10:55:23Z</time></trkpt>
	<trkpt lat="51.82923667" lon="-2.09522"><ele>286.000000</ele><time>2010-04-07T10:55:28Z</time></trkpt>
	<trkpt lat="51.82922" lon="-2.095301667"><ele>286.000000</ele><time>2010-04-07T10:55:33Z</time></trkpt>
	<trkpt lat="51.82920167" lon="-2.095375"><ele>286.000000</ele><time>2010-04-07T10:55:38Z</time></trkpt>
	<trkpt lat="51.82918333" lon="-2.095438333"><ele>287.000000</ele><time>2010-04-07T10:55:43Z</time></trkpt>
	<trkpt lat="51.829175" lon="-2.095468333"><ele>287.000000</ele><time>2010-04-07T10:55:48Z</time></trkpt>
	<trkpt lat="51.82916167" lon="-2.095518333"><ele>286.000000</ele><time>2010-04-07T10:55:53Z</time></trkpt>
	<trkpt lat="51.82915" lon="-2.095568333"><ele>287.000000</ele><time>2010-04-07T10:55:58Z</time></trkpt>
	<trkpt lat="51.829135" lon="-2.095635"><ele>287.000000</ele><time>2010-04-07T10:56:03Z</time></trkpt>
	<trkpt lat="51.82911667" lon="-2.095705"><ele>287.000000</ele><time>2010-04-07T10:56:08Z</time></trkpt>
	<trkpt lat="51.82909833" lon="-2.095768333"><ele>286.000000</ele><time>2010-04-07T10:56:13Z</time></trkpt>
	<trkpt lat="51.82907667" lon="-2.095835"><ele>286.000000</ele><time>2010-04-07T10:56:18Z</time></trkpt>
	<trkpt lat="51.82905333" lon="-2.095905"><ele>286.000000</ele><time>2010-04-07T10:56:23Z</time></trkpt>
	<trkpt lat="51.829035" lon="-2.095976667"><ele>286.000000</ele><time>2010-04-07T10:56:28Z</time></trkpt>
	<trkpt lat="51.82901167" lon="-2.096043333"><ele>286.000000</ele><time>2010-04-07T10:56:33Z</time></trkpt>
	<trkpt lat="51.828985" lon="-2.096105"><ele>285.000000</ele><time>2010-04-07T10:56:38Z</time></trkpt>
	<trkpt lat="51.82896167" lon="-2.096178333"><ele>286.000000</ele><time>2010-04-07T10:56:43Z</time></trkpt>
	<trkpt lat="51.82894" lon="-2.09625"><ele>286.000000</ele><time>2010-04-07T10:56:48Z</time></trkpt>
	<trkpt lat="51.82891167" lon="-2.096318333"><ele>286.000000</ele><time>2010-04-07T10:56:53Z</time></trkpt>
	<trkpt lat="51.828885" lon="-2.096386667"><ele>286.000000</ele><time>2010-04-07T10:56:58Z</time></trkpt>
	<trkpt lat="51.82886" lon="-2.096456667"><ele>286.000000</ele><time>2010-04-07T10:57:03Z</time></trkpt>
	<trkpt lat="51.82883167" lon="-2.096525"><ele>286.000000</ele><time>2010-04-07T10:57:08Z</time></trkpt>
	<trkpt lat="51.82880167" lon="-2.096596667"><ele>286.000000</ele><time>2010-04-07T10:57:13Z</time></trkpt>
	<trkpt lat="51.828775" lon="-2.096666667"><ele>286.000000</ele><time>2010-04-07T10:57:18Z</time></trkpt>
	<trkpt lat="51.82876167" lon="-2.096738333"><ele>287.000000</ele><time>2010-04-07T10:57:23Z</time></trkpt>
	<trkpt lat="51.828765" lon="-2.096765"><ele>288.000000</ele><time>2010-04-07T10:57:28Z</time></trkpt>
	<trkpt lat="51.82876667" lon="-2.09677"><ele>288.000000</ele><time>2010-04-07T10:57:33Z</time></trkpt>
	<trkpt lat="51.82876667" lon="-2.096795"><ele>288.000000</ele><time>2010-04-07T10:57:38Z</time></trkpt>
	<trkpt lat="51.82877167" lon="-2.096795"><ele>288.000000</ele><time>2010-04-07T10:57:43Z</time></trkpt>
	<trkpt lat="51.82876667" lon="-2.096805"><ele>289.000000</ele><time>2010-04-07T10:57:48Z</time></trkpt>
	<trkpt lat="51.82877167" lon="-2.096816667"><ele>290.000000</ele><time>2010-04-07T10:57:53Z</time></trkpt>
	<trkpt lat="51.82877167" lon="-2.09683"><ele>290.000000</ele><time>2010-04-07T10:57:58Z</time></trkpt>
	<trkpt lat="51.82877667" lon="-2.096825"><ele>290.000000</ele><time>2010-04-07T10:58:03Z</time></trkpt>
	<trkpt lat="51.82879167" lon="-2.096831667"><ele>290.000000</ele><time>2010-04-07T10:58:08Z</time></trkpt>
	<trkpt lat="51.828795" lon="-2.096836667"><ele>289.000000</ele><time>2010-04-07T10:58:13Z</time></trkpt>
	<trkpt lat="51.82879167" lon="-2.096838333"><ele>288.000000</ele><time>2010-04-07T10:58:18Z</time></trkpt>
	<trkpt lat="51.82879167" lon="-2.096845"><ele>288.000000</ele><time>2010-04-07T10:58:23Z</time></trkpt>
	<trkpt lat="51.82879" lon="-2.096851667"><ele>288.000000</ele><time>2010-04-07T10:58:28Z</time></trkpt>
	<trkpt lat="51.82879" lon="-2.096861667"><ele>288.000000</ele><time>2010-04-07T10:58:33Z</time></trkpt>
	<trkpt lat="51.828795" lon="-2.096913333"><ele>287.000000</ele><time>2010-04-07T10:58:38Z</time></trkpt>
	<trkpt lat="51.82879667" lon="-2.09697"><ele>286.000000</ele><time>2010-04-07T10:58:43Z</time></trkpt>
	<trkpt lat="51.82879833" lon="-2.097036667"><ele>286.000000</ele><time>2010-04-07T10:58:48Z</time></trkpt>
	<trkpt lat="51.82879833" lon="-2.097113333"><ele>286.000000</ele><time>2010-04-07T10:58:53Z</time></trkpt>
	<trkpt lat="51.82880167" lon="-2.09719"><ele>285.000000</ele><time>2010-04-07T10:58:58Z</time></trkpt>
	<trkpt lat="51.82880167" lon="-2.097266667"><ele>285.000000</ele><time>2010-04-07T10:59:03Z</time></trkpt>
	<trkpt lat="51.82881" lon="-2.097345"><ele>285.000000</ele><time>2010-04-07T10:59:08Z</time></trkpt>
	<trkpt lat="51.828815" lon="-2.097426667"><ele>286.000000</ele><time>2010-04-07T10:59:13Z</time></trkpt>
	<trkpt lat="51.82882333" lon="-2.097495"><ele>285.000000</ele><time>2010-04-07T10:59:18Z</time></trkpt>
	<trkpt lat="51.828835" lon="-2.097566667"><ele>285.000000</ele><time>2010-04-07T10:59:23Z</time></trkpt>
	<trkpt lat="51.82884333" lon="-2.097645"><ele>284.000000</ele><time>2010-04-07T10:59:28Z</time></trkpt>
	<trkpt lat="51.82885" lon="-2.097711667"><ele>284.000000</ele><time>2010-04-07T10:59:33Z</time></trkpt>
	<trkpt lat="51.82885667" lon="-2.097791667"><ele>284.000000</ele><time>2010-04-07T10:59:38Z</time></trkpt>
	<trkpt lat="51.82886167" lon="-2.09786"><ele>284.000000</ele><time>2010-04-07T10:59:43Z</time></trkpt>
	<trkpt lat="51.82886667" lon="-2.09794"><ele>285.000000</ele><time>2010-04-07T10:59:48Z</time></trkpt>
	<trkpt lat="51.828875" lon="-2.098001667"><ele>284.000000</ele><time>2010-04-07T10:59:53Z</time></trkpt>
	<trkpt lat="51.82887667" lon="-2.098076667"><ele>283.000000</ele><time>2010-04-07T10:59:58Z</time></trkpt>
	<trkpt lat="51.828885" lon="-2.098165"><ele>284.000000</ele><time>2010-04-07T11:00:03Z</time></trkpt>
	<trkpt lat="51.82889" lon="-2.098236667"><ele>283.000000</ele><time>2010-04-07T11:00:08Z</time></trkpt>
	<trkpt lat="51.828895" lon="-2.098315"><ele>283.000000</ele><time>2010-04-07T11:00:13Z</time></trkpt>
	<trkpt lat="51.8289" lon="-2.098385"><ele>283.000000</ele><time>2010-04-07T11:00:18Z</time></trkpt>
	<trkpt lat="51.82890167" lon="-2.098451667"><ele>282.000000</ele><time>2010-04-07T11:00:23Z</time></trkpt>
	<trkpt lat="51.82890667" lon="-2.098521667"><ele>281.000000</ele><time>2010-04-07T11:00:28Z</time></trkpt>
	<trkpt lat="51.82891167" lon="-2.0986"><ele>281.000000</ele><time>2010-04-07T11:00:33Z</time></trkpt>
	<trkpt lat="51.82891667" lon="-2.09867"><ele>281.000000</ele><time>2010-04-07T11:00:38Z</time></trkpt>
	<trkpt lat="51.82891667" lon="-2.098756667"><ele>281.000000</ele><time>2010-04-07T11:00:43Z</time></trkpt>
	<trkpt lat="51.82891667" lon="-2.098836667"><ele>281.000000</ele><time>2010-04-07T11:00:48Z</time></trkpt>
	<trkpt lat="51.82892167" lon="-2.098921667"><ele>282.000000</ele><time>2010-04-07T11:00:53Z</time></trkpt>
	<trkpt lat="51.82892167" lon="-2.099015"><ele>283.000000</ele><time>2010-04-07T11:00:58Z</time></trkpt>
	<trkpt lat="51.82892167" lon="-2.099098333"><ele>283.000000</ele><time>2010-04-07T11:01:03Z</time></trkpt>
	<trkpt lat="51.82892167" lon="-2.099178333"><ele>283.000000</ele><time>2010-04-07T11:01:08Z</time></trkpt>
	<trkpt lat="51.82892167" lon="-2.099271667"><ele>284.000000</ele><time>2010-04-07T11:01:13Z</time></trkpt>
	<trkpt lat="51.82892667" lon="-2.099343333"><ele>284.000000</ele><time>2010-04-07T11:01:18Z</time></trkpt>
	<trkpt lat="51.82892667" lon="-2.099416667"><ele>283.000000</ele><time>2010-04-07T11:01:23Z</time></trkpt>
	<trkpt lat="51.82892833" lon="-2.099495"><ele>283.000000</ele><time>2010-04-07T11:01:28Z</time></trkpt>
	<trkpt lat="51.82892833" lon="-2.099575"><ele>284.000000</ele><time>2010-04-07T11:01:33Z</time></trkpt>
	<trkpt lat="51.828935" lon="-2.099655"><ele>284.000000</ele><time>2010-04-07T11:01:38Z</time></trkpt>
	<trkpt lat="51.82893167" lon="-2.099743333"><ele>284.000000</ele><time>2010-04-07T11:01:43Z</time></trkpt>
	<trkpt lat="51.82893667" lon="-2.09983"><ele>285.000000</ele><time>2010-04-07T11:01:48Z</time></trkpt>
	<trkpt lat="51.82894" lon="-2.099911667"><ele>285.000000</ele><time>2010-04-07T11:01:53Z</time></trkpt>
	<trkpt lat="51.82894667" lon="-2.099996667"><ele>285.000000</ele><time>2010-04-07T11:01:58Z</time></trkpt>
	<trkpt lat="51.82895167" lon="-2.100091667"><ele>287.000000</ele><time>2010-04-07T11:02:03Z</time></trkpt>
	<trkpt lat="51.82895667" lon="-2.10017"><ele>287.000000</ele><time>2010-04-07T11:02:08Z</time></trkpt>
	<trkpt lat="51.82896167" lon="-2.100255"><ele>287.000000</ele><time>2010-04-07T11:02:13Z</time></trkpt>
	<trkpt lat="51.82896167" lon="-2.100356667"><ele>288.000000</ele><time>2010-04-07T11:02:18Z</time></trkpt>
	<trkpt lat="51.82896333" lon="-2.100448333"><ele>289.000000</ele><time>2010-04-07T11:02:23Z</time></trkpt>
	<trkpt lat="51.82896333" lon="-2.100536667"><ele>289.000000</ele><time>2010-04-07T11:02:28Z</time></trkpt>
	<trkpt lat="51.828965" lon="-2.100623333"><ele>290.000000</ele><time>2010-04-07T11:02:33Z</time></trkpt>
	<trkpt lat="51.82896333" lon="-2.100705"><ele>289.000000</ele><time>2010-04-07T11:02:38Z</time></trkpt>
	<trkpt lat="51.82896667" lon="-2.100783333"><ele>289.000000</ele><time>2010-04-07T11:02:43Z</time></trkpt>
	<trkpt lat="51.82897" lon="-2.100868333"><ele>289.000000</ele><time>2010-04-07T11:02:48Z</time></trkpt>
	<trkpt lat="51.82897667" lon="-2.100946667"><ele>289.000000</ele><time>2010-04-07T11:02:53Z</time></trkpt>
	<trkpt lat="51.828975" lon="-2.101036667"><ele>289.000000</ele><time>2010-04-07T11:02:58Z</time></trkpt>
	<trkpt lat="51.82898167" lon="-2.101118333"><ele>289.000000</ele><time>2010-04-07T11:03:03Z</time></trkpt>
	<trkpt lat="51.828985" lon="-2.10119"><ele>289.000000</ele><time>2010-04-07T11:03:08Z</time></trkpt>
	<trkpt lat="51.82898" lon="-2.101273333"><ele>289.000000</ele><time>2010-04-07T11:03:13Z</time></trkpt>
	<trkpt lat="51.82898833" lon="-2.10134"><ele>289.000000</ele><time>2010-04-07T11:03:18Z</time></trkpt>
	<trkpt lat="51.82899" lon="-2.10136"><ele>289.000000</ele><time>2010-04-07T11:03:23Z</time></trkpt>
	<trkpt lat="51.82899" lon="-2.101365"><ele>289.000000</ele><time>2010-04-07T11:03:28Z</time></trkpt>
	<trkpt lat="51.82898833" lon="-2.101366667"><ele>289.000000</ele><time>2010-04-07T11:03:33Z</time></trkpt>
	<trkpt lat="51.82898833" lon="-2.101371667"><ele>289.000000</ele><time>2010-04-07T11:03:38Z</time></trkpt>
	<trkpt lat="51.82898667" lon="-2.101373333"><ele>290.000000</ele><time>2010-04-07T11:03:43Z</time></trkpt>
	<trkpt lat="51.82898" lon="-2.101385"><ele>290.000000</ele><time>2010-04-07T11:03:48Z</time></trkpt>
	<trkpt lat="51.82897167" lon="-2.101395"><ele>289.000000</ele><time>2010-04-07T11:03:53Z</time></trkpt>
	<trkpt lat="51.82897833" lon="-2.1014"><ele>289.000000</ele><time>2010-04-07T11:03:58Z</time></trkpt>
	<trkpt lat="51.82897667" lon="-2.101405"><ele>289.000000</ele><time>2010-04-07T11:04:03Z</time></trkpt>
	<trkpt lat="51.82897" lon="-2.101468333"><ele>288.000000</ele><time>2010-04-07T11:04:08Z</time></trkpt>
	<trkpt lat="51.82897667" lon="-2.101518333"><ele>289.000000</ele><time>2010-04-07T11:04:13Z</time></trkpt>
	<trkpt lat="51.82898167" lon="-2.101531667"><ele>289.000000</ele><time>2010-04-07T11:04:18Z</time></trkpt>
	<trkpt lat="51.82898" lon="-2.101615"><ele>290.000000</ele><time>2010-04-07T11:04:23Z</time></trkpt>
	<trkpt lat="51.82899667" lon="-2.101683333"><ele>290.000000</ele><time>2010-04-07T11:04:28Z</time></trkpt>
	<trkpt lat="51.82900667" lon="-2.10174"><ele>291.000000</ele><time>2010-04-07T11:04:33Z</time></trkpt>
	<trkpt lat="51.82900667" lon="-2.101756667"><ele>292.000000</ele><time>2010-04-07T11:04:38Z</time></trkpt>
	<trkpt lat="51.82899667" lon="-2.10179"><ele>291.000000</ele><time>2010-04-07T11:04:43Z</time></trkpt>
	<trkpt lat="51.829" lon="-2.101831667"><ele>291.000000</ele><time>2010-04-07T11:04:48Z</time></trkpt>
	<trkpt lat="51.82900167" lon="-2.101841667"><ele>290.000000</ele><time>2010-04-07T11:04:53Z</time></trkpt>
	<trkpt lat="51.829005" lon="-2.101858333"><ele>290.000000</ele><time>2010-04-07T11:04:58Z</time></trkpt>
	<trkpt lat="51.829005" lon="-2.10186"><ele>290.000000</ele><time>2010-04-07T11:05:03Z</time></trkpt>
	<trkpt lat="51.82900667" lon="-2.101861667"><ele>291.000000</ele><time>2010-04-07T11:05:08Z</time></trkpt>
	<trkpt lat="51.82900333" lon="-2.101868333"><ele>291.000000</ele><time>2010-04-07T11:05:13Z</time></trkpt>
	<trkpt lat="51.82900167" lon="-2.101883333"><ele>291.000000</ele><time>2010-04-07T11:05:18Z</time></trkpt>
	<trkpt lat="51.829" lon="-2.101908333"><ele>291.000000</ele><time>2010-04-07T11:05:23Z</time></trkpt>
	<trkpt lat="51.82900833" lon="-2.10198"><ele>291.000000</ele><time>2010-04-07T11:05:28Z</time></trkpt>
	<trkpt lat="51.82901833" lon="-2.102051667"><ele>291.000000</ele><time>2010-04-07T11:05:33Z</time></trkpt>
	<trkpt lat="51.82902167" lon="-2.102126667"><ele>291.000000</ele><time>2010-04-07T11:05:38Z</time></trkpt>
	<trkpt lat="51.82902667" lon="-2.102206667"><ele>292.000000</ele><time>2010-04-07T11:05:43Z</time></trkpt>
	<trkpt lat="51.82903" lon="-2.102291667"><ele>292.000000</ele><time>2010-04-07T11:05:48Z</time></trkpt>
	<trkpt lat="51.82904" lon="-2.10237"><ele>292.000000</ele><time>2010-04-07T11:05:53Z</time></trkpt>
	<trkpt lat="51.82905" lon="-2.10244"><ele>291.000000</ele><time>2010-04-07T11:05:58Z</time></trkpt>
	<trkpt lat="51.82905667" lon="-2.102518333"><ele>291.000000</ele><time>2010-04-07T11:06:03Z</time></trkpt>
	<trkpt lat="51.82906667" lon="-2.102591667"><ele>291.000000</ele><time>2010-04-07T11:06:08Z</time></trkpt>
	<trkpt lat="51.82907" lon="-2.102665"><ele>290.000000</ele><time>2010-04-07T11:06:13Z</time></trkpt>
	<trkpt lat="51.82906833" lon="-2.102745"><ele>291.000000</ele><time>2010-04-07T11:06:18Z</time></trkpt>
	<trkpt lat="51.829075" lon="-2.102816667"><ele>291.000000</ele><time>2010-04-07T11:06:23Z</time></trkpt>
	<trkpt lat="51.829085" lon="-2.102878333"><ele>291.000000</ele><time>2010-04-07T11:06:28Z</time></trkpt>
	<trkpt lat="51.82908667" lon="-2.102941667"><ele>291.000000</ele><time>2010-04-07T11:06:33Z</time></trkpt>
	<trkpt lat="51.82909167" lon="-2.103005"><ele>291.000000</ele><time>2010-04-07T11:06:38Z</time></trkpt>
	<trkpt lat="51.82909" lon="-2.103075"><ele>291.000000</ele><time>2010-04-07T11:06:43Z</time></trkpt>
	<trkpt lat="51.829095" lon="-2.103153333"><ele>291.000000</ele><time>2010-04-07T11:06:48Z</time></trkpt>
	<trkpt lat="51.82909667" lon="-2.103238333"><ele>292.000000</ele><time>2010-04-07T11:06:53Z</time></trkpt>
	<trkpt lat="51.8291" lon="-2.10332"><ele>292.000000</ele><time>2010-04-07T11:06:58Z</time></trkpt>
	<trkpt lat="51.82910667" lon="-2.103401667"><ele>292.000000</ele><time>2010-04-07T11:07:03Z</time></trkpt>
	<trkpt lat="51.82910833" lon="-2.10348"><ele>293.000000</ele><time>2010-04-07T11:07:08Z</time></trkpt>
	<trkpt lat="51.82910833" lon="-2.103561667"><ele>293.000000</ele><time>2010-04-07T11:07:13Z</time></trkpt>
	<trkpt lat="51.82910833" lon="-2.10364"><ele>293.000000</ele><time>2010-04-07T11:07:18Z</time></trkpt>
	<trkpt lat="51.82911" lon="-2.103721667"><ele>293.000000</ele><time>2010-04-07T11:07:23Z</time></trkpt>
	<trkpt lat="51.82911333" lon="-2.103793333"><ele>293.000000</ele><time>2010-04-07T11:07:28Z</time></trkpt>
	<trkpt lat="51.82912" lon="-2.10387"><ele>293.000000</ele><time>2010-04-07T11:07:33Z</time></trkpt>
	<trkpt lat="51.82911667" lon="-2.103945"><ele>294.000000</ele><time>2010-04-07T11:07:38Z</time></trkpt>
	<trkpt lat="51.829125" lon="-2.104028333"><ele>295.000000</ele><time>2010-04-07T11:07:43Z</time></trkpt>
	<trkpt lat="51.82913667" lon="-2.104105"><ele>295.000000</ele><time>2010-04-07T11:07:48Z</time></trkpt>
	<trkpt lat="51.82914167" lon="-2.104181667"><ele>295.000000</ele><time>2010-04-07T11:07:53Z</time></trkpt>
	<trkpt lat="51.829155" lon="-2.104258333"><ele>294.000000</ele><time>2010-04-07T11:07:58Z</time></trkpt>
	<trkpt lat="51.82916" lon="-2.104338333"><ele>295.000000</ele><time>2010-04-07T11:08:03Z</time></trkpt>
	<trkpt lat="51.82916667" lon="-2.104408333"><ele>294.000000</ele><time>2010-04-07T11:08:08Z</time></trkpt>
	<trkpt lat="51.82917333" lon="-2.104476667"><ele>294.000000</ele><time>2010-04-07T11:08:13Z</time></trkpt>
	<trkpt lat="51.82917667" lon="-2.104515"><ele>294.000000</ele><time>2010-04-07T11:08:18Z</time></trkpt>
	<trkpt lat="51.82918" lon="-2.10453"><ele>294.000000</ele><time>2010-04-07T11:08:23Z</time></trkpt>
	<trkpt lat="51.82917667" lon="-2.10454"><ele>294.000000</ele><time>2010-04-07T11:08:28Z</time></trkpt>
	<trkpt lat="51.829185" lon="-2.104548333"><ele>294.000000</ele><time>2010-04-07T11:08:33Z</time></trkpt>
	<trkpt lat="51.82919" lon="-2.10457"><ele>294.000000</ele><time>2010-04-07T11:08:38Z</time></trkpt>
	<trkpt lat="51.82918667" lon="-2.104576667"><ele>294.000000</ele><time>2010-04-07T11:08:43Z</time></trkpt>
	<trkpt lat="51.82918833" lon="-2.104571667"><ele>294.000000</ele><time>2010-04-07T11:08:48Z</time></trkpt>
	<trkpt lat="51.82918667" lon="-2.104591667"><ele>294.000000</ele><time>2010-04-07T11:08:53Z</time></trkpt>
	<trkpt lat="51.82917667" lon="-2.104595"><ele>293.000000</ele><time>2010-04-07T11:08:58Z</time></trkpt>
	<trkpt lat="51.82917667" lon="-2.104593333"><ele>292.000000</ele><time>2010-04-07T11:09:03Z</time></trkpt>
	<trkpt lat="51.82917667" lon="-2.104591667"><ele>291.000000</ele><time>2010-04-07T11:09:08Z</time></trkpt>
	<trkpt lat="51.82917667" lon="-2.104593333"><ele>291.000000</ele><time>2010-04-07T11:09:13Z</time></trkpt>
	<trkpt lat="51.82918" lon="-2.104586667"><ele>292.000000</ele><time>2010-04-07T11:09:18Z</time></trkpt>
	<trkpt lat="51.82917667" lon="-2.104586667"><ele>292.000000</ele><time>2010-04-07T11:09:23Z</time></trkpt>
	<trkpt lat="51.82917333" lon="-2.104586667"><ele>291.000000</ele><time>2010-04-07T11:09:28Z</time></trkpt>
	<trkpt lat="51.82917333" lon="-2.104595"><ele>292.000000</ele><time>2010-04-07T11:09:33Z</time></trkpt>
	<trkpt lat="51.829165" lon="-2.104596667"><ele>290.000000</ele><time>2010-04-07T11:09:38Z</time></trkpt>
	<trkpt lat="51.82915833" lon="-2.104591667"><ele>290.000000</ele><time>2010-04-07T11:09:43Z</time></trkpt>
	<trkpt lat="51.82913167" lon="-2.104608333"><ele>289.000000</ele><time>2010-04-07T11:09:48Z</time></trkpt>
	<trkpt lat="51.82911667" lon="-2.104611667"><ele>289.000000</ele><time>2010-04-07T11:09:53Z</time></trkpt>
	<trkpt lat="51.82911" lon="-2.104611667"><ele>289.000000</ele><time>2010-04-07T11:09:58Z</time></trkpt>
	<trkpt lat="51.82910833" lon="-2.104623333"><ele>289.000000</ele><time>2010-04-07T11:10:03Z</time></trkpt>
	<trkpt lat="51.829105" lon="-2.104635"><ele>290.000000</ele><time>2010-04-07T11:10:08Z</time></trkpt>
	<trkpt lat="51.829095" lon="-2.10465"><ele>290.000000</ele><time>2010-04-07T11:10:13Z</time></trkpt>
	<trkpt lat="51.82909" lon="-2.10465"><ele>292.000000</ele><time>2010-04-07T11:10:18Z</time></trkpt>
	<trkpt lat="51.82908167" lon="-2.104643333"><ele>292.000000</ele><time>2010-04-07T11:10:23Z</time></trkpt>
	<trkpt lat="51.82907167" lon="-2.10464"><ele>292.000000</ele><time>2010-04-07T11:10:28Z</time></trkpt>
	<trkpt lat="51.82902667" lon="-2.104655"><ele>293.000000</ele><time>2010-04-07T11:10:33Z</time></trkpt>
	<trkpt lat="51.82896333" lon="-2.104703333"><ele>293.000000</ele><time>2010-04-07T11:10:38Z</time></trkpt>
	<trkpt lat="51.828895" lon="-2.104733333"><ele>293.000000</ele><time>2010-04-07T11:10:43Z</time></trkpt>
	<trkpt lat="51.82882667" lon="-2.104768333"><ele>294.000000</ele><time>2010-04-07T11:10:48Z</time></trkpt>
	<trkpt lat="51.82876" lon="-2.104815"><ele>294.000000</ele><time>2010-04-07T11:10:53Z</time></trkpt>
	<trkpt lat="51.828695" lon="-2.104853333"><ele>295.000000</ele><time>2010-04-07T11:10:58Z</time></trkpt>
	<trkpt lat="51.82863" lon="-2.104891667"><ele>295.000000</ele><time>2010-04-07T11:11:03Z</time></trkpt>
	<trkpt lat="51.82858" lon="-2.104915"><ele>295.000000</ele><time>2010-04-07T11:11:08Z</time></trkpt>
	<trkpt lat="51.82855833" lon="-2.104926667"><ele>295.000000</ele><time>2010-04-07T11:11:13Z</time></trkpt>
	<trkpt lat="51.82850667" lon="-2.104981667"><ele>295.000000</ele><time>2010-04-07T11:11:18Z</time></trkpt>
	<trkpt lat="51.82846167" lon="-2.104986667"><ele>294.000000</ele><time>2010-04-07T11:11:23Z</time></trkpt>
	<trkpt lat="51.828395" lon="-2.105005"><ele>293.000000</ele><time>2010-04-07T11:11:28Z</time></trkpt>
	<trkpt lat="51.82833" lon="-2.105041667"><ele>292.000000</ele><time>2010-04-07T11:11:33Z</time></trkpt>
	<trkpt lat="51.82827" lon="-2.105068333"><ele>292.000000</ele><time>2010-04-07T11:11:38Z</time></trkpt>
	<trkpt lat="51.828205" lon="-2.105096667"><ele>291.000000</ele><time>2010-04-07T11:11:43Z</time></trkpt>
	<trkpt lat="51.82815" lon="-2.10514"><ele>290.000000</ele><time>2010-04-07T11:11:48Z</time></trkpt>
	<trkpt lat="51.82809333" lon="-2.10517"><ele>289.000000</ele><time>2010-04-07T11:11:53Z</time></trkpt>
	<trkpt lat="51.82803667" lon="-2.105203333"><ele>289.000000</ele><time>2010-04-07T11:11:58Z</time></trkpt>
	<trkpt lat="51.82799667" lon="-2.105198333"><ele>288.000000</ele><time>2010-04-07T11:12:03Z</time></trkpt>
	<trkpt lat="51.82795333" lon="-2.105106667"><ele>289.000000</ele><time>2010-04-07T11:12:08Z</time></trkpt>
	<trkpt lat="51.827895" lon="-2.105021667"><ele>289.000000</ele><time>2010-04-07T11:12:13Z</time></trkpt>
	<trkpt lat="51.82785333" lon="-2.104923333"><ele>289.000000</ele><time>2010-04-07T11:12:18Z</time></trkpt>
	<trkpt lat="51.827805" lon="-2.104858333"><ele>289.000000</ele><time>2010-04-07T11:12:23Z</time></trkpt>
	<trkpt lat="51.827745" lon="-2.10488"><ele>288.000000</ele><time>2010-04-07T11:12:28Z</time></trkpt>
	<trkpt lat="51.82768833" lon="-2.104906667"><ele>286.000000</ele><time>2010-04-07T11:12:33Z</time></trkpt>
	<trkpt lat="51.82764" lon="-2.104943333"><ele>286.000000</ele><time>2010-04-07T11:12:38Z</time></trkpt>
	<trkpt lat="51.82759" lon="-2.104971667"><ele>286.000000</ele><time>2010-04-07T11:12:43Z</time></trkpt>
	<trkpt lat="51.82752833" lon="-2.104983333"><ele>285.000000</ele><time>2010-04-07T11:12:48Z</time></trkpt>
	<trkpt lat="51.82746833" lon="-2.105031667"><ele>285.000000</ele><time>2010-04-07T11:12:53Z</time></trkpt>
	<trkpt lat="51.82741833" lon="-2.105043333"><ele>283.000000</ele><time>2010-04-07T11:12:58Z</time></trkpt>
	<trkpt lat="51.82736333" lon="-2.105043333"><ele>284.000000</ele><time>2010-04-07T11:13:03Z</time></trkpt>
	<trkpt lat="51.82731833" lon="-2.105071667"><ele>283.000000</ele><time>2010-04-07T11:13:08Z</time></trkpt>
	<trkpt lat="51.82727333" lon="-2.105093333"><ele>283.000000</ele><time>2010-04-07T11:13:13Z</time></trkpt>
	<trkpt lat="51.82723167" lon="-2.105131667"><ele>282.000000</ele><time>2010-04-07T11:13:18Z</time></trkpt>
	<trkpt lat="51.82718833" lon="-2.105175"><ele>281.000000</ele><time>2010-04-07T11:13:23Z</time></trkpt>
	<trkpt lat="51.82713833" lon="-2.105206667"><ele>280.000000</ele><time>2010-04-07T11:13:28Z</time></trkpt>
	<trkpt lat="51.82707167" lon="-2.105211667"><ele>281.000000</ele><time>2010-04-07T11:13:33Z</time></trkpt>
	<trkpt lat="51.82699667" lon="-2.105193333"><ele>286.000000</ele><time>2010-04-07T11:13:38Z</time></trkpt>
	<trkpt lat="51.82694333" lon="-2.105208333"><ele>288.000000</ele><time>2010-04-07T11:13:43Z</time></trkpt>
	<trkpt lat="51.82694333" lon="-2.105281667"><ele>288.000000</ele><time>2010-04-07T11:13:48Z</time></trkpt>
	<trkpt lat="51.82697167" lon="-2.105366667"><ele>287.000000</ele><time>2010-04-07T11:13:53Z</time></trkpt>
	<trkpt lat="51.82697333" lon="-2.105441667"><ele>290.000000</ele><time>2010-04-07T11:13:58Z</time></trkpt>
	<trkpt lat="51.82697167" lon="-2.105493333"><ele>288.000000</ele><time>2010-04-07T11:14:03Z</time></trkpt>
	<trkpt lat="51.82698167" lon="-2.105556667"><ele>287.000000</ele><time>2010-04-07T11:14:08Z</time></trkpt>
	<trkpt lat="51.82699333" lon="-2.105643333"><ele>288.000000</ele><time>2010-04-07T11:14:13Z</time></trkpt>
	<trkpt lat="51.82701667" lon="-2.105721667"><ele>288.000000</ele><time>2010-04-07T11:14:18Z</time></trkpt>
	<trkpt lat="51.82702667" lon="-2.1058"><ele>288.000000</ele><time>2010-04-07T11:14:23Z</time></trkpt>
	<trkpt lat="51.82704833" lon="-2.105883333"><ele>289.000000</ele><time>2010-04-07T11:14:28Z</time></trkpt>
	<trkpt lat="51.82706333" lon="-2.105971667"><ele>289.000000</ele><time>2010-04-07T11:14:33Z</time></trkpt>
	<trkpt lat="51.82709333" lon="-2.106051667"><ele>289.000000</ele><time>2010-04-07T11:14:38Z</time></trkpt>
	<trkpt lat="51.82712167" lon="-2.106111667"><ele>288.000000</ele><time>2010-04-07T11:14:43Z</time></trkpt>
	<trkpt lat="51.82715167" lon="-2.1062"><ele>288.000000</ele><time>2010-04-07T11:14:48Z</time></trkpt>
	<trkpt lat="51.82717833" lon="-2.10629"><ele>289.000000</ele><time>2010-04-07T11:14:53Z</time></trkpt>
	<trkpt lat="51.82719667" lon="-2.106373333"><ele>289.000000</ele><time>2010-04-07T11:14:58Z</time></trkpt>
	<trkpt lat="51.82721333" lon="-2.106461667"><ele>290.000000</ele><time>2010-04-07T11:15:03Z</time></trkpt>
	<trkpt lat="51.82723833" lon="-2.106541667"><ele>290.000000</ele><time>2010-04-07T11:15:08Z</time></trkpt>
	<trkpt lat="51.82726167" lon="-2.106625"><ele>290.000000</ele><time>2010-04-07T11:15:13Z</time></trkpt>
	<trkpt lat="51.82727833" lon="-2.106705"><ele>290.000000</ele><time>2010-04-07T11:15:18Z</time></trkpt>
	<trkpt lat="51.827295" lon="-2.106778333"><ele>290.000000</ele><time>2010-04-07T11:15:23Z</time></trkpt>
	<trkpt lat="51.82730333" lon="-2.106861667"><ele>290.000000</ele><time>2010-04-07T11:15:28Z</time></trkpt>
	<trkpt lat="51.82731333" lon="-2.106901667"><ele>288.000000</ele><time>2010-04-07T11:15:33Z</time></trkpt>
	<trkpt lat="51.82731333" lon="-2.106976667"><ele>288.000000</ele><time>2010-04-07T11:15:38Z</time></trkpt>
	<trkpt lat="51.82733167" lon="-2.107045"><ele>288.000000</ele><time>2010-04-07T11:15:43Z</time></trkpt>
	<trkpt lat="51.82733667" lon="-2.107083333"><ele>288.000000</ele><time>2010-04-07T11:15:48Z</time></trkpt>
	<trkpt lat="51.82737" lon="-2.107155"><ele>290.000000</ele><time>2010-04-07T11:15:53Z</time></trkpt>
	<trkpt lat="51.82739333" lon="-2.107246667"><ele>292.000000</ele><time>2010-04-07T11:15:58Z</time></trkpt>
	<trkpt lat="51.82740667" lon="-2.107326667"><ele>292.000000</ele><time>2010-04-07T11:16:03Z</time></trkpt>
	<trkpt lat="51.82742333" lon="-2.107408333"><ele>293.000000</ele><time>2010-04-07T11:16:08Z</time></trkpt>
	<trkpt lat="51.827425" lon="-2.107488333"><ele>293.000000</ele><time>2010-04-07T11:16:13Z</time></trkpt>
	<trkpt lat="51.82743833" lon="-2.107555"><ele>292.000000</ele><time>2010-04-07T11:16:18Z</time></trkpt>
	<trkpt lat="51.82745833" lon="-2.107636667"><ele>291.000000</ele><time>2010-04-07T11:16:23Z</time></trkpt>
	<trkpt lat="51.827485" lon="-2.107695"><ele>289.000000</ele><time>2010-04-07T11:16:28Z</time></trkpt>
	<trkpt lat="51.827515" lon="-2.107758333"><ele>288.000000</ele><time>2010-04-07T11:16:33Z</time></trkpt>
	<trkpt lat="51.827535" lon="-2.107806667"><ele>287.000000</ele><time>2010-04-07T11:16:38Z</time></trkpt>
	<trkpt lat="51.82754333" lon="-2.107846667"><ele>288.000000</ele><time>2010-04-07T11:16:43Z</time></trkpt>
	<trkpt lat="51.82752667" lon="-2.107846667"><ele>290.000000</ele><time>2010-04-07T11:16:48Z</time></trkpt>
	<trkpt lat="51.82754" lon="-2.107925"><ele>291.000000</ele><time>2010-04-07T11:16:53Z</time></trkpt>
	<trkpt lat="51.82756833" lon="-2.108003333"><ele>290.000000</ele><time>2010-04-07T11:16:58Z</time></trkpt>
	<trkpt lat="51.82758667" lon="-2.108086667"><ele>289.000000</ele><time>2010-04-07T11:17:03Z</time></trkpt>
	<trkpt lat="51.827605" lon="-2.108166667"><ele>289.000000</ele><time>2010-04-07T11:17:08Z</time></trkpt>
	<trkpt lat="51.82762" lon="-2.108218333"><ele>288.000000</ele><time>2010-04-07T11:17:13Z</time></trkpt>
	<trkpt lat="51.827635" lon="-2.108286667"><ele>287.000000</ele><time>2010-04-07T11:17:18Z</time></trkpt>
	<trkpt lat="51.827665" lon="-2.108361667"><ele>286.000000</ele><time>2010-04-07T11:17:23Z</time></trkpt>
	<trkpt lat="51.82768" lon="-2.108428333"><ele>287.000000</ele><time>2010-04-07T11:17:28Z</time></trkpt>
	<trkpt lat="51.82769167" lon="-2.108468333"><ele>289.000000</ele><time>2010-04-07T11:17:33Z</time></trkpt>
	<trkpt lat="51.82767833" lon="-2.108478333"><ele>289.000000</ele><time>2010-04-07T11:17:38Z</time></trkpt>
	<trkpt lat="51.827685" lon="-2.108536667"><ele>289.000000</ele><time>2010-04-07T11:17:43Z</time></trkpt>
	<trkpt lat="51.827705" lon="-2.108613333"><ele>288.000000</ele><time>2010-04-07T11:17:48Z</time></trkpt>
	<trkpt lat="51.82773667" lon="-2.108653333"><ele>286.000000</ele><time>2010-04-07T11:17:53Z</time></trkpt>
	<trkpt lat="51.827785" lon="-2.108673333"><ele>287.000000</ele><time>2010-04-07T11:17:58Z</time></trkpt>
	<trkpt lat="51.82782667" lon="-2.108733333"><ele>289.000000</ele><time>2010-04-07T11:18:03Z</time></trkpt>
	<trkpt lat="51.82783" lon="-2.108741667"><ele>291.000000</ele><time>2010-04-07T11:18:08Z</time></trkpt>
	<trkpt lat="51.82783833" lon="-2.108773333"><ele>292.000000</ele><time>2010-04-07T11:18:13Z</time></trkpt>
	<trkpt lat="51.82784167" lon="-2.108858333"><ele>292.000000</ele><time>2010-04-07T11:18:18Z</time></trkpt>
	<trkpt lat="51.82783333" lon="-2.108933333"><ele>292.000000</ele><time>2010-04-07T11:18:23Z</time></trkpt>
	<trkpt lat="51.82784667" lon="-2.109018333"><ele>291.000000</ele><time>2010-04-07T11:18:28Z</time></trkpt>
	<trkpt lat="51.82787333" lon="-2.109118333"><ele>292.000000</ele><time>2010-04-07T11:18:33Z</time></trkpt>
	<trkpt lat="51.827895" lon="-2.109195"><ele>293.000000</ele><time>2010-04-07T11:18:38Z</time></trkpt>
	<trkpt lat="51.82792" lon="-2.109276667"><ele>293.000000</ele><time>2010-04-07T11:18:43Z</time></trkpt>
	<trkpt lat="51.827945" lon="-2.109345"><ele>292.000000</ele><time>2010-04-07T11:18:48Z</time></trkpt>
	<trkpt lat="51.82796833" lon="-2.109423333"><ele>292.000000</ele><time>2010-04-07T11:18:53Z</time></trkpt>
	<trkpt lat="51.82799833" lon="-2.1095"><ele>292.000000</ele><time>2010-04-07T11:18:58Z</time></trkpt>
	<trkpt lat="51.82802833" lon="-2.109523333"><ele>292.000000</ele><time>2010-04-07T11:19:03Z</time></trkpt>
	<trkpt lat="51.82807333" lon="-2.109535"><ele>293.000000</ele><time>2010-04-07T11:19:08Z</time></trkpt>
	<trkpt lat="51.82812" lon="-2.109548333"><ele>293.000000</ele><time>2010-04-07T11:19:13Z</time></trkpt>
	<trkpt lat="51.828175" lon="-2.109591667"><ele>294.000000</ele><time>2010-04-07T11:19:18Z</time></trkpt>
	<trkpt lat="51.828215" lon="-2.109626667"><ele>295.000000</ele><time>2010-04-07T11:19:23Z</time></trkpt>
	<trkpt lat="51.82827833" lon="-2.109666667"><ele>293.000000</ele><time>2010-04-07T11:19:28Z</time></trkpt>
	<trkpt lat="51.82833667" lon="-2.109703333"><ele>293.000000</ele><time>2010-04-07T11:19:33Z</time></trkpt>
	<trkpt lat="51.82840167" lon="-2.109703333"><ele>291.000000</ele><time>2010-04-07T11:19:38Z</time></trkpt>
	<trkpt lat="51.82846" lon="-2.109723333"><ele>290.000000</ele><time>2010-04-07T11:19:43Z</time></trkpt>
	<trkpt lat="51.82852333" lon="-2.109726667"><ele>291.000000</ele><time>2010-04-07T11:19:48Z</time></trkpt>
	<trkpt lat="51.828585" lon="-2.109735"><ele>292.000000</ele><time>2010-04-07T11:19:53Z</time></trkpt>
	<trkpt lat="51.82863667" lon="-2.109755"><ele>293.000000</ele><time>2010-04-07T11:19:58Z</time></trkpt>
	<trkpt lat="51.82867667" lon="-2.109751667"><ele>292.000000</ele><time>2010-04-07T11:20:03Z</time></trkpt>
	<trkpt lat="51.8287" lon="-2.109806667"><ele>293.000000</ele><time>2010-04-07T11:20:08Z</time></trkpt>
	<trkpt lat="51.82873333" lon="-2.109843333"><ele>293.000000</ele><time>2010-04-07T11:20:13Z</time></trkpt>
	<trkpt lat="51.82876167" lon="-2.109898333"><ele>293.000000</ele><time>2010-04-07T11:20:18Z</time></trkpt>
	<trkpt lat="51.82879667" lon="-2.10994"><ele>292.000000</ele><time>2010-04-07T11:20:23Z</time></trkpt>
	<trkpt lat="51.82883833" lon="-2.109945"><ele>290.000000</ele><time>2010-04-07T11:20:28Z</time></trkpt>
	<trkpt lat="51.82886833" lon="-2.109908333"><ele>287.000000</ele><time>2010-04-07T11:20:33Z</time></trkpt>
	<trkpt lat="51.82886667" lon="-2.10991"><ele>288.000000</ele><time>2010-04-07T11:20:38Z</time></trkpt>
	<trkpt lat="51.82887333" lon="-2.1099"><ele>287.000000</ele><time>2010-04-07T11:20:43Z</time></trkpt>
</trkseg>
</trk>
</gpx>
